<?xml version="1.0" encoding="UTF-8" standalone="no" ?>
<gpx xmlns="http://www.topografix.com/GPX/1/1" xmlns:xsi="http://www.w3.org/2001/XMLSchema-instance" xsi:schemaLocation="http://www.topografix.com/GPX/1/1 http://www.topografix.com/GPX/1/1/gpx.xsd" version="1.1" creator="VisuGPX - https://www.visugpx.com">
  <metadata>
    <name>Road trip fait P/E</name>
  </metadata>
  <trk>
    <name><![CDATA[Road trip fait P/E_5]]></name>
    <extensions>
      <line xmlns="http://www.topografix.com/GPX/gpx_style/0/2">
        <color>0000FF</color>
        <width>4</width>
      </line>
    </extensions>
    <trkseg>
      <trkpt lat="39.46512" lon="-7.54496">
        <ele>313.1103</ele>
        <time>2021-07-09T20:03:32Z</time>
      </trkpt>
      <trkpt lat="39.46512" lon="-7.54496">
        <ele>313.1103</ele>
        <time>2021-07-09T20:03:32Z</time>
      </trkpt>
      <trkpt lat="39.46514" lon="-7.54503">
        <ele>310.1652</ele>
        <time>2021-07-10T07:45:07Z</time>
      </trkpt>
      <trkpt lat="39.46509" lon="-7.54506">
        <ele>309.2717</ele>
        <time>2021-07-10T07:45:59Z</time>
      </trkpt>
      <trkpt lat="39.46506" lon="-7.545">
        <ele>309.2554</ele>
        <time>2021-07-10T07:46:10Z</time>
      </trkpt>
      <trkpt lat="39.4649" lon="-7.54478">
        <ele>308.1128</ele>
        <time>2021-07-10T07:46:21Z</time>
      </trkpt>
      <trkpt lat="39.4645" lon="-7.54398">
        <ele>309.3858</ele>
        <time>2021-07-10T07:46:32Z</time>
      </trkpt>
      <trkpt lat="39.46417" lon="-7.54404">
        <ele>312.679</ele>
        <time>2021-07-10T07:46:43Z</time>
      </trkpt>
      <trkpt lat="39.46355" lon="-7.54397">
        <ele>313.5671</ele>
        <time>2021-07-10T07:46:54Z</time>
      </trkpt>
      <trkpt lat="39.46305" lon="-7.54347">
        <ele>317.5822</ele>
        <time>2021-07-10T07:47:05Z</time>
      </trkpt>
      <trkpt lat="39.46208" lon="-7.54254">
        <ele>328.1381</ele>
        <time>2021-07-10T07:47:16Z</time>
      </trkpt>
      <trkpt lat="39.46094" lon="-7.54125">
        <ele>337.0458</ele>
        <time>2021-07-10T07:47:27Z</time>
      </trkpt>
      <trkpt lat="39.45952" lon="-7.54041">
        <ele>336.1097</ele>
        <time>2021-07-10T07:47:38Z</time>
      </trkpt>
      <trkpt lat="39.45823" lon="-7.53888">
        <ele>325.4272</ele>
        <time>2021-07-10T07:47:49Z</time>
      </trkpt>
      <trkpt lat="39.45698" lon="-7.53773">
        <ele>319.5578</ele>
        <time>2021-07-10T07:48:00Z</time>
      </trkpt>
      <trkpt lat="39.45537" lon="-7.53654">
        <ele>314.7485</ele>
        <time>2021-07-10T07:48:11Z</time>
      </trkpt>
      <trkpt lat="39.45372" lon="-7.53491">
        <ele>317.5698</ele>
        <time>2021-07-10T07:48:22Z</time>
      </trkpt>
      <trkpt lat="39.45213" lon="-7.53377">
        <ele>319.3858</ele>
        <time>2021-07-10T07:48:33Z</time>
      </trkpt>
      <trkpt lat="39.45144" lon="-7.53113">
        <ele>320.8348</ele>
        <time>2021-07-10T07:48:44Z</time>
      </trkpt>
      <trkpt lat="39.45143" lon="-7.52796">
        <ele>335.8306</ele>
        <time>2021-07-10T07:48:55Z</time>
      </trkpt>
      <trkpt lat="39.45143" lon="-7.52473">
        <ele>343.2809</ele>
        <time>2021-07-10T07:49:06Z</time>
      </trkpt>
      <trkpt lat="39.45042" lon="-7.52254">
        <ele>348.7406</ele>
        <time>2021-07-10T07:49:17Z</time>
      </trkpt>
      <trkpt lat="39.44848" lon="-7.52053">
        <ele>361.1718</ele>
        <time>2021-07-10T07:49:28Z</time>
      </trkpt>
      <trkpt lat="39.4468" lon="-7.51804">
        <ele>367.38</ele>
        <time>2021-07-10T07:49:39Z</time>
      </trkpt>
      <trkpt lat="39.44525" lon="-7.51527">
        <ele>371.0091</ele>
        <time>2021-07-10T07:49:50Z</time>
      </trkpt>
      <trkpt lat="39.44358" lon="-7.51261">
        <ele>378.0177</ele>
        <time>2021-07-10T07:50:01Z</time>
      </trkpt>
      <trkpt lat="39.44174" lon="-7.51054">
        <ele>383.1813</ele>
        <time>2021-07-10T07:50:12Z</time>
      </trkpt>
      <trkpt lat="39.4396" lon="-7.50898">
        <ele>383.9432</ele>
        <time>2021-07-10T07:50:23Z</time>
      </trkpt>
      <trkpt lat="39.43727" lon="-7.50773">
        <ele>389.224</ele>
        <time>2021-07-10T07:50:34Z</time>
      </trkpt>
      <trkpt lat="39.43479" lon="-7.50668">
        <ele>387.7428</ele>
        <time>2021-07-10T07:50:45Z</time>
      </trkpt>
      <trkpt lat="39.43285" lon="-7.50589">
        <ele>386.249</ele>
        <time>2021-07-10T07:50:56Z</time>
      </trkpt>
      <trkpt lat="39.43239" lon="-7.50552">
        <ele>385.6471</ele>
        <time>2021-07-10T07:51:07Z</time>
      </trkpt>
      <trkpt lat="39.43155" lon="-7.5034">
        <ele>384.3031</ele>
        <time>2021-07-10T07:51:18Z</time>
      </trkpt>
      <trkpt lat="39.43043" lon="-7.50053">
        <ele>376.3957</ele>
        <time>2021-07-10T07:51:29Z</time>
      </trkpt>
      <trkpt lat="39.42932" lon="-7.49767">
        <ele>385.5461</ele>
        <time>2021-07-10T07:51:40Z</time>
      </trkpt>
      <trkpt lat="39.42844" lon="-7.49464">
        <ele>386.1406</ele>
        <time>2021-07-10T07:51:51Z</time>
      </trkpt>
      <trkpt lat="39.42833" lon="-7.49156">
        <ele>397.9602</ele>
        <time>2021-07-10T07:52:02Z</time>
      </trkpt>
      <trkpt lat="39.42848" lon="-7.48832">
        <ele>411.0873</ele>
        <time>2021-07-10T07:52:13Z</time>
      </trkpt>
      <trkpt lat="39.42799" lon="-7.48525">
        <ele>429.7145</ele>
        <time>2021-07-10T07:52:24Z</time>
      </trkpt>
      <trkpt lat="39.42637" lon="-7.48275">
        <ele>441.4335</ele>
        <time>2021-07-10T07:52:35Z</time>
      </trkpt>
      <trkpt lat="39.42527" lon="-7.4799">
        <ele>456.4157</ele>
        <time>2021-07-10T07:52:46Z</time>
      </trkpt>
      <trkpt lat="39.42442" lon="-7.47686">
        <ele>474.145</ele>
        <time>2021-07-10T07:52:57Z</time>
      </trkpt>
      <trkpt lat="39.42265" lon="-7.47457">
        <ele>486.6159</ele>
        <time>2021-07-10T07:53:08Z</time>
      </trkpt>
      <trkpt lat="39.42081" lon="-7.47235">
        <ele>500.7889</ele>
        <time>2021-07-10T07:53:19Z</time>
      </trkpt>
      <trkpt lat="39.41937" lon="-7.4706">
        <ele>505.8664</ele>
        <time>2021-07-10T07:53:30Z</time>
      </trkpt>
      <trkpt lat="39.41864" lon="-7.46929">
        <ele>507.0635</ele>
        <time>2021-07-10T07:53:41Z</time>
      </trkpt>
      <trkpt lat="39.41859" lon="-7.46916">
        <ele>507.3622</ele>
        <time>2021-07-10T07:53:52Z</time>
      </trkpt>
      <trkpt lat="39.41857" lon="-7.4691">
        <ele>504.8493</ele>
        <time>2021-07-10T07:54:06Z</time>
      </trkpt>
      <trkpt lat="39.41806" lon="-7.46778">
        <ele>511.6417</ele>
        <time>2021-07-10T07:54:17Z</time>
      </trkpt>
      <trkpt lat="39.41712" lon="-7.46604">
        <ele>514.5762</ele>
        <time>2021-07-10T07:54:28Z</time>
      </trkpt>
      <trkpt lat="39.41628" lon="-7.46432">
        <ele>515.5344</ele>
        <time>2021-07-10T07:54:39Z</time>
      </trkpt>
      <trkpt lat="39.4151" lon="-7.46271">
        <ele>517.788</ele>
        <time>2021-07-10T07:54:50Z</time>
      </trkpt>
      <trkpt lat="39.41474" lon="-7.46187">
        <ele>522.9957</ele>
        <time>2021-07-10T07:55:01Z</time>
      </trkpt>
      <trkpt lat="39.41478" lon="-7.46188">
        <ele>525.8639</ele>
        <time>2021-07-10T07:55:12Z</time>
      </trkpt>
      <trkpt lat="39.41432" lon="-7.46151">
        <ele>527.1703</ele>
        <time>2021-07-10T07:55:23Z</time>
      </trkpt>
      <trkpt lat="39.41312" lon="-7.46069">
        <ele>535.6795</ele>
        <time>2021-07-10T07:55:34Z</time>
      </trkpt>
      <trkpt lat="39.41249" lon="-7.459">
        <ele>537.139</ele>
        <time>2021-07-10T07:55:45Z</time>
      </trkpt>
      <trkpt lat="39.41148" lon="-7.45706">
        <ele>537.5201</ele>
        <time>2021-07-10T07:55:56Z</time>
      </trkpt>
      <trkpt lat="39.41003" lon="-7.45507">
        <ele>547.324</ele>
        <time>2021-07-10T07:56:07Z</time>
      </trkpt>
      <trkpt lat="39.40855" lon="-7.45328">
        <ele>559.3372</ele>
        <time>2021-07-10T07:56:18Z</time>
      </trkpt>
      <trkpt lat="39.40761" lon="-7.45114">
        <ele>558.3329</ele>
        <time>2021-07-10T07:56:29Z</time>
      </trkpt>
      <trkpt lat="39.40672" lon="-7.44943">
        <ele>568.2156</ele>
        <time>2021-07-10T07:56:40Z</time>
      </trkpt>
      <trkpt lat="39.40597" lon="-7.44667">
        <ele>584.0489</ele>
        <time>2021-07-10T07:56:51Z</time>
      </trkpt>
      <trkpt lat="39.40607" lon="-7.44543">
        <ele>588.4802</ele>
        <time>2021-07-10T07:57:02Z</time>
      </trkpt>
      <trkpt lat="39.40579" lon="-7.44527">
        <ele>595.509</ele>
        <time>2021-07-10T07:57:13Z</time>
      </trkpt>
      <trkpt lat="39.40577" lon="-7.44523">
        <ele>600.103</ele>
        <time>2021-07-10T07:57:31Z</time>
      </trkpt>
      <trkpt lat="39.40574" lon="-7.44521">
        <ele>599.5371</ele>
        <time>2021-07-10T07:57:48Z</time>
      </trkpt>
      <trkpt lat="39.40491" lon="-7.44571">
        <ele>609.2423</ele>
        <time>2021-07-10T07:57:59Z</time>
      </trkpt>
      <trkpt lat="39.40425" lon="-7.44462">
        <ele>618.7147</ele>
        <time>2021-07-10T07:58:10Z</time>
      </trkpt>
      <trkpt lat="39.40381" lon="-7.44612">
        <ele>634.5654</ele>
        <time>2021-07-10T07:58:21Z</time>
      </trkpt>
      <trkpt lat="39.40361" lon="-7.44785">
        <ele>643.8825</ele>
        <time>2021-07-10T07:58:32Z</time>
      </trkpt>
      <trkpt lat="39.40311" lon="-7.44905">
        <ele>649.2358</ele>
        <time>2021-07-10T07:58:43Z</time>
      </trkpt>
      <trkpt lat="39.40297" lon="-7.44924">
        <ele>650.6635</ele>
        <time>2021-07-10T07:58:54Z</time>
      </trkpt>
      <trkpt lat="39.40309" lon="-7.44932">
        <ele>651.3594</ele>
        <time>2021-07-10T07:59:19Z</time>
      </trkpt>
      <trkpt lat="39.40306" lon="-7.4493">
        <ele>650.7408</ele>
        <time>2021-07-10T07:59:40Z</time>
      </trkpt>
      <trkpt lat="39.403" lon="-7.44928">
        <ele>645.7178</ele>
        <time>2021-07-10T07:59:51Z</time>
      </trkpt>
      <trkpt lat="39.40304" lon="-7.44931">
        <ele>644.6696</ele>
        <time>2021-07-10T08:00:02Z</time>
      </trkpt>
      <trkpt lat="39.40299" lon="-7.44928">
        <ele>644.9887</ele>
        <time>2021-07-10T08:00:47Z</time>
      </trkpt>
      <trkpt lat="39.40288" lon="-7.44931">
        <ele>647.2923</ele>
        <time>2021-07-10T08:00:58Z</time>
      </trkpt>
      <trkpt lat="39.40166" lon="-7.44949">
        <ele>660.337</ele>
        <time>2021-07-10T08:01:09Z</time>
      </trkpt>
      <trkpt lat="39.40167" lon="-7.44822">
        <ele>673.522</ele>
        <time>2021-07-10T08:01:20Z</time>
      </trkpt>
      <trkpt lat="39.40059" lon="-7.44811">
        <ele>690.8857</ele>
        <time>2021-07-10T08:01:31Z</time>
      </trkpt>
      <trkpt lat="39.39981" lon="-7.44936">
        <ele>699.4721</ele>
        <time>2021-07-10T08:01:42Z</time>
      </trkpt>
      <trkpt lat="39.39849" lon="-7.44876">
        <ele>704.1237</ele>
        <time>2021-07-10T08:01:53Z</time>
      </trkpt>
      <trkpt lat="39.39737" lon="-7.4475">
        <ele>708.8696</ele>
        <time>2021-07-10T08:02:04Z</time>
      </trkpt>
      <trkpt lat="39.39829" lon="-7.44546">
        <ele>711.2886</ele>
        <time>2021-07-10T08:02:15Z</time>
      </trkpt>
      <trkpt lat="39.39737" lon="-7.4439">
        <ele>707.8378</ele>
        <time>2021-07-10T08:02:26Z</time>
      </trkpt>
      <trkpt lat="39.39599" lon="-7.44215">
        <ele>698.7701</ele>
        <time>2021-07-10T08:02:37Z</time>
      </trkpt>
      <trkpt lat="39.39434" lon="-7.4414">
        <ele>693.1908</ele>
        <time>2021-07-10T08:02:48Z</time>
      </trkpt>
      <trkpt lat="39.39324" lon="-7.4402">
        <ele>690.2963</ele>
        <time>2021-07-10T08:02:59Z</time>
      </trkpt>
      <trkpt lat="39.39156" lon="-7.43938">
        <ele>683.6541</ele>
        <time>2021-07-10T08:03:10Z</time>
      </trkpt>
      <trkpt lat="39.38984" lon="-7.43812">
        <ele>677.2266</ele>
        <time>2021-07-10T08:03:21Z</time>
      </trkpt>
      <trkpt lat="39.38851" lon="-7.43665">
        <ele>674.5055</ele>
        <time>2021-07-10T08:03:32Z</time>
      </trkpt>
      <trkpt lat="39.38694" lon="-7.43687">
        <ele>672.0238</ele>
        <time>2021-07-10T08:03:43Z</time>
      </trkpt>
      <trkpt lat="39.38615" lon="-7.43546">
        <ele>670.7411</ele>
        <time>2021-07-10T08:03:54Z</time>
      </trkpt>
      <trkpt lat="39.38553" lon="-7.43336">
        <ele>667.905</ele>
        <time>2021-07-10T08:04:05Z</time>
      </trkpt>
      <trkpt lat="39.38599" lon="-7.43136">
        <ele>666.5472</ele>
        <time>2021-07-10T08:04:16Z</time>
      </trkpt>
      <trkpt lat="39.38574" lon="-7.42971">
        <ele>658.7417</ele>
        <time>2021-07-10T08:04:27Z</time>
      </trkpt>
      <trkpt lat="39.38397" lon="-7.42906">
        <ele>651.6187</ele>
        <time>2021-07-10T08:04:38Z</time>
      </trkpt>
      <trkpt lat="39.38214" lon="-7.42903">
        <ele>643.1632</ele>
        <time>2021-07-10T08:04:49Z</time>
      </trkpt>
      <trkpt lat="39.38056" lon="-7.43007">
        <ele>635.3918</ele>
        <time>2021-07-10T08:05:00Z</time>
      </trkpt>
      <trkpt lat="39.37927" lon="-7.43067">
        <ele>630.7541</ele>
        <time>2021-07-10T08:05:11Z</time>
      </trkpt>
      <trkpt lat="39.37811" lon="-7.43144">
        <ele>623.8864</ele>
        <time>2021-07-10T08:05:22Z</time>
      </trkpt>
      <trkpt lat="39.37698" lon="-7.4317">
        <ele>618.1164</ele>
        <time>2021-07-10T08:05:33Z</time>
      </trkpt>
      <trkpt lat="39.37602" lon="-7.4305">
        <ele>614.9031</ele>
        <time>2021-07-10T08:05:44Z</time>
      </trkpt>
      <trkpt lat="39.37475" lon="-7.43039">
        <ele>616.4068</ele>
        <time>2021-07-10T08:05:55Z</time>
      </trkpt>
      <trkpt lat="39.3734" lon="-7.43063">
        <ele>614.2542</ele>
        <time>2021-07-10T08:06:06Z</time>
      </trkpt>
      <trkpt lat="39.37264" lon="-7.43201">
        <ele>608.23</ele>
        <time>2021-07-10T08:06:17Z</time>
      </trkpt>
      <trkpt lat="39.37254" lon="-7.43311">
        <ele>601.3462</ele>
        <time>2021-07-10T08:06:28Z</time>
      </trkpt>
      <trkpt lat="39.37243" lon="-7.43476">
        <ele>593.4679</ele>
        <time>2021-07-10T08:06:39Z</time>
      </trkpt>
      <trkpt lat="39.3709" lon="-7.43523">
        <ele>577.9929</ele>
        <time>2021-07-10T08:06:50Z</time>
      </trkpt>
      <trkpt lat="39.36933" lon="-7.43588">
        <ele>558.8837</ele>
        <time>2021-07-10T08:07:01Z</time>
      </trkpt>
      <trkpt lat="39.36862" lon="-7.435">
        <ele>546.6767</ele>
        <time>2021-07-10T08:07:12Z</time>
      </trkpt>
      <trkpt lat="39.36818" lon="-7.43396">
        <ele>531.6478</ele>
        <time>2021-07-10T08:07:23Z</time>
      </trkpt>
      <trkpt lat="39.36673" lon="-7.43403">
        <ele>513.9492</ele>
        <time>2021-07-10T08:07:34Z</time>
      </trkpt>
      <trkpt lat="39.36597" lon="-7.43453">
        <ele>504.1129</ele>
        <time>2021-07-10T08:07:45Z</time>
      </trkpt>
      <trkpt lat="39.36531" lon="-7.43666">
        <ele>500.1058</ele>
        <time>2021-07-10T08:07:56Z</time>
      </trkpt>
      <trkpt lat="39.36506" lon="-7.43913">
        <ele>481.2669</ele>
        <time>2021-07-10T08:08:07Z</time>
      </trkpt>
      <trkpt lat="39.36537" lon="-7.44113">
        <ele>466.2884</ele>
        <time>2021-07-10T08:08:18Z</time>
      </trkpt>
      <trkpt lat="39.36662" lon="-7.44248">
        <ele>464.638</ele>
        <time>2021-07-10T08:08:29Z</time>
      </trkpt>
      <trkpt lat="39.3666" lon="-7.4433">
        <ele>467.5006</ele>
        <time>2021-07-10T08:08:40Z</time>
      </trkpt>
      <trkpt lat="39.365" lon="-7.44336">
        <ele>458.6035</ele>
        <time>2021-07-10T08:08:51Z</time>
      </trkpt>
      <trkpt lat="39.36324" lon="-7.44367">
        <ele>452.5359</ele>
        <time>2021-07-10T08:09:02Z</time>
      </trkpt>
      <trkpt lat="39.36163" lon="-7.44413">
        <ele>448.6681</ele>
        <time>2021-07-10T08:09:13Z</time>
      </trkpt>
      <trkpt lat="39.36016" lon="-7.44464">
        <ele>450.9738</ele>
        <time>2021-07-10T08:09:24Z</time>
      </trkpt>
      <trkpt lat="39.35875" lon="-7.44486">
        <ele>446.8204</ele>
        <time>2021-07-10T08:09:35Z</time>
      </trkpt>
      <trkpt lat="39.3574" lon="-7.44518">
        <ele>442.8596</ele>
        <time>2021-07-10T08:09:46Z</time>
      </trkpt>
      <trkpt lat="39.35614" lon="-7.4453">
        <ele>438.7855</ele>
        <time>2021-07-10T08:09:57Z</time>
      </trkpt>
      <trkpt lat="39.355" lon="-7.44631">
        <ele>434.5</ele>
        <time>2021-07-10T08:10:08Z</time>
      </trkpt>
      <trkpt lat="39.35357" lon="-7.44699">
        <ele>435.094</ele>
        <time>2021-07-10T08:10:19Z</time>
      </trkpt>
      <trkpt lat="39.35213" lon="-7.44741">
        <ele>435.8269</ele>
        <time>2021-07-10T08:10:30Z</time>
      </trkpt>
      <trkpt lat="39.35091" lon="-7.44806">
        <ele>438.1302</ele>
        <time>2021-07-10T08:10:41Z</time>
      </trkpt>
      <trkpt lat="39.34971" lon="-7.44878">
        <ele>439.9053</ele>
        <time>2021-07-10T08:10:52Z</time>
      </trkpt>
      <trkpt lat="39.34866" lon="-7.44891">
        <ele>431.9831</ele>
        <time>2021-07-10T08:11:03Z</time>
      </trkpt>
      <trkpt lat="39.34766" lon="-7.44879">
        <ele>425.1623</ele>
        <time>2021-07-10T08:11:14Z</time>
      </trkpt>
      <trkpt lat="39.34619" lon="-7.44882">
        <ele>420.1042</ele>
        <time>2021-07-10T08:11:25Z</time>
      </trkpt>
      <trkpt lat="39.34495" lon="-7.44857">
        <ele>415.0608</ele>
        <time>2021-07-10T08:11:36Z</time>
      </trkpt>
      <trkpt lat="39.34362" lon="-7.44769">
        <ele>421.4627</ele>
        <time>2021-07-10T08:11:47Z</time>
      </trkpt>
      <trkpt lat="39.34226" lon="-7.44718">
        <ele>425.8865</ele>
        <time>2021-07-10T08:11:58Z</time>
      </trkpt>
      <trkpt lat="39.34108" lon="-7.44683">
        <ele>434.1309</ele>
        <time>2021-07-10T08:12:09Z</time>
      </trkpt>
      <trkpt lat="39.3401" lon="-7.44628">
        <ele>438.3988</ele>
        <time>2021-07-10T08:12:20Z</time>
      </trkpt>
      <trkpt lat="39.33903" lon="-7.44575">
        <ele>432.9016</ele>
        <time>2021-07-10T08:12:31Z</time>
      </trkpt>
      <trkpt lat="39.33802" lon="-7.44459">
        <ele>436.6359</ele>
        <time>2021-07-10T08:12:42Z</time>
      </trkpt>
      <trkpt lat="39.33723" lon="-7.44407">
        <ele>438.8981</ele>
        <time>2021-07-10T08:12:53Z</time>
      </trkpt>
      <trkpt lat="39.33616" lon="-7.44354">
        <ele>437.7407</ele>
        <time>2021-07-10T08:13:04Z</time>
      </trkpt>
      <trkpt lat="39.33572" lon="-7.44304">
        <ele>440.3516</ele>
        <time>2021-07-10T08:13:15Z</time>
      </trkpt>
      <trkpt lat="39.33566" lon="-7.44298">
        <ele>441.3152</ele>
        <time>2021-07-10T08:13:26Z</time>
      </trkpt>
      <trkpt lat="39.33443" lon="-7.44412">
        <ele>439.2467</ele>
        <time>2021-07-10T08:13:37Z</time>
      </trkpt>
      <trkpt lat="39.33259" lon="-7.44482">
        <ele>440.4346</ele>
        <time>2021-07-10T08:13:48Z</time>
      </trkpt>
      <trkpt lat="39.33114" lon="-7.44502">
        <ele>440.7744</ele>
        <time>2021-07-10T08:13:59Z</time>
      </trkpt>
      <trkpt lat="39.32999" lon="-7.44507">
        <ele>438.695</ele>
        <time>2021-07-10T08:14:10Z</time>
      </trkpt>
      <trkpt lat="39.33036" lon="-7.44606">
        <ele>436.711</ele>
        <time>2021-07-10T08:14:21Z</time>
      </trkpt>
      <trkpt lat="39.3307" lon="-7.44752">
        <ele>440.0732</ele>
        <time>2021-07-10T08:14:32Z</time>
      </trkpt>
      <trkpt lat="39.33094" lon="-7.44992">
        <ele>449.6995</ele>
        <time>2021-07-10T08:14:43Z</time>
      </trkpt>
      <trkpt lat="39.33114" lon="-7.4528">
        <ele>458.6215</ele>
        <time>2021-07-10T08:14:54Z</time>
      </trkpt>
      <trkpt lat="39.33104" lon="-7.45538">
        <ele>468.4726</ele>
        <time>2021-07-10T08:15:05Z</time>
      </trkpt>
      <trkpt lat="39.33087" lon="-7.45728">
        <ele>481.4357</ele>
        <time>2021-07-10T08:15:16Z</time>
      </trkpt>
      <trkpt lat="39.33006" lon="-7.45686">
        <ele>473.9576</ele>
        <time>2021-07-10T08:15:27Z</time>
      </trkpt>
      <trkpt lat="39.32905" lon="-7.45761">
        <ele>471.3233</ele>
        <time>2021-07-10T08:15:38Z</time>
      </trkpt>
      <trkpt lat="39.32761" lon="-7.45643">
        <ele>463.3005</ele>
        <time>2021-07-10T08:15:49Z</time>
      </trkpt>
      <trkpt lat="39.32622" lon="-7.45487">
        <ele>456.1322</ele>
        <time>2021-07-10T08:16:00Z</time>
      </trkpt>
      <trkpt lat="39.32455" lon="-7.45318">
        <ele>471.0121</ele>
        <time>2021-07-10T08:16:11Z</time>
      </trkpt>
      <trkpt lat="39.3231" lon="-7.45143">
        <ele>468.5673</ele>
        <time>2021-07-10T08:16:22Z</time>
      </trkpt>
      <trkpt lat="39.32107" lon="-7.45009">
        <ele>471.1348</ele>
        <time>2021-07-10T08:16:33Z</time>
      </trkpt>
      <trkpt lat="39.31896" lon="-7.44907">
        <ele>471.8292</ele>
        <time>2021-07-10T08:16:44Z</time>
      </trkpt>
      <trkpt lat="39.31673" lon="-7.44818">
        <ele>472.9249</ele>
        <time>2021-07-10T08:16:55Z</time>
      </trkpt>
      <trkpt lat="39.31482" lon="-7.44665">
        <ele>467.368</ele>
        <time>2021-07-10T08:17:06Z</time>
      </trkpt>
      <trkpt lat="39.31292" lon="-7.44511">
        <ele>472.2671</ele>
        <time>2021-07-10T08:17:17Z</time>
      </trkpt>
      <trkpt lat="39.31137" lon="-7.44421">
        <ele>473.8808</ele>
        <time>2021-07-10T08:17:28Z</time>
      </trkpt>
      <trkpt lat="39.30999" lon="-7.4435">
        <ele>472.4676</ele>
        <time>2021-07-10T08:17:39Z</time>
      </trkpt>
      <trkpt lat="39.30974" lon="-7.44307">
        <ele>472.3747</ele>
        <time>2021-07-10T08:17:50Z</time>
      </trkpt>
      <trkpt lat="39.30866" lon="-7.44283">
        <ele>469.2761</ele>
        <time>2021-07-10T08:18:01Z</time>
      </trkpt>
      <trkpt lat="39.30759" lon="-7.44233">
        <ele>466.7798</ele>
        <time>2021-07-10T08:18:12Z</time>
      </trkpt>
      <trkpt lat="39.30626" lon="-7.44149">
        <ele>463.5776</ele>
        <time>2021-07-10T08:18:23Z</time>
      </trkpt>
      <trkpt lat="39.30563" lon="-7.44144">
        <ele>463.8321</ele>
        <time>2021-07-10T08:18:34Z</time>
      </trkpt>
      <trkpt lat="39.30474" lon="-7.44108">
        <ele>453.5891</ele>
        <time>2021-07-10T08:18:45Z</time>
      </trkpt>
      <trkpt lat="39.30331" lon="-7.44011">
        <ele>443.4962</ele>
        <time>2021-07-10T08:18:56Z</time>
      </trkpt>
      <trkpt lat="39.30175" lon="-7.43955">
        <ele>431.7094</ele>
        <time>2021-07-10T08:19:07Z</time>
      </trkpt>
      <trkpt lat="39.30004" lon="-7.43955">
        <ele>422.394</ele>
        <time>2021-07-10T08:19:18Z</time>
      </trkpt>
      <trkpt lat="39.29829" lon="-7.43907">
        <ele>414.7011</ele>
        <time>2021-07-10T08:19:29Z</time>
      </trkpt>
      <trkpt lat="39.29747" lon="-7.43919">
        <ele>412.8419</ele>
        <time>2021-07-10T08:19:40Z</time>
      </trkpt>
      <trkpt lat="39.29712" lon="-7.4394">
        <ele>410.4781</ele>
        <time>2021-07-10T08:19:51Z</time>
      </trkpt>
      <trkpt lat="39.29658" lon="-7.43874">
        <ele>402.9754</ele>
        <time>2021-07-10T08:20:02Z</time>
      </trkpt>
      <trkpt lat="39.29539" lon="-7.43943">
        <ele>392.9472</ele>
        <time>2021-07-10T08:20:13Z</time>
      </trkpt>
      <trkpt lat="39.29389" lon="-7.43999">
        <ele>386.2357</ele>
        <time>2021-07-10T08:20:24Z</time>
      </trkpt>
      <trkpt lat="39.29267" lon="-7.44097">
        <ele>377.9001</ele>
        <time>2021-07-10T08:20:35Z</time>
      </trkpt>
      <trkpt lat="39.29223" lon="-7.44205">
        <ele>379.0695</ele>
        <time>2021-07-10T08:20:46Z</time>
      </trkpt>
      <trkpt lat="39.29076" lon="-7.44264">
        <ele>372.4898</ele>
        <time>2021-07-10T08:20:57Z</time>
      </trkpt>
      <trkpt lat="39.28876" lon="-7.44337">
        <ele>367.3901</ele>
        <time>2021-07-10T08:21:08Z</time>
      </trkpt>
      <trkpt lat="39.28676" lon="-7.44446">
        <ele>361.8636</ele>
        <time>2021-07-10T08:21:19Z</time>
      </trkpt>
      <trkpt lat="39.28469" lon="-7.44529">
        <ele>362.8736</ele>
        <time>2021-07-10T08:21:30Z</time>
      </trkpt>
      <trkpt lat="39.28241" lon="-7.44568">
        <ele>352.7786</ele>
        <time>2021-07-10T08:21:41Z</time>
      </trkpt>
      <trkpt lat="39.28081" lon="-7.4448">
        <ele>335.5952</ele>
        <time>2021-07-10T08:21:52Z</time>
      </trkpt>
      <trkpt lat="39.28098" lon="-7.44368">
        <ele>349.2519</ele>
        <time>2021-07-10T08:22:03Z</time>
      </trkpt>
      <trkpt lat="39.27964" lon="-7.44404">
        <ele>346.7427</ele>
        <time>2021-07-10T08:22:14Z</time>
      </trkpt>
      <trkpt lat="39.27914" lon="-7.44382">
        <ele>341.2617</ele>
        <time>2021-07-10T08:22:25Z</time>
      </trkpt>
      <trkpt lat="39.27803" lon="-7.44382">
        <ele>345.1174</ele>
        <time>2021-07-10T08:22:36Z</time>
      </trkpt>
      <trkpt lat="39.2769" lon="-7.44366">
        <ele>341.5376</ele>
        <time>2021-07-10T08:22:47Z</time>
      </trkpt>
      <trkpt lat="39.27556" lon="-7.44358">
        <ele>346.6978</ele>
        <time>2021-07-10T08:22:58Z</time>
      </trkpt>
      <trkpt lat="39.2742" lon="-7.44322">
        <ele>351.4711</ele>
        <time>2021-07-10T08:23:09Z</time>
      </trkpt>
      <trkpt lat="39.27297" lon="-7.4435">
        <ele>345.925</ele>
        <time>2021-07-10T08:23:20Z</time>
      </trkpt>
      <trkpt lat="39.27154" lon="-7.44387">
        <ele>345.5165</ele>
        <time>2021-07-10T08:23:31Z</time>
      </trkpt>
      <trkpt lat="39.27018" lon="-7.4443">
        <ele>349.146</ele>
        <time>2021-07-10T08:23:42Z</time>
      </trkpt>
      <trkpt lat="39.26888" lon="-7.44477">
        <ele>352.4008</ele>
        <time>2021-07-10T08:23:53Z</time>
      </trkpt>
      <trkpt lat="39.26749" lon="-7.44445">
        <ele>330.8547</ele>
        <time>2021-07-10T08:24:04Z</time>
      </trkpt>
      <trkpt lat="39.26611" lon="-7.44431">
        <ele>329.6687</ele>
        <time>2021-07-10T08:24:15Z</time>
      </trkpt>
      <trkpt lat="39.26465" lon="-7.4445">
        <ele>328.0735</ele>
        <time>2021-07-10T08:24:26Z</time>
      </trkpt>
      <trkpt lat="39.26373" lon="-7.44435">
        <ele>325.3015</ele>
        <time>2021-07-10T08:24:37Z</time>
      </trkpt>
      <trkpt lat="39.26369" lon="-7.44499">
        <ele>334.5404</ele>
        <time>2021-07-10T08:24:48Z</time>
      </trkpt>
      <trkpt lat="39.26369" lon="-7.44596">
        <ele>344.3456</ele>
        <time>2021-07-10T08:24:59Z</time>
      </trkpt>
      <trkpt lat="39.26271" lon="-7.44793">
        <ele>335.7212</ele>
        <time>2021-07-10T08:25:10Z</time>
      </trkpt>
      <trkpt lat="39.26124" lon="-7.45076">
        <ele>319.7818</ele>
        <time>2021-07-10T08:25:21Z</time>
      </trkpt>
      <trkpt lat="39.26037" lon="-7.45263">
        <ele>333.9489</ele>
        <time>2021-07-10T08:25:32Z</time>
      </trkpt>
      <trkpt lat="39.25935" lon="-7.45507">
        <ele>326.0616</ele>
        <time>2021-07-10T08:25:43Z</time>
      </trkpt>
      <trkpt lat="39.2583" lon="-7.45765">
        <ele>325.5997</ele>
        <time>2021-07-10T08:25:54Z</time>
      </trkpt>
      <trkpt lat="39.25694" lon="-7.46094">
        <ele>318.5383</ele>
        <time>2021-07-10T08:26:05Z</time>
      </trkpt>
      <trkpt lat="39.2557" lon="-7.46273">
        <ele>315.1833</ele>
        <time>2021-07-10T08:26:16Z</time>
      </trkpt>
      <trkpt lat="39.25356" lon="-7.46462">
        <ele>312.2337</ele>
        <time>2021-07-10T08:26:27Z</time>
      </trkpt>
      <trkpt lat="39.25145" lon="-7.46651">
        <ele>323.0002</ele>
        <time>2021-07-10T08:26:38Z</time>
      </trkpt>
      <trkpt lat="39.25033" lon="-7.46815">
        <ele>323.0876</ele>
        <time>2021-07-10T08:26:49Z</time>
      </trkpt>
      <trkpt lat="39.24967" lon="-7.47001">
        <ele>324.3685</ele>
        <time>2021-07-10T08:27:00Z</time>
      </trkpt>
      <trkpt lat="39.24962" lon="-7.4701">
        <ele>321.7836</ele>
        <time>2021-07-10T08:27:11Z</time>
      </trkpt>
      <trkpt lat="39.24865" lon="-7.47189">
        <ele>320.5748</ele>
        <time>2021-07-10T08:27:22Z</time>
      </trkpt>
      <trkpt lat="39.24728" lon="-7.47442">
        <ele>320.9484</ele>
        <time>2021-07-10T08:27:33Z</time>
      </trkpt>
      <trkpt lat="39.24628" lon="-7.47683">
        <ele>320.005</ele>
        <time>2021-07-10T08:27:44Z</time>
      </trkpt>
      <trkpt lat="39.24554" lon="-7.47926">
        <ele>305.726</ele>
        <time>2021-07-10T08:27:55Z</time>
      </trkpt>
      <trkpt lat="39.24498" lon="-7.48193">
        <ele>297.6901</ele>
        <time>2021-07-10T08:28:06Z</time>
      </trkpt>
      <trkpt lat="39.24443" lon="-7.48432">
        <ele>286.5693</ele>
        <time>2021-07-10T08:28:17Z</time>
      </trkpt>
      <trkpt lat="39.24405" lon="-7.48528">
        <ele>298.5839</ele>
        <time>2021-07-10T08:28:28Z</time>
      </trkpt>
      <trkpt lat="39.24325" lon="-7.48505">
        <ele>301.148</ele>
        <time>2021-07-10T08:28:39Z</time>
      </trkpt>
      <trkpt lat="39.24226" lon="-7.48474">
        <ele>292.4401</ele>
        <time>2021-07-10T08:28:50Z</time>
      </trkpt>
      <trkpt lat="39.24129" lon="-7.48443">
        <ele>286.1668</ele>
        <time>2021-07-10T08:29:01Z</time>
      </trkpt>
      <trkpt lat="39.24054" lon="-7.48423">
        <ele>287.7344</ele>
        <time>2021-07-10T08:29:12Z</time>
      </trkpt>
      <trkpt lat="39.23976" lon="-7.48361">
        <ele>291.5149</ele>
        <time>2021-07-10T08:29:23Z</time>
      </trkpt>
      <trkpt lat="39.2389" lon="-7.48367">
        <ele>291.7652</ele>
        <time>2021-07-10T08:29:34Z</time>
      </trkpt>
      <trkpt lat="39.23816" lon="-7.48423">
        <ele>292.6209</ele>
        <time>2021-07-10T08:29:45Z</time>
      </trkpt>
      <trkpt lat="39.23714" lon="-7.48506">
        <ele>287.9566</ele>
        <time>2021-07-10T08:29:56Z</time>
      </trkpt>
      <trkpt lat="39.23605" lon="-7.48541">
        <ele>292.4971</ele>
        <time>2021-07-10T08:30:07Z</time>
      </trkpt>
      <trkpt lat="39.2351" lon="-7.48559">
        <ele>297.0767</ele>
        <time>2021-07-10T08:30:18Z</time>
      </trkpt>
      <trkpt lat="39.23422" lon="-7.48609">
        <ele>296.8037</ele>
        <time>2021-07-10T08:30:29Z</time>
      </trkpt>
      <trkpt lat="39.23325" lon="-7.48613">
        <ele>294.7568</ele>
        <time>2021-07-10T08:30:40Z</time>
      </trkpt>
      <trkpt lat="39.23223" lon="-7.48551">
        <ele>289.8791</ele>
        <time>2021-07-10T08:30:51Z</time>
      </trkpt>
      <trkpt lat="39.23149" lon="-7.48487">
        <ele>286.8739</ele>
        <time>2021-07-10T08:31:02Z</time>
      </trkpt>
      <trkpt lat="39.2319" lon="-7.48367">
        <ele>290.4142</ele>
        <time>2021-07-10T08:31:13Z</time>
      </trkpt>
      <trkpt lat="39.23229" lon="-7.48257">
        <ele>292.0983</ele>
        <time>2021-07-10T08:31:24Z</time>
      </trkpt>
      <trkpt lat="39.23208" lon="-7.48238">
        <ele>292.3941</ele>
        <time>2021-07-10T08:31:35Z</time>
      </trkpt>
      <trkpt lat="39.23208" lon="-7.48236">
        <ele>291.8965</ele>
        <time>2021-07-10T08:32:35Z</time>
      </trkpt>
      <trkpt lat="39.2321" lon="-7.48235">
        <ele>292.6563</ele>
        <time>2021-07-10T08:33:34Z</time>
      </trkpt>
      <trkpt lat="39.23209" lon="-7.48236">
        <ele>291.6836</ele>
        <time>2021-07-10T08:34:34Z</time>
      </trkpt>
      <trkpt lat="39.2321" lon="-7.48235">
        <ele>292.4413</ele>
        <time>2021-07-10T08:35:33Z</time>
      </trkpt>
      <trkpt lat="39.23209" lon="-7.48236">
        <ele>291.1025</ele>
        <time>2021-07-10T08:36:32Z</time>
      </trkpt>
      <trkpt lat="39.23201" lon="-7.48235">
        <ele>291.3827</ele>
        <time>2021-07-10T08:37:24Z</time>
      </trkpt>
      <trkpt lat="39.23148" lon="-7.48194">
        <ele>285.4264</ele>
        <time>2021-07-10T08:37:35Z</time>
      </trkpt>
      <trkpt lat="39.23161" lon="-7.48093">
        <ele>290.2652</ele>
        <time>2021-07-10T08:37:46Z</time>
      </trkpt>
      <trkpt lat="39.2315" lon="-7.48018">
        <ele>291.5549</ele>
        <time>2021-07-10T08:37:57Z</time>
      </trkpt>
      <trkpt lat="39.23103" lon="-7.47941">
        <ele>295.3985</ele>
        <time>2021-07-10T08:38:08Z</time>
      </trkpt>
      <trkpt lat="39.23016" lon="-7.47851">
        <ele>292.2126</ele>
        <time>2021-07-10T08:38:19Z</time>
      </trkpt>
      <trkpt lat="39.22914" lon="-7.47842">
        <ele>292.8755</ele>
        <time>2021-07-10T08:38:30Z</time>
      </trkpt>
      <trkpt lat="39.22818" lon="-7.47824">
        <ele>287.9927</ele>
        <time>2021-07-10T08:38:41Z</time>
      </trkpt>
      <trkpt lat="39.22747" lon="-7.47819">
        <ele>285.9263</ele>
        <time>2021-07-10T08:38:52Z</time>
      </trkpt>
      <trkpt lat="39.22625" lon="-7.47772">
        <ele>293.606</ele>
        <time>2021-07-10T08:39:03Z</time>
      </trkpt>
      <trkpt lat="39.22499" lon="-7.47777">
        <ele>294.8824</ele>
        <time>2021-07-10T08:39:14Z</time>
      </trkpt>
      <trkpt lat="39.22371" lon="-7.47819">
        <ele>294.4399</ele>
        <time>2021-07-10T08:39:25Z</time>
      </trkpt>
      <trkpt lat="39.22239" lon="-7.47809">
        <ele>291.4896</ele>
        <time>2021-07-10T08:39:36Z</time>
      </trkpt>
      <trkpt lat="39.22105" lon="-7.47809">
        <ele>292.7533</ele>
        <time>2021-07-10T08:39:47Z</time>
      </trkpt>
      <trkpt lat="39.21993" lon="-7.47805">
        <ele>292.4545</ele>
        <time>2021-07-10T08:39:58Z</time>
      </trkpt>
      <trkpt lat="39.21854" lon="-7.47849">
        <ele>294.7064</ele>
        <time>2021-07-10T08:40:09Z</time>
      </trkpt>
      <trkpt lat="39.21745" lon="-7.47954">
        <ele>296.381</ele>
        <time>2021-07-10T08:40:20Z</time>
      </trkpt>
      <trkpt lat="39.21646" lon="-7.48005">
        <ele>300.8073</ele>
        <time>2021-07-10T08:40:31Z</time>
      </trkpt>
      <trkpt lat="39.21576" lon="-7.48071">
        <ele>299.1388</ele>
        <time>2021-07-10T08:40:42Z</time>
      </trkpt>
      <trkpt lat="39.21489" lon="-7.48096">
        <ele>300.0165</ele>
        <time>2021-07-10T08:40:53Z</time>
      </trkpt>
      <trkpt lat="39.21383" lon="-7.48105">
        <ele>299.8535</ele>
        <time>2021-07-10T08:41:04Z</time>
      </trkpt>
      <trkpt lat="39.21288" lon="-7.48108">
        <ele>294.9149</ele>
        <time>2021-07-10T08:41:15Z</time>
      </trkpt>
      <trkpt lat="39.21236" lon="-7.48136">
        <ele>298.0374</ele>
        <time>2021-07-10T08:41:26Z</time>
      </trkpt>
      <trkpt lat="39.21205" lon="-7.48045">
        <ele>293.5956</ele>
        <time>2021-07-10T08:41:37Z</time>
      </trkpt>
      <trkpt lat="39.21168" lon="-7.47941">
        <ele>284.0581</ele>
        <time>2021-07-10T08:41:48Z</time>
      </trkpt>
      <trkpt lat="39.21124" lon="-7.47858">
        <ele>300.0966</ele>
        <time>2021-07-10T08:41:59Z</time>
      </trkpt>
      <trkpt lat="39.21042" lon="-7.47783">
        <ele>302.9321</ele>
        <time>2021-07-10T08:42:10Z</time>
      </trkpt>
      <trkpt lat="39.20962" lon="-7.47737">
        <ele>304.9257</ele>
        <time>2021-07-10T08:42:21Z</time>
      </trkpt>
      <trkpt lat="39.20887" lon="-7.47711">
        <ele>301.9664</ele>
        <time>2021-07-10T08:42:32Z</time>
      </trkpt>
      <trkpt lat="39.20828" lon="-7.47705">
        <ele>300.0446</ele>
        <time>2021-07-10T08:42:43Z</time>
      </trkpt>
      <trkpt lat="39.20672" lon="-7.47646">
        <ele>297.7427</ele>
        <time>2021-07-10T08:42:54Z</time>
      </trkpt>
      <trkpt lat="39.20582" lon="-7.47604">
        <ele>297.9257</ele>
        <time>2021-07-10T08:43:05Z</time>
      </trkpt>
      <trkpt lat="39.20588" lon="-7.47485">
        <ele>296.3674</ele>
        <time>2021-07-10T08:43:16Z</time>
      </trkpt>
      <trkpt lat="39.20615" lon="-7.47338">
        <ele>295.9774</ele>
        <time>2021-07-10T08:43:27Z</time>
      </trkpt>
      <trkpt lat="39.20613" lon="-7.47203">
        <ele>297.4328</ele>
        <time>2021-07-10T08:43:38Z</time>
      </trkpt>
      <trkpt lat="39.20525" lon="-7.47072">
        <ele>298.0395</ele>
        <time>2021-07-10T08:43:49Z</time>
      </trkpt>
      <trkpt lat="39.20432" lon="-7.46984">
        <ele>295.4562</ele>
        <time>2021-07-10T08:44:00Z</time>
      </trkpt>
      <trkpt lat="39.20417" lon="-7.46891">
        <ele>295.5341</ele>
        <time>2021-07-10T08:44:11Z</time>
      </trkpt>
      <trkpt lat="39.20314" lon="-7.46814">
        <ele>300.1662</ele>
        <time>2021-07-10T08:44:22Z</time>
      </trkpt>
      <trkpt lat="39.20243" lon="-7.4669">
        <ele>304.5564</ele>
        <time>2021-07-10T08:44:33Z</time>
      </trkpt>
      <trkpt lat="39.20193" lon="-7.46594">
        <ele>299.4303</ele>
        <time>2021-07-10T08:44:44Z</time>
      </trkpt>
      <trkpt lat="39.20133" lon="-7.46494">
        <ele>298.8211</ele>
        <time>2021-07-10T08:44:55Z</time>
      </trkpt>
      <trkpt lat="39.20054" lon="-7.46427">
        <ele>293.039</ele>
        <time>2021-07-10T08:45:06Z</time>
      </trkpt>
      <trkpt lat="39.19965" lon="-7.46384">
        <ele>306.5202</ele>
        <time>2021-07-10T08:45:17Z</time>
      </trkpt>
      <trkpt lat="39.199" lon="-7.46305">
        <ele>313.5981</ele>
        <time>2021-07-10T08:45:28Z</time>
      </trkpt>
      <trkpt lat="39.19845" lon="-7.46256">
        <ele>308.7089</ele>
        <time>2021-07-10T08:45:39Z</time>
      </trkpt>
      <trkpt lat="39.19754" lon="-7.46358">
        <ele>303.7514</ele>
        <time>2021-07-10T08:45:50Z</time>
      </trkpt>
      <trkpt lat="39.19672" lon="-7.46525">
        <ele>288.4845</ele>
        <time>2021-07-10T08:46:01Z</time>
      </trkpt>
      <trkpt lat="39.19592" lon="-7.46696">
        <ele>309.1339</ele>
        <time>2021-07-10T08:46:12Z</time>
      </trkpt>
      <trkpt lat="39.19562" lon="-7.46893">
        <ele>316.3903</ele>
        <time>2021-07-10T08:46:23Z</time>
      </trkpt>
      <trkpt lat="39.19496" lon="-7.47069">
        <ele>318.4049</ele>
        <time>2021-07-10T08:46:34Z</time>
      </trkpt>
      <trkpt lat="39.19474" lon="-7.47267">
        <ele>311.3489</ele>
        <time>2021-07-10T08:46:45Z</time>
      </trkpt>
      <trkpt lat="39.19445" lon="-7.47472">
        <ele>314.3155</ele>
        <time>2021-07-10T08:46:56Z</time>
      </trkpt>
      <trkpt lat="39.19442" lon="-7.47666">
        <ele>318.0904</ele>
        <time>2021-07-10T08:47:07Z</time>
      </trkpt>
      <trkpt lat="39.19429" lon="-7.47849">
        <ele>316.646</ele>
        <time>2021-07-10T08:47:18Z</time>
      </trkpt>
      <trkpt lat="39.19429" lon="-7.48027">
        <ele>312.6938</ele>
        <time>2021-07-10T08:47:29Z</time>
      </trkpt>
      <trkpt lat="39.19353" lon="-7.48192">
        <ele>317.9055</ele>
        <time>2021-07-10T08:47:40Z</time>
      </trkpt>
      <trkpt lat="39.19285" lon="-7.48366">
        <ele>323.907</ele>
        <time>2021-07-10T08:47:51Z</time>
      </trkpt>
      <trkpt lat="39.19313" lon="-7.48663">
        <ele>319.6932</ele>
        <time>2021-07-10T08:48:02Z</time>
      </trkpt>
      <trkpt lat="39.1934" lon="-7.48965">
        <ele>324.9983</ele>
        <time>2021-07-10T08:48:13Z</time>
      </trkpt>
      <trkpt lat="39.19371" lon="-7.49193">
        <ele>325.872</ele>
        <time>2021-07-10T08:48:24Z</time>
      </trkpt>
      <trkpt lat="39.194" lon="-7.49405">
        <ele>325.0175</ele>
        <time>2021-07-10T08:48:35Z</time>
      </trkpt>
      <trkpt lat="39.19404" lon="-7.4958">
        <ele>322.3365</ele>
        <time>2021-07-10T08:48:46Z</time>
      </trkpt>
      <trkpt lat="39.19342" lon="-7.49733">
        <ele>324.6038</ele>
        <time>2021-07-10T08:48:57Z</time>
      </trkpt>
      <trkpt lat="39.19253" lon="-7.49881">
        <ele>326.5433</ele>
        <time>2021-07-10T08:49:08Z</time>
      </trkpt>
      <trkpt lat="39.1916" lon="-7.50029">
        <ele>326.9883</ele>
        <time>2021-07-10T08:49:19Z</time>
      </trkpt>
      <trkpt lat="39.19067" lon="-7.50168">
        <ele>327.2398</ele>
        <time>2021-07-10T08:49:30Z</time>
      </trkpt>
      <trkpt lat="39.18989" lon="-7.50325">
        <ele>331.1651</ele>
        <time>2021-07-10T08:49:41Z</time>
      </trkpt>
      <trkpt lat="39.18906" lon="-7.505">
        <ele>333.4286</ele>
        <time>2021-07-10T08:49:52Z</time>
      </trkpt>
      <trkpt lat="39.18818" lon="-7.50683">
        <ele>339.3557</ele>
        <time>2021-07-10T08:50:03Z</time>
      </trkpt>
      <trkpt lat="39.18716" lon="-7.50828">
        <ele>332.4616</ele>
        <time>2021-07-10T08:50:14Z</time>
      </trkpt>
      <trkpt lat="39.18625" lon="-7.5097">
        <ele>325.0071</ele>
        <time>2021-07-10T08:50:25Z</time>
      </trkpt>
      <trkpt lat="39.18561" lon="-7.512">
        <ele>322.5427</ele>
        <time>2021-07-10T08:50:36Z</time>
      </trkpt>
      <trkpt lat="39.18481" lon="-7.51388">
        <ele>326.0351</ele>
        <time>2021-07-10T08:50:47Z</time>
      </trkpt>
      <trkpt lat="39.18379" lon="-7.51564">
        <ele>323.192</ele>
        <time>2021-07-10T08:50:58Z</time>
      </trkpt>
      <trkpt lat="39.1834" lon="-7.51821">
        <ele>331.7218</ele>
        <time>2021-07-10T08:51:09Z</time>
      </trkpt>
      <trkpt lat="39.18262" lon="-7.52047">
        <ele>333.7074</ele>
        <time>2021-07-10T08:51:20Z</time>
      </trkpt>
      <trkpt lat="39.18177" lon="-7.52272">
        <ele>334.9526</ele>
        <time>2021-07-10T08:51:31Z</time>
      </trkpt>
      <trkpt lat="39.18154" lon="-7.52513">
        <ele>336.9133</ele>
        <time>2021-07-10T08:51:42Z</time>
      </trkpt>
      <trkpt lat="39.18222" lon="-7.5274">
        <ele>339.5956</ele>
        <time>2021-07-10T08:51:53Z</time>
      </trkpt>
      <trkpt lat="39.1825" lon="-7.52833">
        <ele>340.9716</ele>
        <time>2021-07-10T08:52:04Z</time>
      </trkpt>
      <trkpt lat="39.18248" lon="-7.52834">
        <ele>339.456</ele>
        <time>2021-07-10T08:53:04Z</time>
      </trkpt>
      <trkpt lat="39.18249" lon="-7.52834">
        <ele>338.8571</ele>
        <time>2021-07-10T08:54:04Z</time>
      </trkpt>
      <trkpt lat="39.18251" lon="-7.52834">
        <ele>338.8409</ele>
        <time>2021-07-10T08:55:04Z</time>
      </trkpt>
      <trkpt lat="39.18248" lon="-7.52832">
        <ele>339.5579</ele>
        <time>2021-07-10T08:56:04Z</time>
      </trkpt>
      <trkpt lat="39.1825" lon="-7.52832">
        <ele>340.8097</ele>
        <time>2021-07-10T08:57:04Z</time>
      </trkpt>
      <trkpt lat="39.18248" lon="-7.52832">
        <ele>341.8243</ele>
        <time>2021-07-10T08:58:04Z</time>
      </trkpt>
      <trkpt lat="39.18248" lon="-7.52832">
        <ele>341.8243</ele>
        <time>2021-07-10T08:59:04Z</time>
      </trkpt>
      <trkpt lat="39.18248" lon="-7.52832">
        <ele>341.8243</ele>
        <time>2021-07-10T09:00:04Z</time>
      </trkpt>
      <trkpt lat="39.18251" lon="-7.52843">
        <ele>342.5338</ele>
        <time>2021-07-10T09:00:34Z</time>
      </trkpt>
      <trkpt lat="39.18315" lon="-7.53006">
        <ele>341.7429</ele>
        <time>2021-07-10T09:00:45Z</time>
      </trkpt>
      <trkpt lat="39.18412" lon="-7.53232">
        <ele>332.7205</ele>
        <time>2021-07-10T09:00:56Z</time>
      </trkpt>
      <trkpt lat="39.1852" lon="-7.53487">
        <ele>326.9126</ele>
        <time>2021-07-10T09:01:07Z</time>
      </trkpt>
      <trkpt lat="39.18635" lon="-7.5369">
        <ele>322.4161</ele>
        <time>2021-07-10T09:01:18Z</time>
      </trkpt>
      <trkpt lat="39.18789" lon="-7.53935">
        <ele>321.4593</ele>
        <time>2021-07-10T09:01:29Z</time>
      </trkpt>
      <trkpt lat="39.18902" lon="-7.54149">
        <ele>326.9162</ele>
        <time>2021-07-10T09:01:40Z</time>
      </trkpt>
      <trkpt lat="39.18962" lon="-7.54433">
        <ele>330.7995</ele>
        <time>2021-07-10T09:01:51Z</time>
      </trkpt>
      <trkpt lat="39.19017" lon="-7.54699">
        <ele>326.9762</ele>
        <time>2021-07-10T09:02:02Z</time>
      </trkpt>
      <trkpt lat="39.1905" lon="-7.54892">
        <ele>308.6339</ele>
        <time>2021-07-10T09:02:13Z</time>
      </trkpt>
      <trkpt lat="39.1898" lon="-7.5508">
        <ele>299.2191</ele>
        <time>2021-07-10T09:02:24Z</time>
      </trkpt>
      <trkpt lat="39.1894" lon="-7.55382">
        <ele>266.7548</ele>
        <time>2021-07-10T09:02:35Z</time>
      </trkpt>
      <trkpt lat="39.18897" lon="-7.55636">
        <ele>294.8958</ele>
        <time>2021-07-10T09:02:46Z</time>
      </trkpt>
      <trkpt lat="39.18906" lon="-7.55865">
        <ele>310.386</ele>
        <time>2021-07-10T09:02:57Z</time>
      </trkpt>
      <trkpt lat="39.1895" lon="-7.56135">
        <ele>314.8227</ele>
        <time>2021-07-10T09:03:08Z</time>
      </trkpt>
      <trkpt lat="39.18981" lon="-7.56378">
        <ele>310.6099</ele>
        <time>2021-07-10T09:03:19Z</time>
      </trkpt>
      <trkpt lat="39.19036" lon="-7.56689">
        <ele>308.6816</ele>
        <time>2021-07-10T09:03:30Z</time>
      </trkpt>
      <trkpt lat="39.19098" lon="-7.56968">
        <ele>309.0508</ele>
        <time>2021-07-10T09:03:41Z</time>
      </trkpt>
      <trkpt lat="39.19182" lon="-7.57223">
        <ele>314.7316</ele>
        <time>2021-07-10T09:03:52Z</time>
      </trkpt>
      <trkpt lat="39.19265" lon="-7.57474">
        <ele>323.9513</ele>
        <time>2021-07-10T09:04:03Z</time>
      </trkpt>
      <trkpt lat="39.1932" lon="-7.57724">
        <ele>332.9114</ele>
        <time>2021-07-10T09:04:14Z</time>
      </trkpt>
      <trkpt lat="39.19357" lon="-7.57936">
        <ele>327.2977</ele>
        <time>2021-07-10T09:04:25Z</time>
      </trkpt>
      <trkpt lat="39.19484" lon="-7.5819">
        <ele>328.0938</ele>
        <time>2021-07-10T09:04:36Z</time>
      </trkpt>
      <trkpt lat="39.19618" lon="-7.58379">
        <ele>329.5723</ele>
        <time>2021-07-10T09:04:47Z</time>
      </trkpt>
      <trkpt lat="39.19761" lon="-7.58559">
        <ele>328.5653</ele>
        <time>2021-07-10T09:04:58Z</time>
      </trkpt>
      <trkpt lat="39.19851" lon="-7.58803">
        <ele>322.6857</ele>
        <time>2021-07-10T09:05:09Z</time>
      </trkpt>
      <trkpt lat="39.19935" lon="-7.59028">
        <ele>318.5795</ele>
        <time>2021-07-10T09:05:20Z</time>
      </trkpt>
      <trkpt lat="39.20029" lon="-7.5922">
        <ele>307.9219</ele>
        <time>2021-07-10T09:05:31Z</time>
      </trkpt>
      <trkpt lat="39.20212" lon="-7.59384">
        <ele>304.2103</ele>
        <time>2021-07-10T09:05:42Z</time>
      </trkpt>
      <trkpt lat="39.20378" lon="-7.59569">
        <ele>302.6385</ele>
        <time>2021-07-10T09:05:53Z</time>
      </trkpt>
      <trkpt lat="39.20535" lon="-7.59781">
        <ele>296.3849</ele>
        <time>2021-07-10T09:06:04Z</time>
      </trkpt>
      <trkpt lat="39.2073" lon="-7.59933">
        <ele>298.5095</ele>
        <time>2021-07-10T09:06:15Z</time>
      </trkpt>
      <trkpt lat="39.20921" lon="-7.60072">
        <ele>305.1737</ele>
        <time>2021-07-10T09:06:26Z</time>
      </trkpt>
      <trkpt lat="39.21061" lon="-7.60275">
        <ele>298.7406</ele>
        <time>2021-07-10T09:06:37Z</time>
      </trkpt>
      <trkpt lat="39.21181" lon="-7.6051">
        <ele>293.8496</ele>
        <time>2021-07-10T09:06:48Z</time>
      </trkpt>
      <trkpt lat="39.21276" lon="-7.60818">
        <ele>290.1819</ele>
        <time>2021-07-10T09:06:59Z</time>
      </trkpt>
      <trkpt lat="39.21347" lon="-7.61034">
        <ele>280.2952</ele>
        <time>2021-07-10T09:07:10Z</time>
      </trkpt>
      <trkpt lat="39.21313" lon="-7.61189">
        <ele>274.7272</ele>
        <time>2021-07-10T09:07:21Z</time>
      </trkpt>
      <trkpt lat="39.21184" lon="-7.61492">
        <ele>277.9113</ele>
        <time>2021-07-10T09:07:32Z</time>
      </trkpt>
      <trkpt lat="39.21068" lon="-7.61766">
        <ele>289.7241</ele>
        <time>2021-07-10T09:07:43Z</time>
      </trkpt>
      <trkpt lat="39.20998" lon="-7.62029">
        <ele>296.5032</ele>
        <time>2021-07-10T09:07:54Z</time>
      </trkpt>
      <trkpt lat="39.20928" lon="-7.62379">
        <ele>299.2361</ele>
        <time>2021-07-10T09:08:05Z</time>
      </trkpt>
      <trkpt lat="39.20876" lon="-7.62645">
        <ele>299.383</ele>
        <time>2021-07-10T09:08:16Z</time>
      </trkpt>
      <trkpt lat="39.20791" lon="-7.62912">
        <ele>297.576</ele>
        <time>2021-07-10T09:08:27Z</time>
      </trkpt>
      <trkpt lat="39.20796" lon="-7.63187">
        <ele>291.0045</ele>
        <time>2021-07-10T09:08:38Z</time>
      </trkpt>
      <trkpt lat="39.2081" lon="-7.63518">
        <ele>292.0921</ele>
        <time>2021-07-10T09:08:49Z</time>
      </trkpt>
      <trkpt lat="39.2075" lon="-7.63855">
        <ele>296.1033</ele>
        <time>2021-07-10T09:09:00Z</time>
      </trkpt>
      <trkpt lat="39.20626" lon="-7.64186">
        <ele>300.965</ele>
        <time>2021-07-10T09:09:11Z</time>
      </trkpt>
      <trkpt lat="39.20532" lon="-7.64438">
        <ele>302.6113</ele>
        <time>2021-07-10T09:09:22Z</time>
      </trkpt>
      <trkpt lat="39.20451" lon="-7.64656">
        <ele>297.2164</ele>
        <time>2021-07-10T09:09:33Z</time>
      </trkpt>
      <trkpt lat="39.20328" lon="-7.64887">
        <ele>287.7409</ele>
        <time>2021-07-10T09:09:44Z</time>
      </trkpt>
      <trkpt lat="39.20222" lon="-7.65126">
        <ele>277.3123</ele>
        <time>2021-07-10T09:09:55Z</time>
      </trkpt>
      <trkpt lat="39.20121" lon="-7.65374">
        <ele>270.9766</ele>
        <time>2021-07-10T09:10:06Z</time>
      </trkpt>
      <trkpt lat="39.20047" lon="-7.65594">
        <ele>265.3249</ele>
        <time>2021-07-10T09:10:17Z</time>
      </trkpt>
      <trkpt lat="39.20028" lon="-7.65714">
        <ele>273.7214</ele>
        <time>2021-07-10T09:10:28Z</time>
      </trkpt>
      <trkpt lat="39.20035" lon="-7.65787">
        <ele>293.8306</ele>
        <time>2021-07-10T09:10:39Z</time>
      </trkpt>
      <trkpt lat="39.20031" lon="-7.65784">
        <ele>314.0489</ele>
        <time>2021-07-10T09:10:50Z</time>
      </trkpt>
      <trkpt lat="39.20066" lon="-7.65792">
        <ele>315.0226</ele>
        <time>2021-07-10T09:11:01Z</time>
      </trkpt>
      <trkpt lat="39.2012" lon="-7.65801">
        <ele>321.6849</ele>
        <time>2021-07-10T09:11:12Z</time>
      </trkpt>
      <trkpt lat="39.2009" lon="-7.65799">
        <ele>303.4994</ele>
        <time>2021-07-10T09:11:23Z</time>
      </trkpt>
      <trkpt lat="39.20023" lon="-7.658">
        <ele>289.0113</ele>
        <time>2021-07-10T09:11:34Z</time>
      </trkpt>
      <trkpt lat="39.19958" lon="-7.65805">
        <ele>281.9964</ele>
        <time>2021-07-10T09:11:45Z</time>
      </trkpt>
      <trkpt lat="39.19926" lon="-7.6582">
        <ele>275.8875</ele>
        <time>2021-07-10T09:11:56Z</time>
      </trkpt>
      <trkpt lat="39.19921" lon="-7.65822">
        <ele>278.4321</ele>
        <time>2021-07-10T09:12:07Z</time>
      </trkpt>
      <trkpt lat="39.19917" lon="-7.65823">
        <ele>278.2133</ele>
        <time>2021-07-10T09:12:45Z</time>
      </trkpt>
      <trkpt lat="39.1992" lon="-7.6582">
        <ele>277.2988</ele>
        <time>2021-07-10T09:13:26Z</time>
      </trkpt>
      <trkpt lat="39.19915" lon="-7.6582">
        <ele>277.7988</ele>
        <time>2021-07-10T09:13:41Z</time>
      </trkpt>
      <trkpt lat="39.19873" lon="-7.65861">
        <ele>273.3932</ele>
        <time>2021-07-10T09:13:52Z</time>
      </trkpt>
      <trkpt lat="39.1988" lon="-7.65945">
        <ele>270.6904</ele>
        <time>2021-07-10T09:14:03Z</time>
      </trkpt>
      <trkpt lat="39.19841" lon="-7.65989">
        <ele>269.4759</ele>
        <time>2021-07-10T09:14:14Z</time>
      </trkpt>
      <trkpt lat="39.19843" lon="-7.65928">
        <ele>271.6826</ele>
        <time>2021-07-10T09:14:25Z</time>
      </trkpt>
      <trkpt lat="39.19879" lon="-7.65842">
        <ele>278.3266</ele>
        <time>2021-07-10T09:14:36Z</time>
      </trkpt>
      <trkpt lat="39.19873" lon="-7.65813">
        <ele>278.592</ele>
        <time>2021-07-10T09:14:47Z</time>
      </trkpt>
      <trkpt lat="39.19873" lon="-7.65787">
        <ele>274.5329</ele>
        <time>2021-07-10T09:14:58Z</time>
      </trkpt>
      <trkpt lat="39.19877" lon="-7.65784">
        <ele>275.3645</ele>
        <time>2021-07-10T09:15:09Z</time>
      </trkpt>
      <trkpt lat="39.19875" lon="-7.65789">
        <ele>285.3183</ele>
        <time>2021-07-10T09:15:49Z</time>
      </trkpt>
      <trkpt lat="39.19878" lon="-7.65806">
        <ele>272.5689</ele>
        <time>2021-07-10T09:25:04Z</time>
      </trkpt>
      <trkpt lat="39.19882" lon="-7.658">
        <ele>272.7584</ele>
        <time>2021-07-10T09:25:15Z</time>
      </trkpt>
      <trkpt lat="39.19885" lon="-7.65803">
        <ele>276.1613</ele>
        <time>2021-07-10T09:25:34Z</time>
      </trkpt>
      <trkpt lat="39.19884" lon="-7.65798">
        <ele>276.7904</ele>
        <time>2021-07-10T09:25:45Z</time>
      </trkpt>
      <trkpt lat="39.19885" lon="-7.65797">
        <ele>273.4462</ele>
        <time>2021-07-10T09:26:45Z</time>
      </trkpt>
      <trkpt lat="39.19885" lon="-7.65795">
        <ele>273.5004</ele>
        <time>2021-07-10T09:27:45Z</time>
      </trkpt>
      <trkpt lat="39.19887" lon="-7.65797">
        <ele>270.5176</ele>
        <time>2021-07-10T09:28:45Z</time>
      </trkpt>
      <trkpt lat="39.19887" lon="-7.65797">
        <ele>270.5176</ele>
        <time>2021-07-10T09:29:45Z</time>
      </trkpt>
      <trkpt lat="39.19881" lon="-7.65799">
        <ele>270.2775</ele>
        <time>2021-07-10T09:30:38Z</time>
      </trkpt>
      <trkpt lat="39.19885" lon="-7.65799">
        <ele>272.1604</ele>
        <time>2021-07-10T09:31:12Z</time>
      </trkpt>
      <trkpt lat="39.19888" lon="-7.658">
        <ele>274.9353</ele>
        <time>2021-07-10T09:32:12Z</time>
      </trkpt>
      <trkpt lat="39.19889" lon="-7.65794">
        <ele>278.2753</ele>
        <time>2021-07-10T09:32:26Z</time>
      </trkpt>
      <trkpt lat="39.19886" lon="-7.65794">
        <ele>278.6696</ele>
        <time>2021-07-10T09:33:25Z</time>
      </trkpt>
      <trkpt lat="39.19884" lon="-7.65797">
        <ele>277.2081</ele>
        <time>2021-07-10T09:34:04Z</time>
      </trkpt>
      <trkpt lat="39.19882" lon="-7.65796">
        <ele>275.1708</ele>
        <time>2021-07-10T09:35:03Z</time>
      </trkpt>
      <trkpt lat="39.19881" lon="-7.65798">
        <ele>278.7147</ele>
        <time>2021-07-10T09:36:02Z</time>
      </trkpt>
      <trkpt lat="39.19885" lon="-7.65798">
        <ele>275.6927</ele>
        <time>2021-07-10T09:36:48Z</time>
      </trkpt>
      <trkpt lat="39.19882" lon="-7.65801">
        <ele>275.0594</ele>
        <time>2021-07-10T09:37:27Z</time>
      </trkpt>
      <trkpt lat="39.19882" lon="-7.65799">
        <ele>274.398</ele>
        <time>2021-07-10T09:38:26Z</time>
      </trkpt>
      <trkpt lat="39.19885" lon="-7.65795">
        <ele>270.7758</ele>
        <time>2021-07-10T09:39:07Z</time>
      </trkpt>
      <trkpt lat="39.19884" lon="-7.65797">
        <ele>269.7192</ele>
        <time>2021-07-10T09:40:05Z</time>
      </trkpt>
      <trkpt lat="39.19885" lon="-7.65791">
        <ele>269.0736</ele>
        <time>2021-07-10T09:40:52Z</time>
      </trkpt>
      <trkpt lat="39.19886" lon="-7.65797">
        <ele>269.8139</ele>
        <time>2021-07-10T09:41:12Z</time>
      </trkpt>
      <trkpt lat="39.19898" lon="-7.65808">
        <ele>269.8255</ele>
        <time>2021-07-10T09:41:23Z</time>
      </trkpt>
      <trkpt lat="39.19898" lon="-7.65813">
        <ele>269.7411</ele>
        <time>2021-07-10T09:41:34Z</time>
      </trkpt>
      <trkpt lat="39.19896" lon="-7.65808">
        <ele>269.2957</ele>
        <time>2021-07-10T09:41:51Z</time>
      </trkpt>
      <trkpt lat="39.19887" lon="-7.65796">
        <ele>268.7951</ele>
        <time>2021-07-10T09:42:02Z</time>
      </trkpt>
      <trkpt lat="39.19886" lon="-7.6579">
        <ele>269.519</ele>
        <time>2021-07-10T09:42:37Z</time>
      </trkpt>
      <trkpt lat="39.19884" lon="-7.65786">
        <ele>269.596</ele>
        <time>2021-07-10T09:42:56Z</time>
      </trkpt>
      <trkpt lat="39.19887" lon="-7.6579">
        <ele>268.474</ele>
        <time>2021-07-10T09:43:07Z</time>
      </trkpt>
      <trkpt lat="39.19884" lon="-7.65785">
        <ele>269.8998</ele>
        <time>2021-07-10T09:43:40Z</time>
      </trkpt>
      <trkpt lat="39.19881" lon="-7.65779">
        <ele>269.0233</ele>
        <time>2021-07-10T09:43:51Z</time>
      </trkpt>
      <trkpt lat="39.19881" lon="-7.65785">
        <ele>269.6427</ele>
        <time>2021-07-10T09:44:11Z</time>
      </trkpt>
      <trkpt lat="39.19877" lon="-7.65787">
        <ele>269.1292</ele>
        <time>2021-07-10T09:44:22Z</time>
      </trkpt>
      <trkpt lat="39.19877" lon="-7.65792">
        <ele>269.1249</ele>
        <time>2021-07-10T09:45:01Z</time>
      </trkpt>
      <trkpt lat="39.19876" lon="-7.65791">
        <ele>268.9445</ele>
        <time>2021-07-10T09:46:00Z</time>
      </trkpt>
      <trkpt lat="39.1988" lon="-7.65791">
        <ele>271.0147</ele>
        <time>2021-07-10T09:46:55Z</time>
      </trkpt>
      <trkpt lat="39.19921" lon="-7.65805">
        <ele>271.2704</ele>
        <time>2021-07-10T09:47:06Z</time>
      </trkpt>
      <trkpt lat="39.19927" lon="-7.65853">
        <ele>273.7685</ele>
        <time>2021-07-10T09:47:17Z</time>
      </trkpt>
      <trkpt lat="39.19953" lon="-7.65892">
        <ele>276.4638</ele>
        <time>2021-07-10T09:47:28Z</time>
      </trkpt>
      <trkpt lat="39.19984" lon="-7.65964">
        <ele>275.5621</ele>
        <time>2021-07-10T09:47:39Z</time>
      </trkpt>
      <trkpt lat="39.20006" lon="-7.66026">
        <ele>275.6363</ele>
        <time>2021-07-10T09:47:50Z</time>
      </trkpt>
      <trkpt lat="39.20008" lon="-7.66036">
        <ele>274.4394</ele>
        <time>2021-07-10T09:48:01Z</time>
      </trkpt>
      <trkpt lat="39.20038" lon="-7.66023">
        <ele>278.1644</ele>
        <time>2021-07-10T09:48:12Z</time>
      </trkpt>
      <trkpt lat="39.20061" lon="-7.66087">
        <ele>276.1572</ele>
        <time>2021-07-10T09:48:23Z</time>
      </trkpt>
      <trkpt lat="39.20121" lon="-7.66135">
        <ele>279.2977</ele>
        <time>2021-07-10T09:48:34Z</time>
      </trkpt>
      <trkpt lat="39.2019" lon="-7.66192">
        <ele>278.6432</ele>
        <time>2021-07-10T09:48:45Z</time>
      </trkpt>
      <trkpt lat="39.20292" lon="-7.66289">
        <ele>276.9422</ele>
        <time>2021-07-10T09:48:56Z</time>
      </trkpt>
      <trkpt lat="39.2041" lon="-7.66374">
        <ele>279.4942</ele>
        <time>2021-07-10T09:49:07Z</time>
      </trkpt>
      <trkpt lat="39.20594" lon="-7.66469">
        <ele>279.2256</ele>
        <time>2021-07-10T09:49:18Z</time>
      </trkpt>
      <trkpt lat="39.20806" lon="-7.66576">
        <ele>280.3188</ele>
        <time>2021-07-10T09:49:29Z</time>
      </trkpt>
      <trkpt lat="39.21027" lon="-7.66649">
        <ele>279.2717</ele>
        <time>2021-07-10T09:49:40Z</time>
      </trkpt>
      <trkpt lat="39.21246" lon="-7.66732">
        <ele>280.9055</ele>
        <time>2021-07-10T09:49:51Z</time>
      </trkpt>
      <trkpt lat="39.21449" lon="-7.6679">
        <ele>277.4778</ele>
        <time>2021-07-10T09:50:02Z</time>
      </trkpt>
      <trkpt lat="39.21664" lon="-7.66944">
        <ele>277.5679</ele>
        <time>2021-07-10T09:50:13Z</time>
      </trkpt>
      <trkpt lat="39.21891" lon="-7.67085">
        <ele>272.9358</ele>
        <time>2021-07-10T09:50:24Z</time>
      </trkpt>
      <trkpt lat="39.22115" lon="-7.67201">
        <ele>271.7545</ele>
        <time>2021-07-10T09:50:35Z</time>
      </trkpt>
      <trkpt lat="39.22269" lon="-7.6733">
        <ele>267.5082</ele>
        <time>2021-07-10T09:50:46Z</time>
      </trkpt>
      <trkpt lat="39.22415" lon="-7.67579">
        <ele>266.0191</ele>
        <time>2021-07-10T09:50:57Z</time>
      </trkpt>
      <trkpt lat="39.22558" lon="-7.678">
        <ele>258.6643</ele>
        <time>2021-07-10T09:51:08Z</time>
      </trkpt>
      <trkpt lat="39.22733" lon="-7.68004">
        <ele>242.5833</ele>
        <time>2021-07-10T09:51:19Z</time>
      </trkpt>
      <trkpt lat="39.22922" lon="-7.68224">
        <ele>226.5149</ele>
        <time>2021-07-10T09:51:30Z</time>
      </trkpt>
      <trkpt lat="39.23105" lon="-7.68436">
        <ele>228.6188</ele>
        <time>2021-07-10T09:51:41Z</time>
      </trkpt>
      <trkpt lat="39.23275" lon="-7.68596">
        <ele>239.104</ele>
        <time>2021-07-10T09:51:52Z</time>
      </trkpt>
      <trkpt lat="39.23434" lon="-7.68797">
        <ele>231.2007</ele>
        <time>2021-07-10T09:52:03Z</time>
      </trkpt>
      <trkpt lat="39.23562" lon="-7.68941">
        <ele>237.2492</ele>
        <time>2021-07-10T09:52:14Z</time>
      </trkpt>
      <trkpt lat="39.236" lon="-7.69138">
        <ele>233.3339</ele>
        <time>2021-07-10T09:52:25Z</time>
      </trkpt>
      <trkpt lat="39.23679" lon="-7.69314">
        <ele>239.3995</ele>
        <time>2021-07-10T09:52:36Z</time>
      </trkpt>
      <trkpt lat="39.23746" lon="-7.69549">
        <ele>237.4863</ele>
        <time>2021-07-10T09:52:47Z</time>
      </trkpt>
      <trkpt lat="39.23843" lon="-7.6974">
        <ele>225.2605</ele>
        <time>2021-07-10T09:52:58Z</time>
      </trkpt>
      <trkpt lat="39.23942" lon="-7.69943">
        <ele>228.1323</ele>
        <time>2021-07-10T09:53:09Z</time>
      </trkpt>
      <trkpt lat="39.24066" lon="-7.70115">
        <ele>225.5204</ele>
        <time>2021-07-10T09:53:20Z</time>
      </trkpt>
      <trkpt lat="39.24143" lon="-7.70319">
        <ele>224.1094</ele>
        <time>2021-07-10T09:53:31Z</time>
      </trkpt>
      <trkpt lat="39.24216" lon="-7.7048">
        <ele>224.498</ele>
        <time>2021-07-10T09:53:42Z</time>
      </trkpt>
      <trkpt lat="39.24169" lon="-7.70638">
        <ele>225.9141</ele>
        <time>2021-07-10T09:53:53Z</time>
      </trkpt>
      <trkpt lat="39.24174" lon="-7.70845">
        <ele>225.0318</ele>
        <time>2021-07-10T09:54:04Z</time>
      </trkpt>
      <trkpt lat="39.24126" lon="-7.71067">
        <ele>220.9212</ele>
        <time>2021-07-10T09:54:15Z</time>
      </trkpt>
      <trkpt lat="39.23998" lon="-7.71298">
        <ele>216.814</ele>
        <time>2021-07-10T09:54:26Z</time>
      </trkpt>
      <trkpt lat="39.23881" lon="-7.71513">
        <ele>218.1677</ele>
        <time>2021-07-10T09:54:37Z</time>
      </trkpt>
      <trkpt lat="39.23843" lon="-7.71759">
        <ele>213.3781</ele>
        <time>2021-07-10T09:54:48Z</time>
      </trkpt>
      <trkpt lat="39.23834" lon="-7.72012">
        <ele>216.1592</ele>
        <time>2021-07-10T09:54:59Z</time>
      </trkpt>
      <trkpt lat="39.23831" lon="-7.72259">
        <ele>212.0896</ele>
        <time>2021-07-10T09:55:10Z</time>
      </trkpt>
      <trkpt lat="39.23801" lon="-7.72427">
        <ele>209.955</ele>
        <time>2021-07-10T09:55:21Z</time>
      </trkpt>
      <trkpt lat="39.23694" lon="-7.72539">
        <ele>208.6894</ele>
        <time>2021-07-10T09:55:32Z</time>
      </trkpt>
      <trkpt lat="39.23568" lon="-7.72648">
        <ele>201.6787</ele>
        <time>2021-07-10T09:55:43Z</time>
      </trkpt>
      <trkpt lat="39.23374" lon="-7.72722">
        <ele>195.7794</ele>
        <time>2021-07-10T09:55:54Z</time>
      </trkpt>
      <trkpt lat="39.2321" lon="-7.72825">
        <ele>196.7891</ele>
        <time>2021-07-10T09:56:05Z</time>
      </trkpt>
      <trkpt lat="39.23122" lon="-7.72994">
        <ele>192.2176</ele>
        <time>2021-07-10T09:56:16Z</time>
      </trkpt>
      <trkpt lat="39.2312" lon="-7.73196">
        <ele>188.7632</ele>
        <time>2021-07-10T09:56:27Z</time>
      </trkpt>
      <trkpt lat="39.2311" lon="-7.73427">
        <ele>187.9461</ele>
        <time>2021-07-10T09:56:38Z</time>
      </trkpt>
      <trkpt lat="39.23061" lon="-7.73664">
        <ele>187.5459</ele>
        <time>2021-07-10T09:56:49Z</time>
      </trkpt>
      <trkpt lat="39.23018" lon="-7.73866">
        <ele>192.1903</ele>
        <time>2021-07-10T09:57:00Z</time>
      </trkpt>
      <trkpt lat="39.22901" lon="-7.74036">
        <ele>193.3944</ele>
        <time>2021-07-10T09:57:11Z</time>
      </trkpt>
      <trkpt lat="39.22763" lon="-7.74174">
        <ele>189.6519</ele>
        <time>2021-07-10T09:57:22Z</time>
      </trkpt>
      <trkpt lat="39.22732" lon="-7.74403">
        <ele>191.5392</ele>
        <time>2021-07-10T09:57:33Z</time>
      </trkpt>
      <trkpt lat="39.22732" lon="-7.74632">
        <ele>193.056</ele>
        <time>2021-07-10T09:57:44Z</time>
      </trkpt>
      <trkpt lat="39.22625" lon="-7.74798">
        <ele>191.4802</ele>
        <time>2021-07-10T09:57:55Z</time>
      </trkpt>
      <trkpt lat="39.22476" lon="-7.74957">
        <ele>186.1366</ele>
        <time>2021-07-10T09:58:06Z</time>
      </trkpt>
      <trkpt lat="39.22322" lon="-7.75056">
        <ele>180.0725</ele>
        <time>2021-07-10T09:58:17Z</time>
      </trkpt>
      <trkpt lat="39.22141" lon="-7.75141">
        <ele>168.1056</ele>
        <time>2021-07-10T09:58:28Z</time>
      </trkpt>
      <trkpt lat="39.22054" lon="-7.75252">
        <ele>159.9705</ele>
        <time>2021-07-10T09:58:39Z</time>
      </trkpt>
      <trkpt lat="39.21985" lon="-7.75324">
        <ele>165.5429</ele>
        <time>2021-07-10T09:58:50Z</time>
      </trkpt>
      <trkpt lat="39.21857" lon="-7.75266">
        <ele>176.2416</ele>
        <time>2021-07-10T09:59:01Z</time>
      </trkpt>
      <trkpt lat="39.21773" lon="-7.75349">
        <ele>178.8761</ele>
        <time>2021-07-10T09:59:12Z</time>
      </trkpt>
      <trkpt lat="39.21724" lon="-7.7567">
        <ele>182.8638</ele>
        <time>2021-07-10T09:59:23Z</time>
      </trkpt>
      <trkpt lat="39.21682" lon="-7.75934">
        <ele>185.4692</ele>
        <time>2021-07-10T09:59:34Z</time>
      </trkpt>
      <trkpt lat="39.21689" lon="-7.76193">
        <ele>186.7091</ele>
        <time>2021-07-10T09:59:46Z</time>
      </trkpt>
      <trkpt lat="39.21648" lon="-7.76443">
        <ele>192.2779</ele>
        <time>2021-07-10T09:59:57Z</time>
      </trkpt>
      <trkpt lat="39.21583" lon="-7.76617">
        <ele>196.8578</ele>
        <time>2021-07-10T10:00:08Z</time>
      </trkpt>
      <trkpt lat="39.21468" lon="-7.76747">
        <ele>190.3183</ele>
        <time>2021-07-10T10:00:19Z</time>
      </trkpt>
      <trkpt lat="39.21359" lon="-7.76805">
        <ele>178.6365</ele>
        <time>2021-07-10T10:00:30Z</time>
      </trkpt>
      <trkpt lat="39.21339" lon="-7.76871">
        <ele>173.9968</ele>
        <time>2021-07-10T10:00:41Z</time>
      </trkpt>
      <trkpt lat="39.21439" lon="-7.77106">
        <ele>172.558</ele>
        <time>2021-07-10T10:00:52Z</time>
      </trkpt>
      <trkpt lat="39.2158" lon="-7.7743">
        <ele>172.8132</ele>
        <time>2021-07-10T10:01:03Z</time>
      </trkpt>
      <trkpt lat="39.21684" lon="-7.77727">
        <ele>176.0019</ele>
        <time>2021-07-10T10:01:14Z</time>
      </trkpt>
      <trkpt lat="39.21723" lon="-7.78062">
        <ele>175.0104</ele>
        <time>2021-07-10T10:01:25Z</time>
      </trkpt>
      <trkpt lat="39.21713" lon="-7.78361">
        <ele>164.7444</ele>
        <time>2021-07-10T10:01:36Z</time>
      </trkpt>
      <trkpt lat="39.21696" lon="-7.78684">
        <ele>158.5016</ele>
        <time>2021-07-10T10:01:47Z</time>
      </trkpt>
      <trkpt lat="39.2168" lon="-7.7901">
        <ele>162.4011</ele>
        <time>2021-07-10T10:01:58Z</time>
      </trkpt>
      <trkpt lat="39.21676" lon="-7.79304">
        <ele>165.379</ele>
        <time>2021-07-10T10:02:09Z</time>
      </trkpt>
      <trkpt lat="39.2168" lon="-7.79468">
        <ele>167.9746</ele>
        <time>2021-07-10T10:02:20Z</time>
      </trkpt>
      <trkpt lat="39.21537" lon="-7.79493">
        <ele>172.2336</ele>
        <time>2021-07-10T10:02:31Z</time>
      </trkpt>
      <trkpt lat="39.21315" lon="-7.79529">
        <ele>168.9236</ele>
        <time>2021-07-10T10:02:42Z</time>
      </trkpt>
      <trkpt lat="39.2107" lon="-7.79572">
        <ele>165.8645</ele>
        <time>2021-07-10T10:02:53Z</time>
      </trkpt>
      <trkpt lat="39.20851" lon="-7.79627">
        <ele>165.3115</ele>
        <time>2021-07-10T10:03:04Z</time>
      </trkpt>
      <trkpt lat="39.20703" lon="-7.79736">
        <ele>166.3268</ele>
        <time>2021-07-10T10:03:15Z</time>
      </trkpt>
      <trkpt lat="39.20652" lon="-7.79968">
        <ele>167.2504</ele>
        <time>2021-07-10T10:03:26Z</time>
      </trkpt>
      <trkpt lat="39.20526" lon="-7.80188">
        <ele>173.906</ele>
        <time>2021-07-10T10:03:37Z</time>
      </trkpt>
      <trkpt lat="39.20321" lon="-7.80314">
        <ele>179.0562</ele>
        <time>2021-07-10T10:03:48Z</time>
      </trkpt>
      <trkpt lat="39.20121" lon="-7.80392">
        <ele>175.1544</ele>
        <time>2021-07-10T10:03:59Z</time>
      </trkpt>
      <trkpt lat="39.19946" lon="-7.80386">
        <ele>180.542</ele>
        <time>2021-07-10T10:04:10Z</time>
      </trkpt>
      <trkpt lat="39.1981" lon="-7.80508">
        <ele>171.7612</ele>
        <time>2021-07-10T10:04:21Z</time>
      </trkpt>
      <trkpt lat="39.19614" lon="-7.8062">
        <ele>168.3661</ele>
        <time>2021-07-10T10:04:32Z</time>
      </trkpt>
      <trkpt lat="39.1949" lon="-7.80657">
        <ele>164.3916</ele>
        <time>2021-07-10T10:04:43Z</time>
      </trkpt>
      <trkpt lat="39.19445" lon="-7.80703">
        <ele>152.555</ele>
        <time>2021-07-10T10:04:54Z</time>
      </trkpt>
      <trkpt lat="39.19379" lon="-7.80781">
        <ele>145.9899</ele>
        <time>2021-07-10T10:05:05Z</time>
      </trkpt>
      <trkpt lat="39.19329" lon="-7.80867">
        <ele>140.8418</ele>
        <time>2021-07-10T10:05:16Z</time>
      </trkpt>
      <trkpt lat="39.19325" lon="-7.81007">
        <ele>142.1417</ele>
        <time>2021-07-10T10:05:27Z</time>
      </trkpt>
      <trkpt lat="39.19341" lon="-7.81165">
        <ele>143.3388</ele>
        <time>2021-07-10T10:05:38Z</time>
      </trkpt>
      <trkpt lat="39.19358" lon="-7.81317">
        <ele>147.1856</ele>
        <time>2021-07-10T10:05:49Z</time>
      </trkpt>
      <trkpt lat="39.1945" lon="-7.81404">
        <ele>155.1446</ele>
        <time>2021-07-10T10:06:00Z</time>
      </trkpt>
      <trkpt lat="39.19539" lon="-7.81486">
        <ele>154.676</ele>
        <time>2021-07-10T10:06:11Z</time>
      </trkpt>
      <trkpt lat="39.196" lon="-7.81663">
        <ele>167.2279</ele>
        <time>2021-07-10T10:06:22Z</time>
      </trkpt>
      <trkpt lat="39.19647" lon="-7.81824">
        <ele>178.9854</ele>
        <time>2021-07-10T10:06:33Z</time>
      </trkpt>
      <trkpt lat="39.19662" lon="-7.81995">
        <ele>188.0732</ele>
        <time>2021-07-10T10:06:44Z</time>
      </trkpt>
      <trkpt lat="39.1967" lon="-7.82154">
        <ele>191.131</ele>
        <time>2021-07-10T10:06:55Z</time>
      </trkpt>
      <trkpt lat="39.19632" lon="-7.82275">
        <ele>200.8929</ele>
        <time>2021-07-10T10:07:06Z</time>
      </trkpt>
      <trkpt lat="39.19575" lon="-7.82414">
        <ele>202.9722</ele>
        <time>2021-07-10T10:07:17Z</time>
      </trkpt>
      <trkpt lat="39.19533" lon="-7.82557">
        <ele>205.868</ele>
        <time>2021-07-10T10:07:28Z</time>
      </trkpt>
      <trkpt lat="39.19482" lon="-7.82703">
        <ele>206.105</ele>
        <time>2021-07-10T10:07:39Z</time>
      </trkpt>
      <trkpt lat="39.19412" lon="-7.82792">
        <ele>199.1139</ele>
        <time>2021-07-10T10:07:50Z</time>
      </trkpt>
      <trkpt lat="39.19326" lon="-7.82872">
        <ele>194.9798</ele>
        <time>2021-07-10T10:08:01Z</time>
      </trkpt>
      <trkpt lat="39.19266" lon="-7.8299">
        <ele>205.3712</ele>
        <time>2021-07-10T10:08:12Z</time>
      </trkpt>
      <trkpt lat="39.19175" lon="-7.83087">
        <ele>205.8733</ele>
        <time>2021-07-10T10:08:23Z</time>
      </trkpt>
      <trkpt lat="39.19142" lon="-7.83104">
        <ele>167.145</ele>
        <time>2021-07-10T10:08:34Z</time>
      </trkpt>
      <trkpt lat="39.19127" lon="-7.83118">
        <ele>187.6115</ele>
        <time>2021-07-10T10:08:45Z</time>
      </trkpt>
      <trkpt lat="39.19074" lon="-7.83125">
        <ele>206.4159</ele>
        <time>2021-07-10T10:08:56Z</time>
      </trkpt>
      <trkpt lat="39.19077" lon="-7.83123">
        <ele>208.0384</ele>
        <time>2021-07-10T10:09:12Z</time>
      </trkpt>
      <trkpt lat="39.19126" lon="-7.83123">
        <ele>207.8608</ele>
        <time>2021-07-10T10:09:23Z</time>
      </trkpt>
      <trkpt lat="39.19173" lon="-7.83092">
        <ele>204.1083</ele>
        <time>2021-07-10T10:09:35Z</time>
      </trkpt>
      <trkpt lat="39.19176" lon="-7.83103">
        <ele>204.2668</ele>
        <time>2021-07-10T10:09:46Z</time>
      </trkpt>
      <trkpt lat="39.19145" lon="-7.83136">
        <ele>208.9088</ele>
        <time>2021-07-10T10:09:57Z</time>
      </trkpt>
      <trkpt lat="39.19112" lon="-7.83215">
        <ele>210.3632</ele>
        <time>2021-07-10T10:10:08Z</time>
      </trkpt>
      <trkpt lat="39.19086" lon="-7.83263">
        <ele>207.6936</ele>
        <time>2021-07-10T10:10:19Z</time>
      </trkpt>
      <trkpt lat="39.19082" lon="-7.83267">
        <ele>206.0196</ele>
        <time>2021-07-10T10:11:10Z</time>
      </trkpt>
      <trkpt lat="39.19077" lon="-7.83265">
        <ele>205.3115</ele>
        <time>2021-07-10T10:11:24Z</time>
      </trkpt>
      <trkpt lat="39.19024" lon="-7.83255">
        <ele>199.8363</ele>
        <time>2021-07-10T10:11:35Z</time>
      </trkpt>
      <trkpt lat="39.18963" lon="-7.83243">
        <ele>191.8274</ele>
        <time>2021-07-10T10:11:46Z</time>
      </trkpt>
      <trkpt lat="39.18902" lon="-7.83236">
        <ele>194.3455</ele>
        <time>2021-07-10T10:11:57Z</time>
      </trkpt>
      <trkpt lat="39.18822" lon="-7.83282">
        <ele>186.4089</ele>
        <time>2021-07-10T10:12:08Z</time>
      </trkpt>
      <trkpt lat="39.18732" lon="-7.83326">
        <ele>164.3354</ele>
        <time>2021-07-10T10:12:19Z</time>
      </trkpt>
      <trkpt lat="39.18632" lon="-7.83381">
        <ele>135.8963</ele>
        <time>2021-07-10T10:12:30Z</time>
      </trkpt>
      <trkpt lat="39.18543" lon="-7.83423">
        <ele>94.6795</ele>
        <time>2021-07-10T10:12:41Z</time>
      </trkpt>
      <trkpt lat="39.18483" lon="-7.83459">
        <ele>106.5187</ele>
        <time>2021-07-10T10:12:52Z</time>
      </trkpt>
      <trkpt lat="39.1842" lon="-7.83441">
        <ele>158.7638</ele>
        <time>2021-07-10T10:13:03Z</time>
      </trkpt>
      <trkpt lat="39.18371" lon="-7.8342">
        <ele>178.5485</ele>
        <time>2021-07-10T10:13:14Z</time>
      </trkpt>
      <trkpt lat="39.18339" lon="-7.83454">
        <ele>174.5252</ele>
        <time>2021-07-10T10:13:25Z</time>
      </trkpt>
      <trkpt lat="39.18295" lon="-7.83505">
        <ele>167.0011</ele>
        <time>2021-07-10T10:13:36Z</time>
      </trkpt>
      <trkpt lat="39.18283" lon="-7.83519">
        <ele>167.1607</ele>
        <time>2021-07-10T10:13:47Z</time>
      </trkpt>
      <trkpt lat="39.1828" lon="-7.83525">
        <ele>167.2346</ele>
        <time>2021-07-10T10:14:20Z</time>
      </trkpt>
      <trkpt lat="39.18277" lon="-7.83529">
        <ele>167.0629</ele>
        <time>2021-07-10T10:14:34Z</time>
      </trkpt>
      <trkpt lat="39.18234" lon="-7.83575">
        <ele>163.8299</ele>
        <time>2021-07-10T10:14:45Z</time>
      </trkpt>
      <trkpt lat="39.18183" lon="-7.83632">
        <ele>161.3431</ele>
        <time>2021-07-10T10:14:56Z</time>
      </trkpt>
      <trkpt lat="39.18153" lon="-7.83698">
        <ele>155.6749</ele>
        <time>2021-07-10T10:15:07Z</time>
      </trkpt>
      <trkpt lat="39.18195" lon="-7.83828">
        <ele>149.5807</ele>
        <time>2021-07-10T10:15:18Z</time>
      </trkpt>
      <trkpt lat="39.18215" lon="-7.83954">
        <ele>143.1556</ele>
        <time>2021-07-10T10:15:29Z</time>
      </trkpt>
      <trkpt lat="39.18195" lon="-7.84122">
        <ele>139.3464</ele>
        <time>2021-07-10T10:15:40Z</time>
      </trkpt>
      <trkpt lat="39.18148" lon="-7.84288">
        <ele>139.5609</ele>
        <time>2021-07-10T10:15:51Z</time>
      </trkpt>
      <trkpt lat="39.1809" lon="-7.8447">
        <ele>134.534</ele>
        <time>2021-07-10T10:16:02Z</time>
      </trkpt>
      <trkpt lat="39.18047" lon="-7.84594">
        <ele>121.0837</ele>
        <time>2021-07-10T10:16:13Z</time>
      </trkpt>
      <trkpt lat="39.17984" lon="-7.84787">
        <ele>138.1925</ele>
        <time>2021-07-10T10:16:24Z</time>
      </trkpt>
      <trkpt lat="39.17915" lon="-7.84996">
        <ele>140.1579</ele>
        <time>2021-07-10T10:16:35Z</time>
      </trkpt>
      <trkpt lat="39.179" lon="-7.85163">
        <ele>141.1854</ele>
        <time>2021-07-10T10:16:46Z</time>
      </trkpt>
      <trkpt lat="39.17899" lon="-7.8519">
        <ele>142.0758</ele>
        <time>2021-07-10T10:16:57Z</time>
      </trkpt>
      <trkpt lat="39.17899" lon="-7.85196">
        <ele>142.5768</ele>
        <time>2021-07-10T10:17:16Z</time>
      </trkpt>
      <trkpt lat="39.17899" lon="-7.85213">
        <ele>142.7126</ele>
        <time>2021-07-10T10:17:27Z</time>
      </trkpt>
      <trkpt lat="39.179" lon="-7.85268">
        <ele>143.3708</ele>
        <time>2021-07-10T10:17:38Z</time>
      </trkpt>
      <trkpt lat="39.17914" lon="-7.85446">
        <ele>147.1387</ele>
        <time>2021-07-10T10:17:49Z</time>
      </trkpt>
      <trkpt lat="39.17927" lon="-7.85641">
        <ele>151.5874</ele>
        <time>2021-07-10T10:18:00Z</time>
      </trkpt>
      <trkpt lat="39.1795" lon="-7.85846">
        <ele>151.5566</ele>
        <time>2021-07-10T10:18:11Z</time>
      </trkpt>
      <trkpt lat="39.17982" lon="-7.86069">
        <ele>156.8117</ele>
        <time>2021-07-10T10:18:22Z</time>
      </trkpt>
      <trkpt lat="39.1801" lon="-7.86263">
        <ele>160.3423</ele>
        <time>2021-07-10T10:18:33Z</time>
      </trkpt>
      <trkpt lat="39.18025" lon="-7.86431">
        <ele>163.5954</ele>
        <time>2021-07-10T10:18:44Z</time>
      </trkpt>
      <trkpt lat="39.18002" lon="-7.86561">
        <ele>170.426</ele>
        <time>2021-07-10T10:18:55Z</time>
      </trkpt>
      <trkpt lat="39.18006" lon="-7.86628">
        <ele>170.6328</ele>
        <time>2021-07-10T10:19:06Z</time>
      </trkpt>
      <trkpt lat="39.17964" lon="-7.86666">
        <ele>167.6371</ele>
        <time>2021-07-10T10:19:17Z</time>
      </trkpt>
      <trkpt lat="39.17964" lon="-7.86671">
        <ele>167.0612</ele>
        <time>2021-07-10T10:19:47Z</time>
      </trkpt>
      <trkpt lat="39.17963" lon="-7.86676">
        <ele>166.7749</ele>
        <time>2021-07-10T10:19:58Z</time>
      </trkpt>
      <trkpt lat="39.17961" lon="-7.8668">
        <ele>166.6214</ele>
        <time>2021-07-10T10:20:13Z</time>
      </trkpt>
      <trkpt lat="39.17827" lon="-7.86657">
        <ele>167.0486</ele>
        <time>2021-07-10T10:20:24Z</time>
      </trkpt>
      <trkpt lat="39.17657" lon="-7.86639">
        <ele>165.9983</ele>
        <time>2021-07-10T10:20:35Z</time>
      </trkpt>
      <trkpt lat="39.17544" lon="-7.86795">
        <ele>163.4082</ele>
        <time>2021-07-10T10:20:46Z</time>
      </trkpt>
      <trkpt lat="39.1738" lon="-7.86935">
        <ele>173.6266</ele>
        <time>2021-07-10T10:20:57Z</time>
      </trkpt>
      <trkpt lat="39.17264" lon="-7.86989">
        <ele>186.709</ele>
        <time>2021-07-10T10:21:08Z</time>
      </trkpt>
      <trkpt lat="39.17205" lon="-7.87072">
        <ele>188.6604</ele>
        <time>2021-07-10T10:21:19Z</time>
      </trkpt>
      <trkpt lat="39.17152" lon="-7.87157">
        <ele>192.0318</ele>
        <time>2021-07-10T10:21:30Z</time>
      </trkpt>
      <trkpt lat="39.17153" lon="-7.87291">
        <ele>189.5795</ele>
        <time>2021-07-10T10:21:41Z</time>
      </trkpt>
      <trkpt lat="39.17202" lon="-7.87511">
        <ele>191.8228</ele>
        <time>2021-07-10T10:21:52Z</time>
      </trkpt>
      <trkpt lat="39.17301" lon="-7.87774">
        <ele>196.9911</ele>
        <time>2021-07-10T10:22:03Z</time>
      </trkpt>
      <trkpt lat="39.17342" lon="-7.88029">
        <ele>200.5584</ele>
        <time>2021-07-10T10:22:14Z</time>
      </trkpt>
      <trkpt lat="39.17315" lon="-7.88268">
        <ele>197.1195</ele>
        <time>2021-07-10T10:22:25Z</time>
      </trkpt>
      <trkpt lat="39.17152" lon="-7.88472">
        <ele>199.7087</ele>
        <time>2021-07-10T10:22:36Z</time>
      </trkpt>
      <trkpt lat="39.16953" lon="-7.88647">
        <ele>199.7697</ele>
        <time>2021-07-10T10:22:47Z</time>
      </trkpt>
      <trkpt lat="39.16745" lon="-7.88793">
        <ele>203.8069</ele>
        <time>2021-07-10T10:22:58Z</time>
      </trkpt>
      <trkpt lat="39.1656" lon="-7.88787">
        <ele>207.6382</ele>
        <time>2021-07-10T10:23:09Z</time>
      </trkpt>
      <trkpt lat="39.16353" lon="-7.88646">
        <ele>201.2357</ele>
        <time>2021-07-10T10:23:20Z</time>
      </trkpt>
      <trkpt lat="39.16132" lon="-7.88497">
        <ele>200.2329</ele>
        <time>2021-07-10T10:23:31Z</time>
      </trkpt>
      <trkpt lat="39.15903" lon="-7.88343">
        <ele>202.8821</ele>
        <time>2021-07-10T10:23:42Z</time>
      </trkpt>
      <trkpt lat="39.15678" lon="-7.88191">
        <ele>201.2632</ele>
        <time>2021-07-10T10:23:53Z</time>
      </trkpt>
      <trkpt lat="39.15455" lon="-7.88179">
        <ele>200.3617</ele>
        <time>2021-07-10T10:24:04Z</time>
      </trkpt>
      <trkpt lat="39.15219" lon="-7.88214">
        <ele>198.6847</ele>
        <time>2021-07-10T10:24:15Z</time>
      </trkpt>
      <trkpt lat="39.15" lon="-7.88224">
        <ele>200.9795</ele>
        <time>2021-07-10T10:24:26Z</time>
      </trkpt>
      <trkpt lat="39.1482" lon="-7.88188">
        <ele>204.2912</ele>
        <time>2021-07-10T10:24:37Z</time>
      </trkpt>
      <trkpt lat="39.14733" lon="-7.88268">
        <ele>204.7845</ele>
        <time>2021-07-10T10:24:48Z</time>
      </trkpt>
      <trkpt lat="39.14643" lon="-7.88436">
        <ele>199.957</ele>
        <time>2021-07-10T10:24:59Z</time>
      </trkpt>
      <trkpt lat="39.14519" lon="-7.88585">
        <ele>188.0812</ele>
        <time>2021-07-10T10:25:10Z</time>
      </trkpt>
      <trkpt lat="39.14439" lon="-7.88753">
        <ele>200.0068</ele>
        <time>2021-07-10T10:25:21Z</time>
      </trkpt>
      <trkpt lat="39.1437" lon="-7.88944">
        <ele>205.9903</ele>
        <time>2021-07-10T10:25:32Z</time>
      </trkpt>
      <trkpt lat="39.14318" lon="-7.89117">
        <ele>195.7704</ele>
        <time>2021-07-10T10:25:43Z</time>
      </trkpt>
      <trkpt lat="39.143" lon="-7.89274">
        <ele>183.271</ele>
        <time>2021-07-10T10:25:54Z</time>
      </trkpt>
      <trkpt lat="39.14341" lon="-7.89444">
        <ele>193.5877</ele>
        <time>2021-07-10T10:26:05Z</time>
      </trkpt>
      <trkpt lat="39.14325" lon="-7.89568">
        <ele>208.4992</ele>
        <time>2021-07-10T10:26:16Z</time>
      </trkpt>
      <trkpt lat="39.14233" lon="-7.89692">
        <ele>203.199</ele>
        <time>2021-07-10T10:26:27Z</time>
      </trkpt>
      <trkpt lat="39.14184" lon="-7.89802">
        <ele>179.5105</ele>
        <time>2021-07-10T10:26:38Z</time>
      </trkpt>
      <trkpt lat="39.14205" lon="-7.89964">
        <ele>185.0434</ele>
        <time>2021-07-10T10:26:49Z</time>
      </trkpt>
      <trkpt lat="39.14257" lon="-7.90166">
        <ele>182.3896</ele>
        <time>2021-07-10T10:27:00Z</time>
      </trkpt>
      <trkpt lat="39.14265" lon="-7.90361">
        <ele>163.8223</ele>
        <time>2021-07-10T10:27:11Z</time>
      </trkpt>
      <trkpt lat="39.14232" lon="-7.90564">
        <ele>163.2283</ele>
        <time>2021-07-10T10:27:22Z</time>
      </trkpt>
      <trkpt lat="39.14164" lon="-7.9075">
        <ele>171.2325</ele>
        <time>2021-07-10T10:27:33Z</time>
      </trkpt>
      <trkpt lat="39.14195" lon="-7.90932">
        <ele>178.9026</ele>
        <time>2021-07-10T10:27:44Z</time>
      </trkpt>
      <trkpt lat="39.14195" lon="-7.91116">
        <ele>187.505</ele>
        <time>2021-07-10T10:27:55Z</time>
      </trkpt>
      <trkpt lat="39.14147" lon="-7.91263">
        <ele>178.3786</ele>
        <time>2021-07-10T10:28:06Z</time>
      </trkpt>
      <trkpt lat="39.1415" lon="-7.91458">
        <ele>173.6519</ele>
        <time>2021-07-10T10:28:17Z</time>
      </trkpt>
      <trkpt lat="39.14155" lon="-7.9162">
        <ele>163.0638</ele>
        <time>2021-07-10T10:28:28Z</time>
      </trkpt>
      <trkpt lat="39.14244" lon="-7.91764">
        <ele>148.2193</ele>
        <time>2021-07-10T10:28:39Z</time>
      </trkpt>
      <trkpt lat="39.14257" lon="-7.91778">
        <ele>152.6442</ele>
        <time>2021-07-10T10:28:50Z</time>
      </trkpt>
      <trkpt lat="39.14257" lon="-7.91773">
        <ele>179.6475</ele>
        <time>2021-07-10T10:29:27Z</time>
      </trkpt>
      <trkpt lat="39.14255" lon="-7.91777">
        <ele>159.2864</ele>
        <time>2021-07-10T10:30:14Z</time>
      </trkpt>
      <trkpt lat="39.14255" lon="-7.91776">
        <ele>159.618</ele>
        <time>2021-07-10T10:31:13Z</time>
      </trkpt>
      <trkpt lat="39.14259" lon="-7.91776">
        <ele>158.5686</ele>
        <time>2021-07-10T10:31:50Z</time>
      </trkpt>
      <trkpt lat="39.1426" lon="-7.91782">
        <ele>161.4716</ele>
        <time>2021-07-10T10:32:15Z</time>
      </trkpt>
      <trkpt lat="39.14258" lon="-7.9178">
        <ele>161.8762</ele>
        <time>2021-07-10T10:33:15Z</time>
      </trkpt>
      <trkpt lat="39.14258" lon="-7.9178">
        <ele>161.8762</ele>
        <time>2021-07-10T10:34:15Z</time>
      </trkpt>
      <trkpt lat="39.14261" lon="-7.91788">
        <ele>162.7738</ele>
        <time>2021-07-10T10:34:49Z</time>
      </trkpt>
      <trkpt lat="39.14332" lon="-7.91898">
        <ele>162.6468</ele>
        <time>2021-07-10T10:35:00Z</time>
      </trkpt>
      <trkpt lat="39.14418" lon="-7.92034">
        <ele>163.7381</ele>
        <time>2021-07-10T10:35:11Z</time>
      </trkpt>
      <trkpt lat="39.14491" lon="-7.92138">
        <ele>162.8732</ele>
        <time>2021-07-10T10:35:22Z</time>
      </trkpt>
      <trkpt lat="39.14507" lon="-7.92261">
        <ele>161.3747</ele>
        <time>2021-07-10T10:35:33Z</time>
      </trkpt>
      <trkpt lat="39.14466" lon="-7.92347">
        <ele>166.2553</ele>
        <time>2021-07-10T10:35:44Z</time>
      </trkpt>
      <trkpt lat="39.14409" lon="-7.92426">
        <ele>163.9952</ele>
        <time>2021-07-10T10:35:55Z</time>
      </trkpt>
      <trkpt lat="39.14387" lon="-7.9254">
        <ele>168.0072</ele>
        <time>2021-07-10T10:36:06Z</time>
      </trkpt>
      <trkpt lat="39.14434" lon="-7.92724">
        <ele>172.5477</ele>
        <time>2021-07-10T10:36:17Z</time>
      </trkpt>
      <trkpt lat="39.14428" lon="-7.92927">
        <ele>173.9474</ele>
        <time>2021-07-10T10:36:28Z</time>
      </trkpt>
      <trkpt lat="39.14443" lon="-7.93121">
        <ele>182.94</ele>
        <time>2021-07-10T10:36:39Z</time>
      </trkpt>
      <trkpt lat="39.14469" lon="-7.93301">
        <ele>190.2341</ele>
        <time>2021-07-10T10:36:50Z</time>
      </trkpt>
      <trkpt lat="39.14492" lon="-7.93497">
        <ele>196.2673</ele>
        <time>2021-07-10T10:37:01Z</time>
      </trkpt>
      <trkpt lat="39.14569" lon="-7.93642">
        <ele>196.8791</ele>
        <time>2021-07-10T10:37:12Z</time>
      </trkpt>
      <trkpt lat="39.14685" lon="-7.93806">
        <ele>198.8635</ele>
        <time>2021-07-10T10:37:23Z</time>
      </trkpt>
      <trkpt lat="39.14654" lon="-7.93932">
        <ele>204.7871</ele>
        <time>2021-07-10T10:37:34Z</time>
      </trkpt>
      <trkpt lat="39.14523" lon="-7.93993">
        <ele>209.035</ele>
        <time>2021-07-10T10:37:45Z</time>
      </trkpt>
      <trkpt lat="39.14489" lon="-7.94152">
        <ele>204.2517</ele>
        <time>2021-07-10T10:37:56Z</time>
      </trkpt>
      <trkpt lat="39.14526" lon="-7.94304">
        <ele>198.1452</ele>
        <time>2021-07-10T10:38:07Z</time>
      </trkpt>
      <trkpt lat="39.14659" lon="-7.94405">
        <ele>173.1405</ele>
        <time>2021-07-10T10:38:18Z</time>
      </trkpt>
      <trkpt lat="39.1474" lon="-7.94529">
        <ele>175.8779</ele>
        <time>2021-07-10T10:38:29Z</time>
      </trkpt>
      <trkpt lat="39.1482" lon="-7.94551">
        <ele>185.4758</ele>
        <time>2021-07-10T10:38:40Z</time>
      </trkpt>
      <trkpt lat="39.14932" lon="-7.94506">
        <ele>200.4281</ele>
        <time>2021-07-10T10:38:51Z</time>
      </trkpt>
      <trkpt lat="39.15046" lon="-7.94537">
        <ele>196.4133</ele>
        <time>2021-07-10T10:39:02Z</time>
      </trkpt>
      <trkpt lat="39.1515" lon="-7.94662">
        <ele>209.2724</ele>
        <time>2021-07-10T10:39:13Z</time>
      </trkpt>
      <trkpt lat="39.15184" lon="-7.94819">
        <ele>219.3092</ele>
        <time>2021-07-10T10:39:24Z</time>
      </trkpt>
      <trkpt lat="39.1516" lon="-7.95001">
        <ele>214.2201</ele>
        <time>2021-07-10T10:39:35Z</time>
      </trkpt>
      <trkpt lat="39.1515" lon="-7.95207">
        <ele>199.9086</ele>
        <time>2021-07-10T10:39:46Z</time>
      </trkpt>
      <trkpt lat="39.15102" lon="-7.95375">
        <ele>191.2456</ele>
        <time>2021-07-10T10:39:57Z</time>
      </trkpt>
      <trkpt lat="39.15057" lon="-7.95536">
        <ele>200.5171</ele>
        <time>2021-07-10T10:40:08Z</time>
      </trkpt>
      <trkpt lat="39.15049" lon="-7.95651">
        <ele>217.7564</ele>
        <time>2021-07-10T10:40:19Z</time>
      </trkpt>
      <trkpt lat="39.15111" lon="-7.9588">
        <ele>218.7278</ele>
        <time>2021-07-10T10:40:30Z</time>
      </trkpt>
      <trkpt lat="39.15187" lon="-7.96031">
        <ele>231.7018</ele>
        <time>2021-07-10T10:40:41Z</time>
      </trkpt>
      <trkpt lat="39.15316" lon="-7.96206">
        <ele>231.566</ele>
        <time>2021-07-10T10:40:52Z</time>
      </trkpt>
      <trkpt lat="39.15462" lon="-7.96427">
        <ele>230.8474</ele>
        <time>2021-07-10T10:41:03Z</time>
      </trkpt>
      <trkpt lat="39.15644" lon="-7.96624">
        <ele>231.2215</ele>
        <time>2021-07-10T10:41:14Z</time>
      </trkpt>
      <trkpt lat="39.15801" lon="-7.96845">
        <ele>226.92</ele>
        <time>2021-07-10T10:41:25Z</time>
      </trkpt>
      <trkpt lat="39.15916" lon="-7.97133">
        <ele>224.2123</ele>
        <time>2021-07-10T10:41:36Z</time>
      </trkpt>
      <trkpt lat="39.15992" lon="-7.97442">
        <ele>219.5131</ele>
        <time>2021-07-10T10:41:47Z</time>
      </trkpt>
      <trkpt lat="39.16042" lon="-7.9777">
        <ele>226.851</ele>
        <time>2021-07-10T10:41:58Z</time>
      </trkpt>
      <trkpt lat="39.16038" lon="-7.9805">
        <ele>231.0115</ele>
        <time>2021-07-10T10:42:09Z</time>
      </trkpt>
      <trkpt lat="39.1601" lon="-7.98314">
        <ele>224.0564</ele>
        <time>2021-07-10T10:42:20Z</time>
      </trkpt>
      <trkpt lat="39.15979" lon="-7.98542">
        <ele>223.453</ele>
        <time>2021-07-10T10:42:31Z</time>
      </trkpt>
      <trkpt lat="39.15927" lon="-7.9877">
        <ele>227.8489</ele>
        <time>2021-07-10T10:42:42Z</time>
      </trkpt>
      <trkpt lat="39.15934" lon="-7.98964">
        <ele>225.6989</ele>
        <time>2021-07-10T10:42:53Z</time>
      </trkpt>
      <trkpt lat="39.15957" lon="-7.99101">
        <ele>230.9868</ele>
        <time>2021-07-10T10:43:04Z</time>
      </trkpt>
      <trkpt lat="39.1599" lon="-7.99205">
        <ele>223.5534</ele>
        <time>2021-07-10T10:43:15Z</time>
      </trkpt>
      <trkpt lat="39.16017" lon="-7.9931">
        <ele>221.6612</ele>
        <time>2021-07-10T10:43:26Z</time>
      </trkpt>
      <trkpt lat="39.16036" lon="-7.99422">
        <ele>223.4559</ele>
        <time>2021-07-10T10:43:37Z</time>
      </trkpt>
      <trkpt lat="39.16027" lon="-7.99455">
        <ele>224.0328</ele>
        <time>2021-07-10T10:43:48Z</time>
      </trkpt>
      <trkpt lat="39.15997" lon="-7.99539">
        <ele>226.4362</ele>
        <time>2021-07-10T10:43:59Z</time>
      </trkpt>
      <trkpt lat="39.15953" lon="-7.99648">
        <ele>225.8428</ele>
        <time>2021-07-10T10:44:10Z</time>
      </trkpt>
      <trkpt lat="39.15909" lon="-7.99746">
        <ele>225.2236</ele>
        <time>2021-07-10T10:44:21Z</time>
      </trkpt>
      <trkpt lat="39.15904" lon="-7.99788">
        <ele>229.4399</ele>
        <time>2021-07-10T10:44:32Z</time>
      </trkpt>
      <trkpt lat="39.15904" lon="-7.99841">
        <ele>232.9105</ele>
        <time>2021-07-10T10:44:43Z</time>
      </trkpt>
      <trkpt lat="39.15911" lon="-7.99904">
        <ele>232.9367</ele>
        <time>2021-07-10T10:44:54Z</time>
      </trkpt>
      <trkpt lat="39.15937" lon="-8.00011">
        <ele>229.2738</ele>
        <time>2021-07-10T10:45:05Z</time>
      </trkpt>
      <trkpt lat="39.15941" lon="-8.00179">
        <ele>230.6525</ele>
        <time>2021-07-10T10:45:16Z</time>
      </trkpt>
      <trkpt lat="39.15939" lon="-8.00374">
        <ele>243.3877</ele>
        <time>2021-07-10T10:45:27Z</time>
      </trkpt>
      <trkpt lat="39.15917" lon="-8.00527">
        <ele>246.6777</ele>
        <time>2021-07-10T10:45:38Z</time>
      </trkpt>
      <trkpt lat="39.15975" lon="-8.00672">
        <ele>230.8318</ele>
        <time>2021-07-10T10:45:49Z</time>
      </trkpt>
      <trkpt lat="39.16051" lon="-8.00858">
        <ele>191.9676</ele>
        <time>2021-07-10T10:46:00Z</time>
      </trkpt>
      <trkpt lat="39.16103" lon="-8.01054">
        <ele>177.8191</ele>
        <time>2021-07-10T10:46:11Z</time>
      </trkpt>
      <trkpt lat="39.16141" lon="-8.01276">
        <ele>190.8849</ele>
        <time>2021-07-10T10:46:22Z</time>
      </trkpt>
      <trkpt lat="39.16177" lon="-8.01493">
        <ele>199.7774</ele>
        <time>2021-07-10T10:46:33Z</time>
      </trkpt>
      <trkpt lat="39.16227" lon="-8.01703">
        <ele>214.9758</ele>
        <time>2021-07-10T10:46:44Z</time>
      </trkpt>
      <trkpt lat="39.16254" lon="-8.01898">
        <ele>223.3568</ele>
        <time>2021-07-10T10:46:55Z</time>
      </trkpt>
      <trkpt lat="39.16239" lon="-8.02087">
        <ele>230.5751</ele>
        <time>2021-07-10T10:47:06Z</time>
      </trkpt>
      <trkpt lat="39.16168" lon="-8.0231">
        <ele>226.412</ele>
        <time>2021-07-10T10:47:17Z</time>
      </trkpt>
      <trkpt lat="39.16144" lon="-8.02482">
        <ele>209.6795</ele>
        <time>2021-07-10T10:47:28Z</time>
      </trkpt>
      <trkpt lat="39.16084" lon="-8.02661">
        <ele>207.8445</ele>
        <time>2021-07-10T10:47:39Z</time>
      </trkpt>
      <trkpt lat="39.16047" lon="-8.02873">
        <ele>203.0064</ele>
        <time>2021-07-10T10:47:50Z</time>
      </trkpt>
      <trkpt lat="39.16045" lon="-8.03058">
        <ele>201.9323</ele>
        <time>2021-07-10T10:48:01Z</time>
      </trkpt>
      <trkpt lat="39.15974" lon="-8.03246">
        <ele>200.7205</ele>
        <time>2021-07-10T10:48:12Z</time>
      </trkpt>
      <trkpt lat="39.15892" lon="-8.03454">
        <ele>196.8208</ele>
        <time>2021-07-10T10:48:23Z</time>
      </trkpt>
      <trkpt lat="39.15808" lon="-8.03643">
        <ele>196.1024</ele>
        <time>2021-07-10T10:48:34Z</time>
      </trkpt>
      <trkpt lat="39.15704" lon="-8.03765">
        <ele>189.0897</ele>
        <time>2021-07-10T10:48:45Z</time>
      </trkpt>
      <trkpt lat="39.15643" lon="-8.03951">
        <ele>179.7737</ele>
        <time>2021-07-10T10:48:56Z</time>
      </trkpt>
      <trkpt lat="39.15584" lon="-8.04157">
        <ele>175.2198</ele>
        <time>2021-07-10T10:49:07Z</time>
      </trkpt>
      <trkpt lat="39.15535" lon="-8.04381">
        <ele>169.483</ele>
        <time>2021-07-10T10:49:18Z</time>
      </trkpt>
      <trkpt lat="39.15521" lon="-8.04564">
        <ele>172.6725</ele>
        <time>2021-07-10T10:49:29Z</time>
      </trkpt>
      <trkpt lat="39.15548" lon="-8.04786">
        <ele>172.6459</ele>
        <time>2021-07-10T10:49:40Z</time>
      </trkpt>
      <trkpt lat="39.1552" lon="-8.05017">
        <ele>173.5734</ele>
        <time>2021-07-10T10:49:51Z</time>
      </trkpt>
      <trkpt lat="39.15486" lon="-8.05227">
        <ele>177.4235</ele>
        <time>2021-07-10T10:50:02Z</time>
      </trkpt>
      <trkpt lat="39.15375" lon="-8.05372">
        <ele>176.662</ele>
        <time>2021-07-10T10:50:13Z</time>
      </trkpt>
      <trkpt lat="39.15238" lon="-8.05514">
        <ele>177.71</ele>
        <time>2021-07-10T10:50:24Z</time>
      </trkpt>
      <trkpt lat="39.15122" lon="-8.05691">
        <ele>179.883</ele>
        <time>2021-07-10T10:50:35Z</time>
      </trkpt>
      <trkpt lat="39.15" lon="-8.05827">
        <ele>182.3683</ele>
        <time>2021-07-10T10:50:46Z</time>
      </trkpt>
      <trkpt lat="39.1487" lon="-8.05979">
        <ele>183.701</ele>
        <time>2021-07-10T10:50:57Z</time>
      </trkpt>
      <trkpt lat="39.14739" lon="-8.0613">
        <ele>182.7911</ele>
        <time>2021-07-10T10:51:08Z</time>
      </trkpt>
      <trkpt lat="39.14634" lon="-8.06287">
        <ele>178.2926</ele>
        <time>2021-07-10T10:51:19Z</time>
      </trkpt>
      <trkpt lat="39.14593" lon="-8.06503">
        <ele>178.9745</ele>
        <time>2021-07-10T10:51:30Z</time>
      </trkpt>
      <trkpt lat="39.14561" lon="-8.06709">
        <ele>179.358</ele>
        <time>2021-07-10T10:51:41Z</time>
      </trkpt>
      <trkpt lat="39.14435" lon="-8.06798">
        <ele>171.5414</ele>
        <time>2021-07-10T10:51:52Z</time>
      </trkpt>
      <trkpt lat="39.14303" lon="-8.06858">
        <ele>165.5897</ele>
        <time>2021-07-10T10:52:03Z</time>
      </trkpt>
      <trkpt lat="39.14198" lon="-8.07015">
        <ele>164.7377</ele>
        <time>2021-07-10T10:52:14Z</time>
      </trkpt>
      <trkpt lat="39.14048" lon="-8.07079">
        <ele>174.2589</ele>
        <time>2021-07-10T10:52:25Z</time>
      </trkpt>
      <trkpt lat="39.13894" lon="-8.07124">
        <ele>178.5305</ele>
        <time>2021-07-10T10:52:36Z</time>
      </trkpt>
      <trkpt lat="39.13768" lon="-8.07252">
        <ele>187.8659</ele>
        <time>2021-07-10T10:52:47Z</time>
      </trkpt>
      <trkpt lat="39.13611" lon="-8.07343">
        <ele>186.1764</ele>
        <time>2021-07-10T10:52:58Z</time>
      </trkpt>
      <trkpt lat="39.13485" lon="-8.07445">
        <ele>181.3422</ele>
        <time>2021-07-10T10:53:09Z</time>
      </trkpt>
      <trkpt lat="39.13343" lon="-8.07567">
        <ele>177.2434</ele>
        <time>2021-07-10T10:53:20Z</time>
      </trkpt>
      <trkpt lat="39.13197" lon="-8.07666">
        <ele>179.4231</ele>
        <time>2021-07-10T10:53:31Z</time>
      </trkpt>
      <trkpt lat="39.13063" lon="-8.07749">
        <ele>175.6239</ele>
        <time>2021-07-10T10:53:42Z</time>
      </trkpt>
      <trkpt lat="39.13021" lon="-8.07926">
        <ele>167.8931</ele>
        <time>2021-07-10T10:53:53Z</time>
      </trkpt>
      <trkpt lat="39.12965" lon="-8.08083">
        <ele>167.7513</ele>
        <time>2021-07-10T10:54:04Z</time>
      </trkpt>
      <trkpt lat="39.1283" lon="-8.08188">
        <ele>169.3903</ele>
        <time>2021-07-10T10:54:15Z</time>
      </trkpt>
      <trkpt lat="39.12661" lon="-8.0827">
        <ele>164.5563</ele>
        <time>2021-07-10T10:54:26Z</time>
      </trkpt>
      <trkpt lat="39.12523" lon="-8.08405">
        <ele>158.4484</ele>
        <time>2021-07-10T10:54:37Z</time>
      </trkpt>
      <trkpt lat="39.12448" lon="-8.08551">
        <ele>165.2412</ele>
        <time>2021-07-10T10:54:48Z</time>
      </trkpt>
      <trkpt lat="39.12305" lon="-8.08657">
        <ele>164.5097</ele>
        <time>2021-07-10T10:54:59Z</time>
      </trkpt>
      <trkpt lat="39.12158" lon="-8.08712">
        <ele>178.7725</ele>
        <time>2021-07-10T10:55:10Z</time>
      </trkpt>
      <trkpt lat="39.1208" lon="-8.08859">
        <ele>177.8377</ele>
        <time>2021-07-10T10:55:21Z</time>
      </trkpt>
      <trkpt lat="39.12024" lon="-8.09005">
        <ele>176.4802</ele>
        <time>2021-07-10T10:55:32Z</time>
      </trkpt>
      <trkpt lat="39.11958" lon="-8.09154">
        <ele>172.4358</ele>
        <time>2021-07-10T10:55:43Z</time>
      </trkpt>
      <trkpt lat="39.11837" lon="-8.09229">
        <ele>173.4601</ele>
        <time>2021-07-10T10:55:54Z</time>
      </trkpt>
      <trkpt lat="39.11713" lon="-8.09322">
        <ele>170.2504</ele>
        <time>2021-07-10T10:56:05Z</time>
      </trkpt>
      <trkpt lat="39.11657" lon="-8.09448">
        <ele>156.3592</ele>
        <time>2021-07-10T10:56:16Z</time>
      </trkpt>
      <trkpt lat="39.1163" lon="-8.09595">
        <ele>143.8713</ele>
        <time>2021-07-10T10:56:27Z</time>
      </trkpt>
      <trkpt lat="39.11553" lon="-8.0967">
        <ele>136.5445</ele>
        <time>2021-07-10T10:56:38Z</time>
      </trkpt>
      <trkpt lat="39.11428" lon="-8.09677">
        <ele>133.3481</ele>
        <time>2021-07-10T10:56:49Z</time>
      </trkpt>
      <trkpt lat="39.11361" lon="-8.09729">
        <ele>133.7528</ele>
        <time>2021-07-10T10:57:00Z</time>
      </trkpt>
      <trkpt lat="39.11284" lon="-8.098">
        <ele>133.3278</ele>
        <time>2021-07-10T10:57:11Z</time>
      </trkpt>
      <trkpt lat="39.11232" lon="-8.09899">
        <ele>129.2271</ele>
        <time>2021-07-10T10:57:22Z</time>
      </trkpt>
      <trkpt lat="39.11189" lon="-8.10038">
        <ele>126.9934</ele>
        <time>2021-07-10T10:57:33Z</time>
      </trkpt>
      <trkpt lat="39.1112" lon="-8.1018">
        <ele>126.2217</ele>
        <time>2021-07-10T10:57:44Z</time>
      </trkpt>
      <trkpt lat="39.1104" lon="-8.10278">
        <ele>119.8565</ele>
        <time>2021-07-10T10:57:55Z</time>
      </trkpt>
      <trkpt lat="39.10925" lon="-8.10328">
        <ele>117.6253</ele>
        <time>2021-07-10T10:58:06Z</time>
      </trkpt>
      <trkpt lat="39.10816" lon="-8.1039">
        <ele>111.8256</ele>
        <time>2021-07-10T10:58:17Z</time>
      </trkpt>
      <trkpt lat="39.10731" lon="-8.10457">
        <ele>106.0595</ele>
        <time>2021-07-10T10:58:28Z</time>
      </trkpt>
      <trkpt lat="39.10665" lon="-8.10548">
        <ele>101.7898</ele>
        <time>2021-07-10T10:58:39Z</time>
      </trkpt>
      <trkpt lat="39.10602" lon="-8.10612">
        <ele>100.3296</ele>
        <time>2021-07-10T10:58:50Z</time>
      </trkpt>
      <trkpt lat="39.10532" lon="-8.10701">
        <ele>99.89687</ele>
        <time>2021-07-10T10:59:01Z</time>
      </trkpt>
      <trkpt lat="39.1043" lon="-8.10762">
        <ele>94.87902</ele>
        <time>2021-07-10T10:59:12Z</time>
      </trkpt>
      <trkpt lat="39.10365" lon="-8.10775">
        <ele>90.39009</ele>
        <time>2021-07-10T10:59:23Z</time>
      </trkpt>
      <trkpt lat="39.10362" lon="-8.1077">
        <ele>92.35567</ele>
        <time>2021-07-10T10:59:34Z</time>
      </trkpt>
      <trkpt lat="39.10361" lon="-8.10765">
        <ele>85.04443</ele>
        <time>2021-07-10T10:59:47Z</time>
      </trkpt>
      <trkpt lat="39.10363" lon="-8.10761">
        <ele>87.61766</ele>
        <time>2021-07-10T11:00:07Z</time>
      </trkpt>
      <trkpt lat="39.10366" lon="-8.10765">
        <ele>91.72925</ele>
        <time>2021-07-10T11:00:23Z</time>
      </trkpt>
      <trkpt lat="39.10347" lon="-8.10736">
        <ele>92.89801</ele>
        <time>2021-07-10T11:00:34Z</time>
      </trkpt>
      <trkpt lat="39.10309" lon="-8.10669">
        <ele>87.48002</ele>
        <time>2021-07-10T11:00:45Z</time>
      </trkpt>
      <trkpt lat="39.10278" lon="-8.10567">
        <ele>81.67963</ele>
        <time>2021-07-10T11:00:56Z</time>
      </trkpt>
      <trkpt lat="39.10234" lon="-8.10452">
        <ele>81.24953</ele>
        <time>2021-07-10T11:01:07Z</time>
      </trkpt>
      <trkpt lat="39.1021" lon="-8.10322">
        <ele>86.79117</ele>
        <time>2021-07-10T11:01:18Z</time>
      </trkpt>
      <trkpt lat="39.10201" lon="-8.10194">
        <ele>91.41004</ele>
        <time>2021-07-10T11:01:29Z</time>
      </trkpt>
      <trkpt lat="39.10191" lon="-8.10072">
        <ele>93.04067</ele>
        <time>2021-07-10T11:01:40Z</time>
      </trkpt>
      <trkpt lat="39.10139" lon="-8.09984">
        <ele>79.64492</ele>
        <time>2021-07-10T11:01:51Z</time>
      </trkpt>
      <trkpt lat="39.10054" lon="-8.09883">
        <ele>88.04609</ele>
        <time>2021-07-10T11:02:02Z</time>
      </trkpt>
      <trkpt lat="39.09968" lon="-8.09748">
        <ele>94.6254</ele>
        <time>2021-07-10T11:02:13Z</time>
      </trkpt>
      <trkpt lat="39.0993" lon="-8.09668">
        <ele>100.4122</ele>
        <time>2021-07-10T11:02:24Z</time>
      </trkpt>
      <trkpt lat="39.09944" lon="-8.09613">
        <ele>104.1667</ele>
        <time>2021-07-10T11:02:35Z</time>
      </trkpt>
      <trkpt lat="39.0992" lon="-8.09546">
        <ele>102.545</ele>
        <time>2021-07-10T11:02:46Z</time>
      </trkpt>
      <trkpt lat="39.09921" lon="-8.09555">
        <ele>97.89418</ele>
        <time>2021-07-10T11:02:58Z</time>
      </trkpt>
      <trkpt lat="39.09941" lon="-8.09636">
        <ele>91.48689</ele>
        <time>2021-07-10T11:03:09Z</time>
      </trkpt>
      <trkpt lat="39.09928" lon="-8.09668">
        <ele>87.76091</ele>
        <time>2021-07-10T11:03:20Z</time>
      </trkpt>
      <trkpt lat="39.09928" lon="-8.09663">
        <ele>93.24796</ele>
        <time>2021-07-10T11:03:42Z</time>
      </trkpt>
      <trkpt lat="39.0993" lon="-8.09658">
        <ele>92.79015</ele>
        <time>2021-07-10T11:04:02Z</time>
      </trkpt>
      <trkpt lat="39.09933" lon="-8.09656">
        <ele>90.32496</ele>
        <time>2021-07-10T11:04:13Z</time>
      </trkpt>
      <trkpt lat="39.0993" lon="-8.09659">
        <ele>90.97007</ele>
        <time>2021-07-10T11:04:43Z</time>
      </trkpt>
      <trkpt lat="39.09928" lon="-8.09667">
        <ele>90.13942</ele>
        <time>2021-07-10T11:04:54Z</time>
      </trkpt>
      <trkpt lat="39.09928" lon="-8.09676">
        <ele>90.67554</ele>
        <time>2021-07-10T11:05:48Z</time>
      </trkpt>
      <trkpt lat="39.09923" lon="-8.09681">
        <ele>90.57784</ele>
        <time>2021-07-10T11:05:59Z</time>
      </trkpt>
      <trkpt lat="39.09929" lon="-8.09667">
        <ele>90.29939</ele>
        <time>2021-07-10T11:06:10Z</time>
      </trkpt>
      <trkpt lat="39.09939" lon="-8.09588">
        <ele>93.4843</ele>
        <time>2021-07-10T11:06:21Z</time>
      </trkpt>
      <trkpt lat="39.09894" lon="-8.09488">
        <ele>94.67117</ele>
        <time>2021-07-10T11:06:32Z</time>
      </trkpt>
      <trkpt lat="39.09825" lon="-8.09424">
        <ele>88.89578</ele>
        <time>2021-07-10T11:06:43Z</time>
      </trkpt>
      <trkpt lat="39.09767" lon="-8.0935">
        <ele>88.39908</ele>
        <time>2021-07-10T11:06:54Z</time>
      </trkpt>
      <trkpt lat="39.09724" lon="-8.09218">
        <ele>86.85265</ele>
        <time>2021-07-10T11:07:05Z</time>
      </trkpt>
      <trkpt lat="39.09711" lon="-8.0908">
        <ele>87.2943</ele>
        <time>2021-07-10T11:07:16Z</time>
      </trkpt>
      <trkpt lat="39.09739" lon="-8.08979">
        <ele>87.83308</ele>
        <time>2021-07-10T11:07:27Z</time>
      </trkpt>
      <trkpt lat="39.0979" lon="-8.08883">
        <ele>84.49851</ele>
        <time>2021-07-10T11:07:38Z</time>
      </trkpt>
      <trkpt lat="39.0987" lon="-8.08821">
        <ele>87.78122</ele>
        <time>2021-07-10T11:07:49Z</time>
      </trkpt>
      <trkpt lat="39.0989" lon="-8.08763">
        <ele>86.23793</ele>
        <time>2021-07-10T11:08:00Z</time>
      </trkpt>
      <trkpt lat="39.09898" lon="-8.08717">
        <ele>84.61437</ele>
        <time>2021-07-10T11:08:11Z</time>
      </trkpt>
      <trkpt lat="39.09906" lon="-8.08682">
        <ele>87.65272</ele>
        <time>2021-07-10T11:08:22Z</time>
      </trkpt>
      <trkpt lat="39.09867" lon="-8.08677">
        <ele>83.97629</ele>
        <time>2021-07-10T11:08:33Z</time>
      </trkpt>
      <trkpt lat="39.09819" lon="-8.08675">
        <ele>84.77809</ele>
        <time>2021-07-10T11:08:44Z</time>
      </trkpt>
      <trkpt lat="39.09789" lon="-8.08701">
        <ele>86.32071</ele>
        <time>2021-07-10T11:08:55Z</time>
      </trkpt>
      <trkpt lat="39.09742" lon="-8.08741">
        <ele>84.76147</ele>
        <time>2021-07-10T11:09:06Z</time>
      </trkpt>
      <trkpt lat="39.0969" lon="-8.08773">
        <ele>82.04358</ele>
        <time>2021-07-10T11:09:17Z</time>
      </trkpt>
      <trkpt lat="39.09621" lon="-8.08807">
        <ele>79.58657</ele>
        <time>2021-07-10T11:09:28Z</time>
      </trkpt>
      <trkpt lat="39.0958" lon="-8.08758">
        <ele>80.58016</ele>
        <time>2021-07-10T11:09:39Z</time>
      </trkpt>
      <trkpt lat="39.09509" lon="-8.08675">
        <ele>81.4588</ele>
        <time>2021-07-10T11:09:50Z</time>
      </trkpt>
      <trkpt lat="39.09469" lon="-8.08593">
        <ele>83.65607</ele>
        <time>2021-07-10T11:10:01Z</time>
      </trkpt>
      <trkpt lat="39.09459" lon="-8.08518">
        <ele>86.93895</ele>
        <time>2021-07-10T11:10:12Z</time>
      </trkpt>
      <trkpt lat="39.09442" lon="-8.08469">
        <ele>88.40498</ele>
        <time>2021-07-10T11:10:23Z</time>
      </trkpt>
      <trkpt lat="39.09386" lon="-8.08372">
        <ele>88.14866</ele>
        <time>2021-07-10T11:10:34Z</time>
      </trkpt>
      <trkpt lat="39.09357" lon="-8.08281">
        <ele>90.16441</ele>
        <time>2021-07-10T11:10:45Z</time>
      </trkpt>
      <trkpt lat="39.09301" lon="-8.08207">
        <ele>86.57549</ele>
        <time>2021-07-10T11:10:56Z</time>
      </trkpt>
      <trkpt lat="39.09271" lon="-8.0812">
        <ele>87.14695</ele>
        <time>2021-07-10T11:11:07Z</time>
      </trkpt>
      <trkpt lat="39.09249" lon="-8.08008">
        <ele>91.43599</ele>
        <time>2021-07-10T11:11:18Z</time>
      </trkpt>
      <trkpt lat="39.09164" lon="-8.07927">
        <ele>92.92731</ele>
        <time>2021-07-10T11:11:29Z</time>
      </trkpt>
      <trkpt lat="39.09083" lon="-8.07813">
        <ele>88.09638</ele>
        <time>2021-07-10T11:11:40Z</time>
      </trkpt>
      <trkpt lat="39.09018" lon="-8.07674">
        <ele>92.15002</ele>
        <time>2021-07-10T11:11:51Z</time>
      </trkpt>
      <trkpt lat="39.08969" lon="-8.07535">
        <ele>97.20937</ele>
        <time>2021-07-10T11:12:02Z</time>
      </trkpt>
      <trkpt lat="39.08891" lon="-8.07546">
        <ele>90.53456</ele>
        <time>2021-07-10T11:12:13Z</time>
      </trkpt>
      <trkpt lat="39.08831" lon="-8.07502">
        <ele>84.99922</ele>
        <time>2021-07-10T11:12:24Z</time>
      </trkpt>
      <trkpt lat="39.08787" lon="-8.07416">
        <ele>82.4998</ele>
        <time>2021-07-10T11:12:35Z</time>
      </trkpt>
      <trkpt lat="39.08787" lon="-8.07347">
        <ele>84.94353</ele>
        <time>2021-07-10T11:12:46Z</time>
      </trkpt>
      <trkpt lat="39.0877" lon="-8.0723">
        <ele>87.2858</ele>
        <time>2021-07-10T11:12:57Z</time>
      </trkpt>
      <trkpt lat="39.08768" lon="-8.07107">
        <ele>86.56332</ele>
        <time>2021-07-10T11:13:08Z</time>
      </trkpt>
      <trkpt lat="39.08755" lon="-8.07045">
        <ele>84.4967</ele>
        <time>2021-07-10T11:13:19Z</time>
      </trkpt>
      <trkpt lat="39.08691" lon="-8.071">
        <ele>81.70969</ele>
        <time>2021-07-10T11:13:30Z</time>
      </trkpt>
      <trkpt lat="39.08664" lon="-8.0718">
        <ele>81.43327</ele>
        <time>2021-07-10T11:13:41Z</time>
      </trkpt>
      <trkpt lat="39.08588" lon="-8.07159">
        <ele>82.2779</ele>
        <time>2021-07-10T11:13:52Z</time>
      </trkpt>
      <trkpt lat="39.08598" lon="-8.07257">
        <ele>82.19141</ele>
        <time>2021-07-10T11:14:03Z</time>
      </trkpt>
      <trkpt lat="39.08586" lon="-8.07403">
        <ele>82.59366</ele>
        <time>2021-07-10T11:14:14Z</time>
      </trkpt>
      <trkpt lat="39.08506" lon="-8.07444">
        <ele>91.66939</ele>
        <time>2021-07-10T11:14:25Z</time>
      </trkpt>
      <trkpt lat="39.08399" lon="-8.07412">
        <ele>70.75231</ele>
        <time>2021-07-10T11:14:36Z</time>
      </trkpt>
      <trkpt lat="39.08298" lon="-8.07405">
        <ele>121.9742</ele>
        <time>2021-07-10T11:14:47Z</time>
      </trkpt>
      <trkpt lat="39.082" lon="-8.07497">
        <ele>123.1642</ele>
        <time>2021-07-10T11:14:58Z</time>
      </trkpt>
      <trkpt lat="39.08177" lon="-8.07629">
        <ele>131.7194</ele>
        <time>2021-07-10T11:15:09Z</time>
      </trkpt>
      <trkpt lat="39.08128" lon="-8.07746">
        <ele>142.3951</ele>
        <time>2021-07-10T11:15:20Z</time>
      </trkpt>
      <trkpt lat="39.08094" lon="-8.07808">
        <ele>148.6709</ele>
        <time>2021-07-10T11:15:31Z</time>
      </trkpt>
      <trkpt lat="39.0809" lon="-8.07809">
        <ele>148.9429</ele>
        <time>2021-07-10T11:15:43Z</time>
      </trkpt>
      <trkpt lat="39.08018" lon="-8.07877">
        <ele>147.3261</ele>
        <time>2021-07-10T11:15:54Z</time>
      </trkpt>
      <trkpt lat="39.07959" lon="-8.07973">
        <ele>148.895</ele>
        <time>2021-07-10T11:16:05Z</time>
      </trkpt>
      <trkpt lat="39.07887" lon="-8.08025">
        <ele>148.1661</ele>
        <time>2021-07-10T11:16:16Z</time>
      </trkpt>
      <trkpt lat="39.0788" lon="-8.08185">
        <ele>150.4601</ele>
        <time>2021-07-10T11:16:27Z</time>
      </trkpt>
      <trkpt lat="39.07828" lon="-8.08367">
        <ele>151.0794</ele>
        <time>2021-07-10T11:16:38Z</time>
      </trkpt>
      <trkpt lat="39.0775" lon="-8.08437">
        <ele>151.997</ele>
        <time>2021-07-10T11:16:49Z</time>
      </trkpt>
      <trkpt lat="39.07704" lon="-8.08489">
        <ele>154.2564</ele>
        <time>2021-07-10T11:17:00Z</time>
      </trkpt>
      <trkpt lat="39.07603" lon="-8.08574">
        <ele>152.5815</ele>
        <time>2021-07-10T11:17:11Z</time>
      </trkpt>
      <trkpt lat="39.0752" lon="-8.08682">
        <ele>153.6165</ele>
        <time>2021-07-10T11:17:22Z</time>
      </trkpt>
      <trkpt lat="39.07394" lon="-8.08705">
        <ele>154.1021</ele>
        <time>2021-07-10T11:17:33Z</time>
      </trkpt>
      <trkpt lat="39.07229" lon="-8.08728">
        <ele>151.9377</ele>
        <time>2021-07-10T11:17:44Z</time>
      </trkpt>
      <trkpt lat="39.07114" lon="-8.08677">
        <ele>155.5882</ele>
        <time>2021-07-10T11:17:55Z</time>
      </trkpt>
      <trkpt lat="39.07023" lon="-8.08624">
        <ele>158.7937</ele>
        <time>2021-07-10T11:18:06Z</time>
      </trkpt>
      <trkpt lat="39.06933" lon="-8.08534">
        <ele>157.9236</ele>
        <time>2021-07-10T11:18:17Z</time>
      </trkpt>
      <trkpt lat="39.06842" lon="-8.08402">
        <ele>154.2737</ele>
        <time>2021-07-10T11:18:28Z</time>
      </trkpt>
      <trkpt lat="39.06781" lon="-8.08277">
        <ele>155.0812</ele>
        <time>2021-07-10T11:18:39Z</time>
      </trkpt>
      <trkpt lat="39.06751" lon="-8.08147">
        <ele>154.1448</ele>
        <time>2021-07-10T11:18:50Z</time>
      </trkpt>
      <trkpt lat="39.06685" lon="-8.08031">
        <ele>153.8799</ele>
        <time>2021-07-10T11:19:01Z</time>
      </trkpt>
      <trkpt lat="39.06639" lon="-8.07875">
        <ele>152.8398</ele>
        <time>2021-07-10T11:19:12Z</time>
      </trkpt>
      <trkpt lat="39.06578" lon="-8.07731">
        <ele>154.3811</ele>
        <time>2021-07-10T11:19:23Z</time>
      </trkpt>
      <trkpt lat="39.06478" lon="-8.07638">
        <ele>150.8704</ele>
        <time>2021-07-10T11:19:34Z</time>
      </trkpt>
      <trkpt lat="39.06363" lon="-8.07619">
        <ele>142.2534</ele>
        <time>2021-07-10T11:19:45Z</time>
      </trkpt>
      <trkpt lat="39.06262" lon="-8.07509">
        <ele>159.9783</ele>
        <time>2021-07-10T11:19:56Z</time>
      </trkpt>
      <trkpt lat="39.06235" lon="-8.07349">
        <ele>170.0786</ele>
        <time>2021-07-10T11:20:07Z</time>
      </trkpt>
      <trkpt lat="39.06289" lon="-8.07192">
        <ele>161.3333</ele>
        <time>2021-07-10T11:20:18Z</time>
      </trkpt>
      <trkpt lat="39.06234" lon="-8.07047">
        <ele>161.1974</ele>
        <time>2021-07-10T11:20:29Z</time>
      </trkpt>
      <trkpt lat="39.06118" lon="-8.06988">
        <ele>162.4943</ele>
        <time>2021-07-10T11:20:40Z</time>
      </trkpt>
      <trkpt lat="39.06014" lon="-8.06889">
        <ele>160.3359</ele>
        <time>2021-07-10T11:20:51Z</time>
      </trkpt>
      <trkpt lat="39.05925" lon="-8.06743">
        <ele>160.3848</ele>
        <time>2021-07-10T11:21:02Z</time>
      </trkpt>
      <trkpt lat="39.05855" lon="-8.06596">
        <ele>157.8528</ele>
        <time>2021-07-10T11:21:13Z</time>
      </trkpt>
      <trkpt lat="39.05861" lon="-8.06469">
        <ele>157.7805</ele>
        <time>2021-07-10T11:21:24Z</time>
      </trkpt>
      <trkpt lat="39.05945" lon="-8.06357">
        <ele>156.0283</ele>
        <time>2021-07-10T11:21:35Z</time>
      </trkpt>
      <trkpt lat="39.06002" lon="-8.06222">
        <ele>157.2807</ele>
        <time>2021-07-10T11:21:46Z</time>
      </trkpt>
      <trkpt lat="39.06021" lon="-8.06101">
        <ele>158.7707</ele>
        <time>2021-07-10T11:21:57Z</time>
      </trkpt>
      <trkpt lat="39.05952" lon="-8.05979">
        <ele>163.3254</ele>
        <time>2021-07-10T11:22:08Z</time>
      </trkpt>
      <trkpt lat="39.05898" lon="-8.05854">
        <ele>166.8632</ele>
        <time>2021-07-10T11:22:19Z</time>
      </trkpt>
      <trkpt lat="39.05898" lon="-8.05678">
        <ele>166.8758</ele>
        <time>2021-07-10T11:22:30Z</time>
      </trkpt>
      <trkpt lat="39.05895" lon="-8.0552">
        <ele>163.2625</ele>
        <time>2021-07-10T11:22:41Z</time>
      </trkpt>
      <trkpt lat="39.05958" lon="-8.05348">
        <ele>159.2068</ele>
        <time>2021-07-10T11:22:52Z</time>
      </trkpt>
      <trkpt lat="39.05996" lon="-8.05194">
        <ele>157.3825</ele>
        <time>2021-07-10T11:23:03Z</time>
      </trkpt>
      <trkpt lat="39.05991" lon="-8.05053">
        <ele>158.5843</ele>
        <time>2021-07-10T11:23:14Z</time>
      </trkpt>
      <trkpt lat="39.06022" lon="-8.04872">
        <ele>163.7735</ele>
        <time>2021-07-10T11:23:25Z</time>
      </trkpt>
      <trkpt lat="39.06101" lon="-8.04763">
        <ele>165.9422</ele>
        <time>2021-07-10T11:23:36Z</time>
      </trkpt>
      <trkpt lat="39.06158" lon="-8.04643">
        <ele>165.515</ele>
        <time>2021-07-10T11:23:47Z</time>
      </trkpt>
      <trkpt lat="39.06202" lon="-8.04519">
        <ele>164.9694</ele>
        <time>2021-07-10T11:23:58Z</time>
      </trkpt>
      <trkpt lat="39.06183" lon="-8.0434">
        <ele>165.9906</ele>
        <time>2021-07-10T11:24:09Z</time>
      </trkpt>
      <trkpt lat="39.06141" lon="-8.042">
        <ele>160.4461</ele>
        <time>2021-07-10T11:24:20Z</time>
      </trkpt>
      <trkpt lat="39.06117" lon="-8.04068">
        <ele>170.5618</ele>
        <time>2021-07-10T11:24:31Z</time>
      </trkpt>
      <trkpt lat="39.06088" lon="-8.03939">
        <ele>179.0742</ele>
        <time>2021-07-10T11:24:42Z</time>
      </trkpt>
      <trkpt lat="39.0607" lon="-8.0378">
        <ele>178.4287</ele>
        <time>2021-07-10T11:24:53Z</time>
      </trkpt>
      <trkpt lat="39.05978" lon="-8.03651">
        <ele>175.1518</ele>
        <time>2021-07-10T11:25:04Z</time>
      </trkpt>
      <trkpt lat="39.05893" lon="-8.03506">
        <ele>170.7609</ele>
        <time>2021-07-10T11:25:15Z</time>
      </trkpt>
      <trkpt lat="39.0587" lon="-8.03467">
        <ele>176.0352</ele>
        <time>2021-07-10T11:25:26Z</time>
      </trkpt>
      <trkpt lat="39.05718" lon="-8.03401">
        <ele>180.0243</ele>
        <time>2021-07-10T11:25:37Z</time>
      </trkpt>
      <trkpt lat="39.05542" lon="-8.03392">
        <ele>175.7656</ele>
        <time>2021-07-10T11:25:48Z</time>
      </trkpt>
      <trkpt lat="39.05308" lon="-8.03457">
        <ele>174.3754</ele>
        <time>2021-07-10T11:25:59Z</time>
      </trkpt>
      <trkpt lat="39.05095" lon="-8.03534">
        <ele>168.7827</ele>
        <time>2021-07-10T11:26:10Z</time>
      </trkpt>
      <trkpt lat="39.04836" lon="-8.03551">
        <ele>164.5471</ele>
        <time>2021-07-10T11:26:21Z</time>
      </trkpt>
      <trkpt lat="39.04608" lon="-8.03556">
        <ele>162.8776</ele>
        <time>2021-07-10T11:26:32Z</time>
      </trkpt>
      <trkpt lat="39.04375" lon="-8.03612">
        <ele>161.6314</ele>
        <time>2021-07-10T11:26:43Z</time>
      </trkpt>
      <trkpt lat="39.04151" lon="-8.0373">
        <ele>149.7187</ele>
        <time>2021-07-10T11:26:54Z</time>
      </trkpt>
      <trkpt lat="39.03928" lon="-8.038">
        <ele>158.615</ele>
        <time>2021-07-10T11:27:05Z</time>
      </trkpt>
      <trkpt lat="39.03712" lon="-8.03859">
        <ele>157.7716</ele>
        <time>2021-07-10T11:27:16Z</time>
      </trkpt>
      <trkpt lat="39.03485" lon="-8.03874">
        <ele>149.6393</ele>
        <time>2021-07-10T11:27:27Z</time>
      </trkpt>
      <trkpt lat="39.03259" lon="-8.03851">
        <ele>135.9584</ele>
        <time>2021-07-10T11:27:38Z</time>
      </trkpt>
      <trkpt lat="39.03104" lon="-8.03835">
        <ele>134.7224</ele>
        <time>2021-07-10T11:27:49Z</time>
      </trkpt>
      <trkpt lat="39.03115" lon="-8.03756">
        <ele>136.9363</ele>
        <time>2021-07-10T11:28:00Z</time>
      </trkpt>
      <trkpt lat="39.0314" lon="-8.03604">
        <ele>136.6266</ele>
        <time>2021-07-10T11:28:11Z</time>
      </trkpt>
      <trkpt lat="39.03208" lon="-8.03502">
        <ele>151.5056</ele>
        <time>2021-07-10T11:28:22Z</time>
      </trkpt>
      <trkpt lat="39.03267" lon="-8.03391">
        <ele>155.2038</ele>
        <time>2021-07-10T11:28:33Z</time>
      </trkpt>
      <trkpt lat="39.03297" lon="-8.03268">
        <ele>151.0256</ele>
        <time>2021-07-10T11:28:44Z</time>
      </trkpt>
      <trkpt lat="39.03298" lon="-8.0308">
        <ele>155.6786</ele>
        <time>2021-07-10T11:28:55Z</time>
      </trkpt>
      <trkpt lat="39.0329" lon="-8.02871">
        <ele>163.4229</ele>
        <time>2021-07-10T11:29:06Z</time>
      </trkpt>
      <trkpt lat="39.033" lon="-8.02678">
        <ele>158.944</ele>
        <time>2021-07-10T11:29:17Z</time>
      </trkpt>
      <trkpt lat="39.03295" lon="-8.02474">
        <ele>167.0399</ele>
        <time>2021-07-10T11:29:28Z</time>
      </trkpt>
      <trkpt lat="39.03326" lon="-8.02303">
        <ele>167.8536</ele>
        <time>2021-07-10T11:29:39Z</time>
      </trkpt>
      <trkpt lat="39.03425" lon="-8.02208">
        <ele>166.2295</ele>
        <time>2021-07-10T11:29:50Z</time>
      </trkpt>
      <trkpt lat="39.03491" lon="-8.02069">
        <ele>165.2053</ele>
        <time>2021-07-10T11:30:02Z</time>
      </trkpt>
      <trkpt lat="39.03524" lon="-8.01869">
        <ele>172.5633</ele>
        <time>2021-07-10T11:30:13Z</time>
      </trkpt>
      <trkpt lat="39.0361" lon="-8.01678">
        <ele>161.9811</ele>
        <time>2021-07-10T11:30:24Z</time>
      </trkpt>
      <trkpt lat="39.03722" lon="-8.01563">
        <ele>164.0275</ele>
        <time>2021-07-10T11:30:35Z</time>
      </trkpt>
      <trkpt lat="39.03811" lon="-8.01425">
        <ele>173.4406</ele>
        <time>2021-07-10T11:30:46Z</time>
      </trkpt>
      <trkpt lat="39.03861" lon="-8.0126">
        <ele>177.3749</ele>
        <time>2021-07-10T11:30:57Z</time>
      </trkpt>
      <trkpt lat="39.03851" lon="-8.0111">
        <ele>173.8271</ele>
        <time>2021-07-10T11:31:08Z</time>
      </trkpt>
      <trkpt lat="39.03791" lon="-8.00942">
        <ele>175.7967</ele>
        <time>2021-07-10T11:31:19Z</time>
      </trkpt>
      <trkpt lat="39.03782" lon="-8.00828">
        <ele>172.1985</ele>
        <time>2021-07-10T11:31:30Z</time>
      </trkpt>
      <trkpt lat="39.03764" lon="-8.00802">
        <ele>170.4376</ele>
        <time>2021-07-10T11:31:41Z</time>
      </trkpt>
      <trkpt lat="39.03751" lon="-8.00789">
        <ele>169.7695</ele>
        <time>2021-07-10T11:31:52Z</time>
      </trkpt>
      <trkpt lat="39.0369" lon="-8.00688">
        <ele>165.7816</ele>
        <time>2021-07-10T11:32:03Z</time>
      </trkpt>
      <trkpt lat="39.03637" lon="-8.00545">
        <ele>174.0494</ele>
        <time>2021-07-10T11:32:14Z</time>
      </trkpt>
      <trkpt lat="39.03559" lon="-8.00434">
        <ele>179.2246</ele>
        <time>2021-07-10T11:32:25Z</time>
      </trkpt>
      <trkpt lat="39.0345" lon="-8.00364">
        <ele>180.3377</ele>
        <time>2021-07-10T11:32:36Z</time>
      </trkpt>
      <trkpt lat="39.03389" lon="-8.00243">
        <ele>178.506</ele>
        <time>2021-07-10T11:32:47Z</time>
      </trkpt>
      <trkpt lat="39.03349" lon="-8.00068">
        <ele>181.0199</ele>
        <time>2021-07-10T11:32:58Z</time>
      </trkpt>
      <trkpt lat="39.03287" lon="-7.99873">
        <ele>169.1216</ele>
        <time>2021-07-10T11:33:09Z</time>
      </trkpt>
      <trkpt lat="39.03197" lon="-7.99736">
        <ele>155.9373</ele>
        <time>2021-07-10T11:33:20Z</time>
      </trkpt>
      <trkpt lat="39.03089" lon="-7.99614">
        <ele>163.7974</ele>
        <time>2021-07-10T11:33:31Z</time>
      </trkpt>
      <trkpt lat="39.02973" lon="-7.99486">
        <ele>167.3938</ele>
        <time>2021-07-10T11:33:42Z</time>
      </trkpt>
      <trkpt lat="39.02865" lon="-7.99357">
        <ele>167.2991</ele>
        <time>2021-07-10T11:33:53Z</time>
      </trkpt>
      <trkpt lat="39.02724" lon="-7.99311">
        <ele>167.8588</ele>
        <time>2021-07-10T11:34:04Z</time>
      </trkpt>
      <trkpt lat="39.02605" lon="-7.99211">
        <ele>176.2354</ele>
        <time>2021-07-10T11:34:15Z</time>
      </trkpt>
      <trkpt lat="39.0253" lon="-7.99095">
        <ele>185.9106</ele>
        <time>2021-07-10T11:34:26Z</time>
      </trkpt>
      <trkpt lat="39.02508" lon="-7.98911">
        <ele>187.4813</ele>
        <time>2021-07-10T11:34:37Z</time>
      </trkpt>
      <trkpt lat="39.02476" lon="-7.98742">
        <ele>184.179</ele>
        <time>2021-07-10T11:34:48Z</time>
      </trkpt>
      <trkpt lat="39.02503" lon="-7.98583">
        <ele>179.3819</ele>
        <time>2021-07-10T11:34:59Z</time>
      </trkpt>
      <trkpt lat="39.0249" lon="-7.98421">
        <ele>173.2203</ele>
        <time>2021-07-10T11:35:10Z</time>
      </trkpt>
      <trkpt lat="39.02411" lon="-7.98236">
        <ele>160.8116</ele>
        <time>2021-07-10T11:35:21Z</time>
      </trkpt>
      <trkpt lat="39.02283" lon="-7.9815">
        <ele>164.1277</ele>
        <time>2021-07-10T11:35:32Z</time>
      </trkpt>
      <trkpt lat="39.02137" lon="-7.98131">
        <ele>174.2645</ele>
        <time>2021-07-10T11:35:43Z</time>
      </trkpt>
      <trkpt lat="39.02008" lon="-7.98039">
        <ele>176.811</ele>
        <time>2021-07-10T11:35:54Z</time>
      </trkpt>
      <trkpt lat="39.01905" lon="-7.97945">
        <ele>181.8947</ele>
        <time>2021-07-10T11:36:05Z</time>
      </trkpt>
      <trkpt lat="39.01827" lon="-7.97849">
        <ele>166.1506</ele>
        <time>2021-07-10T11:36:16Z</time>
      </trkpt>
      <trkpt lat="39.01738" lon="-7.97773">
        <ele>164.1002</ele>
        <time>2021-07-10T11:36:27Z</time>
      </trkpt>
      <trkpt lat="39.01696" lon="-7.97686">
        <ele>130.4274</ele>
        <time>2021-07-10T11:36:38Z</time>
      </trkpt>
      <trkpt lat="39.01643" lon="-7.97577">
        <ele>131.4185</ele>
        <time>2021-07-10T11:36:49Z</time>
      </trkpt>
      <trkpt lat="39.01622" lon="-7.97474">
        <ele>124.2818</ele>
        <time>2021-07-10T11:37:00Z</time>
      </trkpt>
      <trkpt lat="39.01598" lon="-7.97408">
        <ele>112.9727</ele>
        <time>2021-07-10T11:37:11Z</time>
      </trkpt>
      <trkpt lat="39.01541" lon="-7.97319">
        <ele>125.5268</ele>
        <time>2021-07-10T11:37:22Z</time>
      </trkpt>
      <trkpt lat="39.01486" lon="-7.97326">
        <ele>147.0911</ele>
        <time>2021-07-10T11:37:33Z</time>
      </trkpt>
      <trkpt lat="39.0154" lon="-7.97452">
        <ele>167.7707</ele>
        <time>2021-07-10T11:37:44Z</time>
      </trkpt>
      <trkpt lat="39.01582" lon="-7.9753">
        <ele>166.3202</ele>
        <time>2021-07-10T11:37:55Z</time>
      </trkpt>
      <trkpt lat="39.01519" lon="-7.9758">
        <ele>150.8864</ele>
        <time>2021-07-10T11:38:06Z</time>
      </trkpt>
      <trkpt lat="39.01446" lon="-7.97633">
        <ele>128.6335</ele>
        <time>2021-07-10T11:38:17Z</time>
      </trkpt>
      <trkpt lat="39.01449" lon="-7.97734">
        <ele>128.125</ele>
        <time>2021-07-10T11:38:28Z</time>
      </trkpt>
      <trkpt lat="39.01344" lon="-7.97787">
        <ele>152.5809</ele>
        <time>2021-07-10T11:38:39Z</time>
      </trkpt>
      <trkpt lat="39.01256" lon="-7.97688">
        <ele>175.5232</ele>
        <time>2021-07-10T11:38:50Z</time>
      </trkpt>
      <trkpt lat="39.01149" lon="-7.97605">
        <ele>178.3159</ele>
        <time>2021-07-10T11:39:01Z</time>
      </trkpt>
      <trkpt lat="39.0104" lon="-7.97494">
        <ele>180.898</ele>
        <time>2021-07-10T11:39:12Z</time>
      </trkpt>
      <trkpt lat="39.01011" lon="-7.97481">
        <ele>181.0088</ele>
        <time>2021-07-10T11:39:23Z</time>
      </trkpt>
      <trkpt lat="39.0099" lon="-7.97399">
        <ele>179.7786</ele>
        <time>2021-07-10T11:39:34Z</time>
      </trkpt>
      <trkpt lat="39.0097" lon="-7.97416">
        <ele>178.1803</ele>
        <time>2021-07-10T11:39:45Z</time>
      </trkpt>
      <trkpt lat="39.00964" lon="-7.97586">
        <ele>172.6186</ele>
        <time>2021-07-10T11:39:56Z</time>
      </trkpt>
      <trkpt lat="39.01021" lon="-7.97782">
        <ele>160.7396</ele>
        <time>2021-07-10T11:40:07Z</time>
      </trkpt>
      <trkpt lat="39.00993" lon="-7.98001">
        <ele>146.3645</ele>
        <time>2021-07-10T11:40:18Z</time>
      </trkpt>
      <trkpt lat="39.0089" lon="-7.98195">
        <ele>131.2227</ele>
        <time>2021-07-10T11:40:29Z</time>
      </trkpt>
      <trkpt lat="39.00832" lon="-7.98405">
        <ele>118.6622</ele>
        <time>2021-07-10T11:40:40Z</time>
      </trkpt>
      <trkpt lat="39.00812" lon="-7.98641">
        <ele>100.7582</ele>
        <time>2021-07-10T11:40:51Z</time>
      </trkpt>
      <trkpt lat="39.0082" lon="-7.98936">
        <ele>91.53151</ele>
        <time>2021-07-10T11:41:02Z</time>
      </trkpt>
      <trkpt lat="39.00756" lon="-7.99192">
        <ele>99.91436</ele>
        <time>2021-07-10T11:41:13Z</time>
      </trkpt>
      <trkpt lat="39.00576" lon="-7.9936">
        <ele>101.1078</ele>
        <time>2021-07-10T11:41:24Z</time>
      </trkpt>
      <trkpt lat="39.0041" lon="-7.99577">
        <ele>100.2967</ele>
        <time>2021-07-10T11:41:35Z</time>
      </trkpt>
      <trkpt lat="39.00297" lon="-7.99682">
        <ele>103.4686</ele>
        <time>2021-07-10T11:41:46Z</time>
      </trkpt>
      <trkpt lat="39.00182" lon="-7.99779">
        <ele>99.50685</ele>
        <time>2021-07-10T11:41:57Z</time>
      </trkpt>
      <trkpt lat="39.00123" lon="-7.99928">
        <ele>96.16825</ele>
        <time>2021-07-10T11:42:08Z</time>
      </trkpt>
      <trkpt lat="39.00031" lon="-8.0016">
        <ele>94.29026</ele>
        <time>2021-07-10T11:42:19Z</time>
      </trkpt>
      <trkpt lat="38.99956" lon="-8.00355">
        <ele>94.12164</ele>
        <time>2021-07-10T11:42:30Z</time>
      </trkpt>
      <trkpt lat="38.99882" lon="-8.0046">
        <ele>94.36454</ele>
        <time>2021-07-10T11:42:41Z</time>
      </trkpt>
      <trkpt lat="38.99772" lon="-8.00504">
        <ele>91.34095</ele>
        <time>2021-07-10T11:42:52Z</time>
      </trkpt>
      <trkpt lat="38.99715" lon="-8.00545">
        <ele>89.194</ele>
        <time>2021-07-10T11:43:03Z</time>
      </trkpt>
      <trkpt lat="38.99705" lon="-8.00589">
        <ele>87.68689</ele>
        <time>2021-07-10T11:43:14Z</time>
      </trkpt>
      <trkpt lat="38.99706" lon="-8.00534">
        <ele>87.80487</ele>
        <time>2021-07-10T11:43:25Z</time>
      </trkpt>
      <trkpt lat="38.99664" lon="-8.00524">
        <ele>90.46282</ele>
        <time>2021-07-10T11:43:36Z</time>
      </trkpt>
      <trkpt lat="38.99646" lon="-8.00513">
        <ele>90.80957</ele>
        <time>2021-07-10T11:43:47Z</time>
      </trkpt>
      <trkpt lat="38.99673" lon="-8.00526">
        <ele>89.26576</ele>
        <time>2021-07-10T11:43:58Z</time>
      </trkpt>
      <trkpt lat="38.99704" lon="-8.00532">
        <ele>88.4733</ele>
        <time>2021-07-10T11:44:09Z</time>
      </trkpt>
      <trkpt lat="38.99704" lon="-8.00533">
        <ele>88.23481</ele>
        <time>2021-07-10T11:45:09Z</time>
      </trkpt>
      <trkpt lat="38.99704" lon="-8.0054">
        <ele>89.79403</ele>
        <time>2021-07-10T11:45:51Z</time>
      </trkpt>
      <trkpt lat="38.9973" lon="-8.0052">
        <ele>90.93965</ele>
        <time>2021-07-10T11:46:02Z</time>
      </trkpt>
      <trkpt lat="38.99672" lon="-8.0047">
        <ele>92.04435</ele>
        <time>2021-07-10T11:46:13Z</time>
      </trkpt>
      <trkpt lat="38.99558" lon="-8.00451">
        <ele>85.55643</ele>
        <time>2021-07-10T11:46:24Z</time>
      </trkpt>
      <trkpt lat="38.9939" lon="-8.00501">
        <ele>94.60702</ele>
        <time>2021-07-10T11:46:35Z</time>
      </trkpt>
      <trkpt lat="38.99253" lon="-8.00569">
        <ele>94.68012</ele>
        <time>2021-07-10T11:46:46Z</time>
      </trkpt>
      <trkpt lat="38.99102" lon="-8.00548">
        <ele>95.27317</ele>
        <time>2021-07-10T11:46:57Z</time>
      </trkpt>
      <trkpt lat="38.9893" lon="-8.0051">
        <ele>95.05886</ele>
        <time>2021-07-10T11:47:08Z</time>
      </trkpt>
      <trkpt lat="38.98852" lon="-8.00488">
        <ele>94.28163</ele>
        <time>2021-07-10T11:47:19Z</time>
      </trkpt>
      <trkpt lat="38.98849" lon="-8.00487">
        <ele>93.83306</ele>
        <time>2021-07-10T11:47:30Z</time>
      </trkpt>
      <trkpt lat="38.98838" lon="-8.00486">
        <ele>93.4997</ele>
        <time>2021-07-10T11:48:04Z</time>
      </trkpt>
      <trkpt lat="38.98738" lon="-8.00452">
        <ele>93.32764</ele>
        <time>2021-07-10T11:48:15Z</time>
      </trkpt>
      <trkpt lat="38.98598" lon="-8.00414">
        <ele>92.2176</ele>
        <time>2021-07-10T11:48:26Z</time>
      </trkpt>
      <trkpt lat="38.98455" lon="-8.00371">
        <ele>91.86513</ele>
        <time>2021-07-10T11:48:37Z</time>
      </trkpt>
      <trkpt lat="38.9832" lon="-8.00313">
        <ele>92.47821</ele>
        <time>2021-07-10T11:48:48Z</time>
      </trkpt>
      <trkpt lat="38.98208" lon="-8.00247">
        <ele>88.74209</ele>
        <time>2021-07-10T11:48:59Z</time>
      </trkpt>
      <trkpt lat="38.98083" lon="-8.00204">
        <ele>89.49352</ele>
        <time>2021-07-10T11:49:10Z</time>
      </trkpt>
      <trkpt lat="38.97971" lon="-8.00116">
        <ele>86.87166</ele>
        <time>2021-07-10T11:49:21Z</time>
      </trkpt>
      <trkpt lat="38.97873" lon="-8.00037">
        <ele>87.97566</ele>
        <time>2021-07-10T11:49:32Z</time>
      </trkpt>
      <trkpt lat="38.97747" lon="-7.99965">
        <ele>90.15953</ele>
        <time>2021-07-10T11:49:43Z</time>
      </trkpt>
      <trkpt lat="38.97645" lon="-7.99864">
        <ele>92.24226</ele>
        <time>2021-07-10T11:49:54Z</time>
      </trkpt>
      <trkpt lat="38.97507" lon="-7.99809">
        <ele>92.2161</ele>
        <time>2021-07-10T11:50:05Z</time>
      </trkpt>
      <trkpt lat="38.97344" lon="-7.99772">
        <ele>92.88649</ele>
        <time>2021-07-10T11:50:16Z</time>
      </trkpt>
      <trkpt lat="38.97183" lon="-7.99739">
        <ele>91.07033</ele>
        <time>2021-07-10T11:50:27Z</time>
      </trkpt>
      <trkpt lat="38.97012" lon="-7.99701">
        <ele>89.45235</ele>
        <time>2021-07-10T11:50:38Z</time>
      </trkpt>
      <trkpt lat="38.96839" lon="-7.99664">
        <ele>91.254</ele>
        <time>2021-07-10T11:50:49Z</time>
      </trkpt>
      <trkpt lat="38.96715" lon="-7.99674">
        <ele>90.538</ele>
        <time>2021-07-10T11:51:00Z</time>
      </trkpt>
      <trkpt lat="38.96614" lon="-7.99693">
        <ele>91.68171</ele>
        <time>2021-07-10T11:51:11Z</time>
      </trkpt>
      <trkpt lat="38.96538" lon="-7.99535">
        <ele>91.19035</ele>
        <time>2021-07-10T11:51:22Z</time>
      </trkpt>
      <trkpt lat="38.96455" lon="-7.99517">
        <ele>96.92317</ele>
        <time>2021-07-10T11:51:33Z</time>
      </trkpt>
      <trkpt lat="38.96342" lon="-7.99529">
        <ele>100.896</ele>
        <time>2021-07-10T11:51:44Z</time>
      </trkpt>
      <trkpt lat="38.96296" lon="-7.99526">
        <ele>101.923</ele>
        <time>2021-07-10T11:51:55Z</time>
      </trkpt>
      <trkpt lat="38.96184" lon="-7.99678">
        <ele>102.1111</ele>
        <time>2021-07-10T11:52:06Z</time>
      </trkpt>
      <trkpt lat="38.96025" lon="-7.99892">
        <ele>102.4286</ele>
        <time>2021-07-10T11:52:17Z</time>
      </trkpt>
      <trkpt lat="38.9588" lon="-8.00086">
        <ele>101.0757</ele>
        <time>2021-07-10T11:52:28Z</time>
      </trkpt>
      <trkpt lat="38.95731" lon="-8.00268">
        <ele>96.71293</ele>
        <time>2021-07-10T11:52:39Z</time>
      </trkpt>
      <trkpt lat="38.95563" lon="-8.00379">
        <ele>100.7205</ele>
        <time>2021-07-10T11:52:50Z</time>
      </trkpt>
      <trkpt lat="38.95382" lon="-8.00498">
        <ele>107.8432</ele>
        <time>2021-07-10T11:53:01Z</time>
      </trkpt>
      <trkpt lat="38.95245" lon="-8.0059">
        <ele>102.1038</ele>
        <time>2021-07-10T11:53:12Z</time>
      </trkpt>
      <trkpt lat="38.95241" lon="-8.00593">
        <ele>102.4256</ele>
        <time>2021-07-10T11:53:23Z</time>
      </trkpt>
      <trkpt lat="38.95166" lon="-8.0065">
        <ele>104.207</ele>
        <time>2021-07-10T11:53:34Z</time>
      </trkpt>
      <trkpt lat="38.95005" lon="-8.00763">
        <ele>107.6255</ele>
        <time>2021-07-10T11:53:45Z</time>
      </trkpt>
      <trkpt lat="38.94899" lon="-8.00889">
        <ele>104.4869</ele>
        <time>2021-07-10T11:53:56Z</time>
      </trkpt>
      <trkpt lat="38.94868" lon="-8.01087">
        <ele>100.8352</ele>
        <time>2021-07-10T11:54:07Z</time>
      </trkpt>
      <trkpt lat="38.94819" lon="-8.01394">
        <ele>95.41297</ele>
        <time>2021-07-10T11:54:18Z</time>
      </trkpt>
      <trkpt lat="38.94739" lon="-8.01697">
        <ele>86.97742</ele>
        <time>2021-07-10T11:54:29Z</time>
      </trkpt>
      <trkpt lat="38.94664" lon="-8.01975">
        <ele>83.69189</ele>
        <time>2021-07-10T11:54:40Z</time>
      </trkpt>
      <trkpt lat="38.94663" lon="-8.02204">
        <ele>81.13246</ele>
        <time>2021-07-10T11:54:51Z</time>
      </trkpt>
      <trkpt lat="38.94682" lon="-8.02332">
        <ele>80.00319</ele>
        <time>2021-07-10T11:55:02Z</time>
      </trkpt>
      <trkpt lat="38.94702" lon="-8.02459">
        <ele>87.89282</ele>
        <time>2021-07-10T11:55:13Z</time>
      </trkpt>
      <trkpt lat="38.94584" lon="-8.02592">
        <ele>93.84065</ele>
        <time>2021-07-10T11:55:24Z</time>
      </trkpt>
      <trkpt lat="38.94413" lon="-8.02676">
        <ele>99.41362</ele>
        <time>2021-07-10T11:55:35Z</time>
      </trkpt>
      <trkpt lat="38.94295" lon="-8.02854">
        <ele>91.36805</ele>
        <time>2021-07-10T11:55:46Z</time>
      </trkpt>
      <trkpt lat="38.94216" lon="-8.0311">
        <ele>94.30852</ele>
        <time>2021-07-10T11:55:57Z</time>
      </trkpt>
      <trkpt lat="38.9426" lon="-8.03402">
        <ele>91.4119</ele>
        <time>2021-07-10T11:56:08Z</time>
      </trkpt>
      <trkpt lat="38.94313" lon="-8.0371">
        <ele>96.25673</ele>
        <time>2021-07-10T11:56:19Z</time>
      </trkpt>
      <trkpt lat="38.94371" lon="-8.04044">
        <ele>100.0508</ele>
        <time>2021-07-10T11:56:30Z</time>
      </trkpt>
      <trkpt lat="38.94413" lon="-8.04276">
        <ele>92.75456</ele>
        <time>2021-07-10T11:56:41Z</time>
      </trkpt>
      <trkpt lat="38.94559" lon="-8.04426">
        <ele>75.3359</ele>
        <time>2021-07-10T11:56:52Z</time>
      </trkpt>
      <trkpt lat="38.94647" lon="-8.04654">
        <ele>71.77671</ele>
        <time>2021-07-10T11:57:03Z</time>
      </trkpt>
      <trkpt lat="38.94738" lon="-8.04944">
        <ele>86.43416</ele>
        <time>2021-07-10T11:57:14Z</time>
      </trkpt>
      <trkpt lat="38.94835" lon="-8.05202">
        <ele>89.74611</ele>
        <time>2021-07-10T11:57:25Z</time>
      </trkpt>
      <trkpt lat="38.94892" lon="-8.0543">
        <ele>87.66692</ele>
        <time>2021-07-10T11:57:36Z</time>
      </trkpt>
      <trkpt lat="38.94848" lon="-8.05668">
        <ele>91.07042</ele>
        <time>2021-07-10T11:57:47Z</time>
      </trkpt>
      <trkpt lat="38.94885" lon="-8.05985">
        <ele>87.87162</ele>
        <time>2021-07-10T11:57:58Z</time>
      </trkpt>
      <trkpt lat="38.94866" lon="-8.06276">
        <ele>86.41266</ele>
        <time>2021-07-10T11:58:09Z</time>
      </trkpt>
      <trkpt lat="38.94819" lon="-8.06548">
        <ele>81.90789</ele>
        <time>2021-07-10T11:58:20Z</time>
      </trkpt>
      <trkpt lat="38.94735" lon="-8.06727">
        <ele>79.78842</ele>
        <time>2021-07-10T11:58:31Z</time>
      </trkpt>
      <trkpt lat="38.94721" lon="-8.06757">
        <ele>83.93887</ele>
        <time>2021-07-10T11:58:42Z</time>
      </trkpt>
      <trkpt lat="38.94719" lon="-8.06762">
        <ele>88.36419</ele>
        <time>2021-07-10T11:58:57Z</time>
      </trkpt>
      <trkpt lat="38.94799" lon="-8.06876">
        <ele>88.96603</ele>
        <time>2021-07-10T11:59:08Z</time>
      </trkpt>
      <trkpt lat="38.94955" lon="-8.06977">
        <ele>88.88124</ele>
        <time>2021-07-10T11:59:19Z</time>
      </trkpt>
      <trkpt lat="38.95098" lon="-8.07073">
        <ele>94.78866</ele>
        <time>2021-07-10T11:59:30Z</time>
      </trkpt>
      <trkpt lat="38.95125" lon="-8.07199">
        <ele>104.0965</ele>
        <time>2021-07-10T11:59:41Z</time>
      </trkpt>
      <trkpt lat="38.95159" lon="-8.07268">
        <ele>105.6012</ele>
        <time>2021-07-10T11:59:52Z</time>
      </trkpt>
      <trkpt lat="38.95174" lon="-8.07274">
        <ele>106.1997</ele>
        <time>2021-07-10T12:00:03Z</time>
      </trkpt>
      <trkpt lat="38.95207" lon="-8.07273">
        <ele>106.564</ele>
        <time>2021-07-10T12:00:14Z</time>
      </trkpt>
      <trkpt lat="38.95237" lon="-8.07313">
        <ele>109.4987</ele>
        <time>2021-07-10T12:00:25Z</time>
      </trkpt>
      <trkpt lat="38.9528" lon="-8.07412">
        <ele>99.74867</ele>
        <time>2021-07-10T12:00:36Z</time>
      </trkpt>
      <trkpt lat="38.95284" lon="-8.07435">
        <ele>103.6624</ele>
        <time>2021-07-10T12:00:47Z</time>
      </trkpt>
      <trkpt lat="38.95275" lon="-8.07425">
        <ele>108.7919</ele>
        <time>2021-07-10T12:00:58Z</time>
      </trkpt>
      <trkpt lat="38.95279" lon="-8.07425">
        <ele>115.8313</ele>
        <time>2021-07-10T12:01:44Z</time>
      </trkpt>
      <trkpt lat="38.95284" lon="-8.07432">
        <ele>115.3393</ele>
        <time>2021-07-10T12:01:55Z</time>
      </trkpt>
      <trkpt lat="38.95286" lon="-8.07435">
        <ele>121.3472</ele>
        <time>2021-07-10T12:02:26Z</time>
      </trkpt>
      <trkpt lat="38.95281" lon="-8.07433">
        <ele>122.3535</ele>
        <time>2021-07-10T12:02:40Z</time>
      </trkpt>
      <trkpt lat="38.95284" lon="-8.07431">
        <ele>125.4162</ele>
        <time>2021-07-10T12:03:04Z</time>
      </trkpt>
      <trkpt lat="38.95288" lon="-8.07431">
        <ele>125.605</ele>
        <time>2021-07-10T12:03:44Z</time>
      </trkpt>
      <trkpt lat="38.95291" lon="-8.07431">
        <ele>124.7793</ele>
        <time>2021-07-10T12:03:56Z</time>
      </trkpt>
      <trkpt lat="38.95288" lon="-8.07432">
        <ele>120.389</ele>
        <time>2021-07-10T12:04:32Z</time>
      </trkpt>
      <trkpt lat="38.95284" lon="-8.07434">
        <ele>120.6999</ele>
        <time>2021-07-10T12:05:11Z</time>
      </trkpt>
      <trkpt lat="38.95282" lon="-8.07431">
        <ele>114.0951</ele>
        <time>2021-07-10T12:05:29Z</time>
      </trkpt>
      <trkpt lat="38.95285" lon="-8.07429">
        <ele>115.562</ele>
        <time>2021-07-10T12:06:06Z</time>
      </trkpt>
      <trkpt lat="38.95281" lon="-8.07427">
        <ele>119.5748</ele>
        <time>2021-07-10T12:06:28Z</time>
      </trkpt>
      <trkpt lat="38.95285" lon="-8.07426">
        <ele>118.99</ele>
        <time>2021-07-10T12:06:40Z</time>
      </trkpt>
      <trkpt lat="38.95284" lon="-8.0743">
        <ele>118.8052</ele>
        <time>2021-07-10T12:07:32Z</time>
      </trkpt>
      <trkpt lat="38.95283" lon="-8.07426">
        <ele>115.2953</ele>
        <time>2021-07-10T12:08:29Z</time>
      </trkpt>
      <trkpt lat="38.95282" lon="-8.07427">
        <ele>110.8732</ele>
        <time>2021-07-10T12:09:29Z</time>
      </trkpt>
      <trkpt lat="38.95285" lon="-8.0743">
        <ele>115.7211</ele>
        <time>2021-07-10T12:10:11Z</time>
      </trkpt>
      <trkpt lat="38.95283" lon="-8.07426">
        <ele>114.2486</ele>
        <time>2021-07-10T12:10:28Z</time>
      </trkpt>
      <trkpt lat="38.9528" lon="-8.07422">
        <ele>109.5807</ele>
        <time>2021-07-10T12:10:48Z</time>
      </trkpt>
      <trkpt lat="38.95276" lon="-8.07419">
        <ele>109.5358</ele>
        <time>2021-07-10T12:11:05Z</time>
      </trkpt>
      <trkpt lat="38.95271" lon="-8.07417">
        <ele>103.2362</ele>
        <time>2021-07-10T12:11:26Z</time>
      </trkpt>
      <trkpt lat="38.95237" lon="-8.07365">
        <ele>107.2624</ele>
        <time>2021-07-10T12:11:37Z</time>
      </trkpt>
      <trkpt lat="38.95211" lon="-8.07313">
        <ele>108.1525</ele>
        <time>2021-07-10T12:11:48Z</time>
      </trkpt>
      <trkpt lat="38.95195" lon="-8.07243">
        <ele>107.2865</ele>
        <time>2021-07-10T12:11:59Z</time>
      </trkpt>
      <trkpt lat="38.95171" lon="-8.07165">
        <ele>107.3321</ele>
        <time>2021-07-10T12:12:10Z</time>
      </trkpt>
      <trkpt lat="38.95162" lon="-8.07132">
        <ele>105.2569</ele>
        <time>2021-07-10T12:12:21Z</time>
      </trkpt>
      <trkpt lat="38.95158" lon="-8.07129">
        <ele>105.7054</ele>
        <time>2021-07-10T12:12:44Z</time>
      </trkpt>
      <trkpt lat="38.95155" lon="-8.07178">
        <ele>104.6624</ele>
        <time>2021-07-10T12:12:55Z</time>
      </trkpt>
      <trkpt lat="38.95158" lon="-8.07245">
        <ele>104.7128</ele>
        <time>2021-07-10T12:13:06Z</time>
      </trkpt>
      <trkpt lat="38.95176" lon="-8.07273">
        <ele>108.7769</ele>
        <time>2021-07-10T12:13:17Z</time>
      </trkpt>
      <trkpt lat="38.95212" lon="-8.07276">
        <ele>105.7562</ele>
        <time>2021-07-10T12:13:28Z</time>
      </trkpt>
      <trkpt lat="38.95251" lon="-8.07335">
        <ele>103.5438</ele>
        <time>2021-07-10T12:13:39Z</time>
      </trkpt>
      <trkpt lat="38.95283" lon="-8.07415">
        <ele>99.04358</ele>
        <time>2021-07-10T12:13:50Z</time>
      </trkpt>
      <trkpt lat="38.95328" lon="-8.07452">
        <ele>100.0406</ele>
        <time>2021-07-10T12:14:01Z</time>
      </trkpt>
      <trkpt lat="38.95429" lon="-8.07487">
        <ele>106.0676</ele>
        <time>2021-07-10T12:14:12Z</time>
      </trkpt>
      <trkpt lat="38.95471" lon="-8.07502">
        <ele>111.6393</ele>
        <time>2021-07-10T12:14:23Z</time>
      </trkpt>
      <trkpt lat="38.95482" lon="-8.07482">
        <ele>111.843</ele>
        <time>2021-07-10T12:14:34Z</time>
      </trkpt>
      <trkpt lat="38.95483" lon="-8.07484">
        <ele>110.5453</ele>
        <time>2021-07-10T12:15:34Z</time>
      </trkpt>
      <trkpt lat="38.95485" lon="-8.07481">
        <ele>110.7773</ele>
        <time>2021-07-10T12:16:34Z</time>
      </trkpt>
      <trkpt lat="38.95488" lon="-8.07477">
        <ele>111.3696</ele>
        <time>2021-07-10T12:16:53Z</time>
      </trkpt>
      <trkpt lat="38.95532" lon="-8.07389">
        <ele>106.2599</ele>
        <time>2021-07-10T12:17:04Z</time>
      </trkpt>
      <trkpt lat="38.95502" lon="-8.07337">
        <ele>101.5783</ele>
        <time>2021-07-10T12:17:15Z</time>
      </trkpt>
      <trkpt lat="38.95487" lon="-8.0733">
        <ele>101.5068</ele>
        <time>2021-07-10T12:17:26Z</time>
      </trkpt>
      <trkpt lat="38.95451" lon="-8.07312">
        <ele>101.0547</ele>
        <time>2021-07-10T12:17:37Z</time>
      </trkpt>
      <trkpt lat="38.95344" lon="-8.0731">
        <ele>102.4406</ele>
        <time>2021-07-10T12:17:48Z</time>
      </trkpt>
      <trkpt lat="38.95252" lon="-8.073">
        <ele>105.5653</ele>
        <time>2021-07-10T12:17:59Z</time>
      </trkpt>
      <trkpt lat="38.95244" lon="-8.07301">
        <ele>104.9009</ele>
        <time>2021-07-10T12:18:10Z</time>
      </trkpt>
      <trkpt lat="38.95243" lon="-8.07296">
        <ele>105.286</ele>
        <time>2021-07-10T12:18:24Z</time>
      </trkpt>
      <trkpt lat="38.95211" lon="-8.07265">
        <ele>105.2682</ele>
        <time>2021-07-10T12:18:35Z</time>
      </trkpt>
      <trkpt lat="38.95174" lon="-8.0727">
        <ele>106.7031</ele>
        <time>2021-07-10T12:18:46Z</time>
      </trkpt>
      <trkpt lat="38.95147" lon="-8.07335">
        <ele>104.3252</ele>
        <time>2021-07-10T12:18:57Z</time>
      </trkpt>
      <trkpt lat="38.95085" lon="-8.07356">
        <ele>94.94032</ele>
        <time>2021-07-10T12:19:08Z</time>
      </trkpt>
      <trkpt lat="38.94964" lon="-8.07426">
        <ele>85.23998</ele>
        <time>2021-07-10T12:19:19Z</time>
      </trkpt>
      <trkpt lat="38.94855" lon="-8.07494">
        <ele>82.1932</ele>
        <time>2021-07-10T12:19:30Z</time>
      </trkpt>
      <trkpt lat="38.94716" lon="-8.07587">
        <ele>80.57014</ele>
        <time>2021-07-10T12:19:41Z</time>
      </trkpt>
      <trkpt lat="38.94569" lon="-8.07645">
        <ele>78.23529</ele>
        <time>2021-07-10T12:19:52Z</time>
      </trkpt>
      <trkpt lat="38.94485" lon="-8.07688">
        <ele>76.74753</ele>
        <time>2021-07-10T12:20:03Z</time>
      </trkpt>
      <trkpt lat="38.9448" lon="-8.07692">
        <ele>76.53808</ele>
        <time>2021-07-10T12:20:14Z</time>
      </trkpt>
      <trkpt lat="38.94499" lon="-8.07793">
        <ele>77.00239</ele>
        <time>2021-07-10T12:20:25Z</time>
      </trkpt>
      <trkpt lat="38.94535" lon="-8.07949">
        <ele>73.18102</ele>
        <time>2021-07-10T12:20:36Z</time>
      </trkpt>
      <trkpt lat="38.94547" lon="-8.08078">
        <ele>70.56731</ele>
        <time>2021-07-10T12:20:47Z</time>
      </trkpt>
      <trkpt lat="38.94505" lon="-8.08178">
        <ele>68.79451</ele>
        <time>2021-07-10T12:20:58Z</time>
      </trkpt>
      <trkpt lat="38.94384" lon="-8.08163">
        <ele>66.5209</ele>
        <time>2021-07-10T12:21:09Z</time>
      </trkpt>
      <trkpt lat="38.94271" lon="-8.08182">
        <ele>64.27395</ele>
        <time>2021-07-10T12:21:20Z</time>
      </trkpt>
      <trkpt lat="38.94289" lon="-8.08286">
        <ele>63.58496</ele>
        <time>2021-07-10T12:21:31Z</time>
      </trkpt>
      <trkpt lat="38.94321" lon="-8.08371">
        <ele>63.248</ele>
        <time>2021-07-10T12:21:42Z</time>
      </trkpt>
      <trkpt lat="38.94352" lon="-8.08487">
        <ele>62.79</ele>
        <time>2021-07-10T12:21:53Z</time>
      </trkpt>
      <trkpt lat="38.94401" lon="-8.0864">
        <ele>64.33738</ele>
        <time>2021-07-10T12:22:04Z</time>
      </trkpt>
      <trkpt lat="38.94463" lon="-8.08655">
        <ele>68.93123</ele>
        <time>2021-07-10T12:22:15Z</time>
      </trkpt>
      <trkpt lat="38.94511" lon="-8.08649">
        <ele>68.44685</ele>
        <time>2021-07-10T12:22:26Z</time>
      </trkpt>
      <trkpt lat="38.94507" lon="-8.08647">
        <ele>69.96255</ele>
        <time>2021-07-10T12:22:37Z</time>
      </trkpt>
      <trkpt lat="38.94462" lon="-8.08716">
        <ele>72.13622</ele>
        <time>2021-07-10T12:22:48Z</time>
      </trkpt>
      <trkpt lat="38.94494" lon="-8.08851">
        <ele>85.29087</ele>
        <time>2021-07-10T12:22:59Z</time>
      </trkpt>
      <trkpt lat="38.94585" lon="-8.08878">
        <ele>87.27638</ele>
        <time>2021-07-10T12:23:10Z</time>
      </trkpt>
      <trkpt lat="38.94671" lon="-8.0888">
        <ele>89.39598</ele>
        <time>2021-07-10T12:23:21Z</time>
      </trkpt>
      <trkpt lat="38.94725" lon="-8.08896">
        <ele>95.29795</ele>
        <time>2021-07-10T12:23:32Z</time>
      </trkpt>
      <trkpt lat="38.9478" lon="-8.08982">
        <ele>107.6081</ele>
        <time>2021-07-10T12:23:43Z</time>
      </trkpt>
      <trkpt lat="38.94823" lon="-8.09077">
        <ele>114.1545</ele>
        <time>2021-07-10T12:23:54Z</time>
      </trkpt>
      <trkpt lat="38.94866" lon="-8.09191">
        <ele>117.0339</ele>
        <time>2021-07-10T12:24:05Z</time>
      </trkpt>
      <trkpt lat="38.94904" lon="-8.0932">
        <ele>126.7489</ele>
        <time>2021-07-10T12:24:16Z</time>
      </trkpt>
      <trkpt lat="38.94989" lon="-8.09417">
        <ele>131.3899</ele>
        <time>2021-07-10T12:24:27Z</time>
      </trkpt>
      <trkpt lat="38.95011" lon="-8.09546">
        <ele>130.9374</ele>
        <time>2021-07-10T12:24:38Z</time>
      </trkpt>
      <trkpt lat="38.95" lon="-8.09607">
        <ele>124.8298</ele>
        <time>2021-07-10T12:24:49Z</time>
      </trkpt>
      <trkpt lat="38.9501" lon="-8.09666">
        <ele>119.735</ele>
        <time>2021-07-10T12:25:00Z</time>
      </trkpt>
      <trkpt lat="38.95015" lon="-8.09698">
        <ele>115.5578</ele>
        <time>2021-07-10T12:25:11Z</time>
      </trkpt>
      <trkpt lat="38.95031" lon="-8.09788">
        <ele>110.4479</ele>
        <time>2021-07-10T12:25:22Z</time>
      </trkpt>
      <trkpt lat="38.95079" lon="-8.09862">
        <ele>104.4184</ele>
        <time>2021-07-10T12:25:33Z</time>
      </trkpt>
      <trkpt lat="38.9515" lon="-8.09962">
        <ele>102.2793</ele>
        <time>2021-07-10T12:25:44Z</time>
      </trkpt>
      <trkpt lat="38.95165" lon="-8.10079">
        <ele>97.39908</ele>
        <time>2021-07-10T12:25:55Z</time>
      </trkpt>
      <trkpt lat="38.95234" lon="-8.10151">
        <ele>93.54796</ele>
        <time>2021-07-10T12:26:06Z</time>
      </trkpt>
      <trkpt lat="38.95315" lon="-8.10248">
        <ele>90.53042</ele>
        <time>2021-07-10T12:26:17Z</time>
      </trkpt>
      <trkpt lat="38.95405" lon="-8.10314">
        <ele>87.68347</ele>
        <time>2021-07-10T12:26:28Z</time>
      </trkpt>
      <trkpt lat="38.95428" lon="-8.10404">
        <ele>89.96659</ele>
        <time>2021-07-10T12:26:39Z</time>
      </trkpt>
      <trkpt lat="38.95414" lon="-8.10513">
        <ele>88.3862</ele>
        <time>2021-07-10T12:26:50Z</time>
      </trkpt>
      <trkpt lat="38.95461" lon="-8.1061">
        <ele>86.88981</ele>
        <time>2021-07-10T12:27:01Z</time>
      </trkpt>
      <trkpt lat="38.95493" lon="-8.10709">
        <ele>76.68014</ele>
        <time>2021-07-10T12:27:12Z</time>
      </trkpt>
      <trkpt lat="38.95501" lon="-8.1073">
        <ele>74.44185</ele>
        <time>2021-07-10T12:27:23Z</time>
      </trkpt>
      <trkpt lat="38.95508" lon="-8.10737">
        <ele>71.77814</ele>
        <time>2021-07-10T12:27:34Z</time>
      </trkpt>
      <trkpt lat="38.95492" lon="-8.10791">
        <ele>68.92646</ele>
        <time>2021-07-10T12:27:45Z</time>
      </trkpt>
      <trkpt lat="38.95485" lon="-8.10919">
        <ele>67.21877</ele>
        <time>2021-07-10T12:27:56Z</time>
      </trkpt>
      <trkpt lat="38.95476" lon="-8.11075">
        <ele>61.4774</ele>
        <time>2021-07-10T12:28:07Z</time>
      </trkpt>
      <trkpt lat="38.95489" lon="-8.1113">
        <ele>70.27143</ele>
        <time>2021-07-10T12:28:18Z</time>
      </trkpt>
      <trkpt lat="38.95548" lon="-8.11199">
        <ele>78.49578</ele>
        <time>2021-07-10T12:28:29Z</time>
      </trkpt>
      <trkpt lat="38.95506" lon="-8.11195">
        <ele>77.9348</ele>
        <time>2021-07-10T12:28:40Z</time>
      </trkpt>
      <trkpt lat="38.95403" lon="-8.11153">
        <ele>76.93978</ele>
        <time>2021-07-10T12:28:51Z</time>
      </trkpt>
      <trkpt lat="38.95325" lon="-8.11097">
        <ele>77.25735</ele>
        <time>2021-07-10T12:29:02Z</time>
      </trkpt>
      <trkpt lat="38.95251" lon="-8.11013">
        <ele>72.87327</ele>
        <time>2021-07-10T12:29:13Z</time>
      </trkpt>
      <trkpt lat="38.95194" lon="-8.10993">
        <ele>77.38736</ele>
        <time>2021-07-10T12:29:24Z</time>
      </trkpt>
      <trkpt lat="38.95149" lon="-8.11106">
        <ele>81.67473</ele>
        <time>2021-07-10T12:29:35Z</time>
      </trkpt>
      <trkpt lat="38.95102" lon="-8.11207">
        <ele>82.88674</ele>
        <time>2021-07-10T12:29:46Z</time>
      </trkpt>
      <trkpt lat="38.9512" lon="-8.11313">
        <ele>87.19265</ele>
        <time>2021-07-10T12:29:57Z</time>
      </trkpt>
      <trkpt lat="38.95154" lon="-8.11413">
        <ele>87.8914</ele>
        <time>2021-07-10T12:30:08Z</time>
      </trkpt>
      <trkpt lat="38.95131" lon="-8.11543">
        <ele>91.48994</ele>
        <time>2021-07-10T12:30:19Z</time>
      </trkpt>
      <trkpt lat="38.95076" lon="-8.11574">
        <ele>97.75689</ele>
        <time>2021-07-10T12:30:30Z</time>
      </trkpt>
      <trkpt lat="38.95018" lon="-8.11626">
        <ele>101.1112</ele>
        <time>2021-07-10T12:30:41Z</time>
      </trkpt>
      <trkpt lat="38.94969" lon="-8.11661">
        <ele>105.1383</ele>
        <time>2021-07-10T12:30:52Z</time>
      </trkpt>
      <trkpt lat="38.9488" lon="-8.11623">
        <ele>104.7381</ele>
        <time>2021-07-10T12:31:03Z</time>
      </trkpt>
      <trkpt lat="38.94787" lon="-8.11636">
        <ele>111.1906</ele>
        <time>2021-07-10T12:31:14Z</time>
      </trkpt>
      <trkpt lat="38.94698" lon="-8.11679">
        <ele>125.1284</ele>
        <time>2021-07-10T12:31:25Z</time>
      </trkpt>
      <trkpt lat="38.94656" lon="-8.11686">
        <ele>129.3186</ele>
        <time>2021-07-10T12:31:36Z</time>
      </trkpt>
      <trkpt lat="38.94619" lon="-8.11694">
        <ele>126.8822</ele>
        <time>2021-07-10T12:31:47Z</time>
      </trkpt>
      <trkpt lat="38.94564" lon="-8.11708">
        <ele>123.6563</ele>
        <time>2021-07-10T12:31:58Z</time>
      </trkpt>
      <trkpt lat="38.9451" lon="-8.11666">
        <ele>124.2569</ele>
        <time>2021-07-10T12:32:09Z</time>
      </trkpt>
      <trkpt lat="38.94443" lon="-8.11628">
        <ele>127.8714</ele>
        <time>2021-07-10T12:32:20Z</time>
      </trkpt>
      <trkpt lat="38.94364" lon="-8.11573">
        <ele>136.9828</ele>
        <time>2021-07-10T12:32:31Z</time>
      </trkpt>
      <trkpt lat="38.94324" lon="-8.11454">
        <ele>139.4001</ele>
        <time>2021-07-10T12:32:42Z</time>
      </trkpt>
      <trkpt lat="38.94255" lon="-8.11407">
        <ele>141.9975</ele>
        <time>2021-07-10T12:32:53Z</time>
      </trkpt>
      <trkpt lat="38.9422" lon="-8.11329">
        <ele>143.9554</ele>
        <time>2021-07-10T12:33:04Z</time>
      </trkpt>
      <trkpt lat="38.94183" lon="-8.11218">
        <ele>141.665</ele>
        <time>2021-07-10T12:33:15Z</time>
      </trkpt>
      <trkpt lat="38.94131" lon="-8.11127">
        <ele>145.5315</ele>
        <time>2021-07-10T12:33:26Z</time>
      </trkpt>
      <trkpt lat="38.94102" lon="-8.11108">
        <ele>144.7114</ele>
        <time>2021-07-10T12:33:37Z</time>
      </trkpt>
      <trkpt lat="38.94077" lon="-8.11201">
        <ele>152.3714</ele>
        <time>2021-07-10T12:33:48Z</time>
      </trkpt>
      <trkpt lat="38.94037" lon="-8.11293">
        <ele>156.3355</ele>
        <time>2021-07-10T12:33:59Z</time>
      </trkpt>
      <trkpt lat="38.93984" lon="-8.11335">
        <ele>156.6667</ele>
        <time>2021-07-10T12:34:10Z</time>
      </trkpt>
      <trkpt lat="38.93977" lon="-8.11344">
        <ele>158.1659</ele>
        <time>2021-07-10T12:34:21Z</time>
      </trkpt>
      <trkpt lat="38.93935" lon="-8.11332">
        <ele>156.4697</ele>
        <time>2021-07-10T12:34:32Z</time>
      </trkpt>
      <trkpt lat="38.93888" lon="-8.1131">
        <ele>151.5145</ele>
        <time>2021-07-10T12:34:43Z</time>
      </trkpt>
      <trkpt lat="38.93838" lon="-8.11288">
        <ele>152.2718</ele>
        <time>2021-07-10T12:34:54Z</time>
      </trkpt>
      <trkpt lat="38.93774" lon="-8.11268">
        <ele>150.3398</ele>
        <time>2021-07-10T12:35:05Z</time>
      </trkpt>
      <trkpt lat="38.93705" lon="-8.11287">
        <ele>147.8877</ele>
        <time>2021-07-10T12:35:16Z</time>
      </trkpt>
      <trkpt lat="38.93636" lon="-8.11319">
        <ele>145.8833</ele>
        <time>2021-07-10T12:35:27Z</time>
      </trkpt>
      <trkpt lat="38.93578" lon="-8.11359">
        <ele>142.986</ele>
        <time>2021-07-10T12:35:38Z</time>
      </trkpt>
      <trkpt lat="38.93519" lon="-8.11437">
        <ele>143.8838</ele>
        <time>2021-07-10T12:35:49Z</time>
      </trkpt>
      <trkpt lat="38.93511" lon="-8.11545">
        <ele>142.6557</ele>
        <time>2021-07-10T12:36:00Z</time>
      </trkpt>
      <trkpt lat="38.93482" lon="-8.11644">
        <ele>136.6189</ele>
        <time>2021-07-10T12:36:11Z</time>
      </trkpt>
      <trkpt lat="38.93431" lon="-8.11742">
        <ele>136.5414</ele>
        <time>2021-07-10T12:36:22Z</time>
      </trkpt>
      <trkpt lat="38.93354" lon="-8.11804">
        <ele>141.6676</ele>
        <time>2021-07-10T12:36:33Z</time>
      </trkpt>
      <trkpt lat="38.93302" lon="-8.11907">
        <ele>141.3777</ele>
        <time>2021-07-10T12:36:44Z</time>
      </trkpt>
      <trkpt lat="38.93297" lon="-8.11954">
        <ele>141.3439</ele>
        <time>2021-07-10T12:36:55Z</time>
      </trkpt>
      <trkpt lat="38.93294" lon="-8.11957">
        <ele>141.2334</ele>
        <time>2021-07-10T12:37:09Z</time>
      </trkpt>
      <trkpt lat="38.93297" lon="-8.11957">
        <ele>140.5378</ele>
        <time>2021-07-10T12:37:56Z</time>
      </trkpt>
      <trkpt lat="38.93298" lon="-8.11956">
        <ele>140.9421</ele>
        <time>2021-07-10T12:38:55Z</time>
      </trkpt>
      <trkpt lat="38.93295" lon="-8.1196">
        <ele>141.0967</ele>
        <time>2021-07-10T12:39:31Z</time>
      </trkpt>
      <trkpt lat="38.93295" lon="-8.11971">
        <ele>141.1258</ele>
        <time>2021-07-10T12:40:13Z</time>
      </trkpt>
      <trkpt lat="38.93284" lon="-8.12009">
        <ele>140.7828</ele>
        <time>2021-07-10T12:40:24Z</time>
      </trkpt>
      <trkpt lat="38.93371" lon="-8.12172">
        <ele>143.7233</ele>
        <time>2021-07-10T12:40:35Z</time>
      </trkpt>
      <trkpt lat="38.93531" lon="-8.12404">
        <ele>140.2421</ele>
        <time>2021-07-10T12:40:46Z</time>
      </trkpt>
      <trkpt lat="38.93748" lon="-8.12536">
        <ele>131.3478</ele>
        <time>2021-07-10T12:40:57Z</time>
      </trkpt>
      <trkpt lat="38.93914" lon="-8.12786">
        <ele>117.5373</ele>
        <time>2021-07-10T12:41:08Z</time>
      </trkpt>
      <trkpt lat="38.94085" lon="-8.12936">
        <ele>102.3416</ele>
        <time>2021-07-10T12:41:19Z</time>
      </trkpt>
      <trkpt lat="38.94197" lon="-8.13145">
        <ele>95.78899</ele>
        <time>2021-07-10T12:41:30Z</time>
      </trkpt>
      <trkpt lat="38.94297" lon="-8.13359">
        <ele>109.3938</ele>
        <time>2021-07-10T12:41:41Z</time>
      </trkpt>
      <trkpt lat="38.94351" lon="-8.1359">
        <ele>121.1034</ele>
        <time>2021-07-10T12:41:52Z</time>
      </trkpt>
      <trkpt lat="38.94384" lon="-8.13843">
        <ele>110.0243</ele>
        <time>2021-07-10T12:42:03Z</time>
      </trkpt>
      <trkpt lat="38.94431" lon="-8.14074">
        <ele>103.5405</ele>
        <time>2021-07-10T12:42:14Z</time>
      </trkpt>
      <trkpt lat="38.94535" lon="-8.14229">
        <ele>98.35802</ele>
        <time>2021-07-10T12:42:25Z</time>
      </trkpt>
      <trkpt lat="38.94598" lon="-8.14282">
        <ele>96.23052</ele>
        <time>2021-07-10T12:42:36Z</time>
      </trkpt>
      <trkpt lat="38.94602" lon="-8.14358">
        <ele>94.18763</ele>
        <time>2021-07-10T12:42:47Z</time>
      </trkpt>
      <trkpt lat="38.94599" lon="-8.14505">
        <ele>91.22061</ele>
        <time>2021-07-10T12:42:58Z</time>
      </trkpt>
      <trkpt lat="38.94595" lon="-8.14663">
        <ele>86.54147</ele>
        <time>2021-07-10T12:43:09Z</time>
      </trkpt>
      <trkpt lat="38.94603" lon="-8.14739">
        <ele>87.03357</ele>
        <time>2021-07-10T12:43:20Z</time>
      </trkpt>
      <trkpt lat="38.94575" lon="-8.14852">
        <ele>83.00082</ele>
        <time>2021-07-10T12:43:31Z</time>
      </trkpt>
      <trkpt lat="38.94536" lon="-8.15022">
        <ele>78.52909</ele>
        <time>2021-07-10T12:43:42Z</time>
      </trkpt>
      <trkpt lat="38.94494" lon="-8.1519">
        <ele>88.17177</ele>
        <time>2021-07-10T12:43:53Z</time>
      </trkpt>
      <trkpt lat="38.94443" lon="-8.15355">
        <ele>89.70192</ele>
        <time>2021-07-10T12:44:04Z</time>
      </trkpt>
      <trkpt lat="38.94389" lon="-8.15508">
        <ele>90.4695</ele>
        <time>2021-07-10T12:44:15Z</time>
      </trkpt>
      <trkpt lat="38.94361" lon="-8.15643">
        <ele>95.15867</ele>
        <time>2021-07-10T12:44:26Z</time>
      </trkpt>
      <trkpt lat="38.94365" lon="-8.15706">
        <ele>95.80063</ele>
        <time>2021-07-10T12:44:37Z</time>
      </trkpt>
      <trkpt lat="38.94361" lon="-8.15778">
        <ele>97.65352</ele>
        <time>2021-07-10T12:44:48Z</time>
      </trkpt>
      <trkpt lat="38.94344" lon="-8.1576">
        <ele>98.98961</ele>
        <time>2021-07-10T12:44:59Z</time>
      </trkpt>
      <trkpt lat="38.94344" lon="-8.15751">
        <ele>98.74683</ele>
        <time>2021-07-10T12:45:10Z</time>
      </trkpt>
      <trkpt lat="38.94346" lon="-8.15747">
        <ele>98.58931</ele>
        <time>2021-07-10T12:45:28Z</time>
      </trkpt>
      <trkpt lat="38.94346" lon="-8.15747">
        <ele>98.28033</ele>
        <time>2021-07-10T12:46:28Z</time>
      </trkpt>
      <trkpt lat="38.94348" lon="-8.15748">
        <ele>98.30605</ele>
        <time>2021-07-10T12:47:28Z</time>
      </trkpt>
      <trkpt lat="38.94346" lon="-8.15747">
        <ele>98.41616</ele>
        <time>2021-07-10T12:48:28Z</time>
      </trkpt>
      <trkpt lat="38.94345" lon="-8.15743">
        <ele>98.29436</ele>
        <time>2021-07-10T12:49:27Z</time>
      </trkpt>
      <trkpt lat="38.94347" lon="-8.15685">
        <ele>96.42616</ele>
        <time>2021-07-10T12:49:38Z</time>
      </trkpt>
      <trkpt lat="38.94413" lon="-8.15707">
        <ele>91.50589</ele>
        <time>2021-07-10T12:49:49Z</time>
      </trkpt>
      <trkpt lat="38.945" lon="-8.15795">
        <ele>80.96232</ele>
        <time>2021-07-10T12:50:00Z</time>
      </trkpt>
      <trkpt lat="38.9451" lon="-8.1597">
        <ele>81.87556</ele>
        <time>2021-07-10T12:50:11Z</time>
      </trkpt>
      <trkpt lat="38.9458" lon="-8.15979">
        <ele>75.20717</ele>
        <time>2021-07-10T12:50:22Z</time>
      </trkpt>
      <trkpt lat="38.94619" lon="-8.15953">
        <ele>73.46145</ele>
        <time>2021-07-10T12:50:33Z</time>
      </trkpt>
      <trkpt lat="38.9462" lon="-8.15923">
        <ele>73.24834</ele>
        <time>2021-07-10T12:50:44Z</time>
      </trkpt>
      <trkpt lat="38.94625" lon="-8.1592">
        <ele>73.46254</ele>
        <time>2021-07-10T12:51:23Z</time>
      </trkpt>
      <trkpt lat="38.94625" lon="-8.15921">
        <ele>72.80768</ele>
        <time>2021-07-10T12:52:23Z</time>
      </trkpt>
      <trkpt lat="38.94622" lon="-8.15922">
        <ele>72.22378</ele>
        <time>2021-07-10T12:52:53Z</time>
      </trkpt>
      <trkpt lat="38.94619" lon="-8.15919">
        <ele>73.72172</ele>
        <time>2021-07-10T12:53:04Z</time>
      </trkpt>
      <trkpt lat="38.94618" lon="-8.15923">
        <ele>73.52992</ele>
        <time>2021-07-10T12:53:16Z</time>
      </trkpt>
      <trkpt lat="38.94619" lon="-8.15929">
        <ele>72.44404</ele>
        <time>2021-07-10T12:53:27Z</time>
      </trkpt>
      <trkpt lat="38.9462" lon="-8.15941">
        <ele>73.63013</ele>
        <time>2021-07-10T12:53:38Z</time>
      </trkpt>
      <trkpt lat="38.94627" lon="-8.15944">
        <ele>72.65698</ele>
        <time>2021-07-10T12:53:49Z</time>
      </trkpt>
      <trkpt lat="38.94636" lon="-8.15941">
        <ele>71.73455</ele>
        <time>2021-07-10T12:54:00Z</time>
      </trkpt>
      <trkpt lat="38.94644" lon="-8.15937">
        <ele>72.27175</ele>
        <time>2021-07-10T12:54:11Z</time>
      </trkpt>
      <trkpt lat="38.94636" lon="-8.15931">
        <ele>72.77822</ele>
        <time>2021-07-10T12:54:22Z</time>
      </trkpt>
      <trkpt lat="38.94625" lon="-8.15931">
        <ele>69.37635</ele>
        <time>2021-07-10T12:54:33Z</time>
      </trkpt>
      <trkpt lat="38.94626" lon="-8.15923">
        <ele>73.09074</ele>
        <time>2021-07-10T12:54:44Z</time>
      </trkpt>
      <trkpt lat="38.94625" lon="-8.15929">
        <ele>72.91588</ele>
        <time>2021-07-10T12:55:04Z</time>
      </trkpt>
      <trkpt lat="38.94622" lon="-8.15933">
        <ele>73.02543</ele>
        <time>2021-07-10T12:55:15Z</time>
      </trkpt>
      <trkpt lat="38.94617" lon="-8.15928">
        <ele>73.22261</ele>
        <time>2021-07-10T12:55:26Z</time>
      </trkpt>
      <trkpt lat="38.94627" lon="-8.15922">
        <ele>74.1445</ele>
        <time>2021-07-10T12:55:37Z</time>
      </trkpt>
      <trkpt lat="38.9463" lon="-8.15926">
        <ele>73.29953</ele>
        <time>2021-07-10T12:55:57Z</time>
      </trkpt>
      <trkpt lat="38.94621" lon="-8.15934">
        <ele>72.85782</ele>
        <time>2021-07-10T12:56:08Z</time>
      </trkpt>
      <trkpt lat="38.94619" lon="-8.15942">
        <ele>99.08894</ele>
        <time>2021-07-10T12:56:33Z</time>
      </trkpt>
      <trkpt lat="38.9462" lon="-8.15941">
        <ele>99.08894</ele>
        <time>2021-07-10T12:57:32Z</time>
      </trkpt>
      <trkpt lat="38.94604" lon="-8.15944">
        <ele>76.13962</ele>
        <time>2021-07-10T12:57:44Z</time>
      </trkpt>
      <trkpt lat="38.9461" lon="-8.15938">
        <ele>72.81581</ele>
        <time>2021-07-10T12:57:55Z</time>
      </trkpt>
      <trkpt lat="38.94612" lon="-8.15943">
        <ele>70.6808</ele>
        <time>2021-07-10T12:58:06Z</time>
      </trkpt>
      <trkpt lat="38.94567" lon="-8.15928">
        <ele>79.14468</ele>
        <time>2021-07-10T12:58:19Z</time>
      </trkpt>
      <trkpt lat="38.94611" lon="-8.15928">
        <ele>75.45552</ele>
        <time>2021-07-10T12:58:30Z</time>
      </trkpt>
      <trkpt lat="38.94601" lon="-8.1593">
        <ele>74.14348</ele>
        <time>2021-07-10T12:58:41Z</time>
      </trkpt>
      <trkpt lat="38.94587" lon="-8.15935">
        <ele>74.24095</ele>
        <time>2021-07-10T12:58:52Z</time>
      </trkpt>
      <trkpt lat="38.94597" lon="-8.15941">
        <ele>73.76865</ele>
        <time>2021-07-10T12:59:03Z</time>
      </trkpt>
      <trkpt lat="38.94593" lon="-8.15932">
        <ele>74.01964</ele>
        <time>2021-07-10T12:59:14Z</time>
      </trkpt>
      <trkpt lat="38.94575" lon="-8.15927">
        <ele>73.17155</ele>
        <time>2021-07-10T12:59:25Z</time>
      </trkpt>
      <trkpt lat="38.9459" lon="-8.15949">
        <ele>74.44477</ele>
        <time>2021-07-10T12:59:36Z</time>
      </trkpt>
      <trkpt lat="38.94597" lon="-8.15927">
        <ele>71.58922</ele>
        <time>2021-07-10T12:59:47Z</time>
      </trkpt>
      <trkpt lat="38.94618" lon="-8.1591">
        <ele>79.4843</ele>
        <time>2021-07-10T13:00:04Z</time>
      </trkpt>
      <trkpt lat="38.94588" lon="-8.15935">
        <ele>74.2288</ele>
        <time>2021-07-10T13:00:15Z</time>
      </trkpt>
      <trkpt lat="38.94592" lon="-8.15933">
        <ele>75.79281</ele>
        <time>2021-07-10T13:00:26Z</time>
      </trkpt>
      <trkpt lat="38.94596" lon="-8.15936">
        <ele>74.66371</ele>
        <time>2021-07-10T13:00:37Z</time>
      </trkpt>
      <trkpt lat="38.94602" lon="-8.15938">
        <ele>70.32307</ele>
        <time>2021-07-10T13:00:50Z</time>
      </trkpt>
      <trkpt lat="38.94576" lon="-8.15934">
        <ele>75.63104</ele>
        <time>2021-07-10T13:01:01Z</time>
      </trkpt>
      <trkpt lat="38.94602" lon="-8.1594">
        <ele>74.0219</ele>
        <time>2021-07-10T13:01:12Z</time>
      </trkpt>
      <trkpt lat="38.94597" lon="-8.15936">
        <ele>72.70485</ele>
        <time>2021-07-10T13:01:23Z</time>
      </trkpt>
      <trkpt lat="38.94591" lon="-8.15936">
        <ele>73.29644</ele>
        <time>2021-07-10T13:01:34Z</time>
      </trkpt>
      <trkpt lat="38.94617" lon="-8.15925">
        <ele>75.06718</ele>
        <time>2021-07-10T13:01:45Z</time>
      </trkpt>
      <trkpt lat="38.9463" lon="-8.15919">
        <ele>72.32445</ele>
        <time>2021-07-10T13:01:56Z</time>
      </trkpt>
      <trkpt lat="38.94627" lon="-8.15921">
        <ele>75.92276</ele>
        <time>2021-07-10T13:02:14Z</time>
      </trkpt>
      <trkpt lat="38.94623" lon="-8.15919">
        <ele>71.79469</ele>
        <time>2021-07-10T13:02:25Z</time>
      </trkpt>
      <trkpt lat="38.94629" lon="-8.15917">
        <ele>72.19776</ele>
        <time>2021-07-10T13:02:36Z</time>
      </trkpt>
      <trkpt lat="38.94621" lon="-8.15926">
        <ele>74.12323</ele>
        <time>2021-07-10T13:02:47Z</time>
      </trkpt>
      <trkpt lat="38.94623" lon="-8.15923">
        <ele>71.98922</ele>
        <time>2021-07-10T13:02:58Z</time>
      </trkpt>
      <trkpt lat="38.94627" lon="-8.15924">
        <ele>72.585</ele>
        <time>2021-07-10T13:03:11Z</time>
      </trkpt>
      <trkpt lat="38.94629" lon="-8.15921">
        <ele>72.81405</ele>
        <time>2021-07-10T13:03:24Z</time>
      </trkpt>
      <trkpt lat="38.94628" lon="-8.15925">
        <ele>72.30738</ele>
        <time>2021-07-10T13:03:37Z</time>
      </trkpt>
      <trkpt lat="38.94614" lon="-8.15923">
        <ele>72.95894</ele>
        <time>2021-07-10T13:03:48Z</time>
      </trkpt>
      <trkpt lat="38.94615" lon="-8.15929">
        <ele>75.38594</ele>
        <time>2021-07-10T13:03:59Z</time>
      </trkpt>
      <trkpt lat="38.94613" lon="-8.15933">
        <ele>73.879</ele>
        <time>2021-07-10T13:04:11Z</time>
      </trkpt>
      <trkpt lat="38.94618" lon="-8.1593">
        <ele>74.40041</ele>
        <time>2021-07-10T13:04:22Z</time>
      </trkpt>
      <trkpt lat="38.94604" lon="-8.15942">
        <ele>73.19868</ele>
        <time>2021-07-10T13:04:33Z</time>
      </trkpt>
      <trkpt lat="38.94616" lon="-8.15943">
        <ele>74.46977</ele>
        <time>2021-07-10T13:04:44Z</time>
      </trkpt>
      <trkpt lat="38.94628" lon="-8.15943">
        <ele>72.33579</ele>
        <time>2021-07-10T13:04:55Z</time>
      </trkpt>
      <trkpt lat="38.94627" lon="-8.15938">
        <ele>72.38917</ele>
        <time>2021-07-10T13:05:17Z</time>
      </trkpt>
      <trkpt lat="38.94626" lon="-8.15948">
        <ele>72.23297</ele>
        <time>2021-07-10T13:05:28Z</time>
      </trkpt>
      <trkpt lat="38.94618" lon="-8.15942">
        <ele>72.94752</ele>
        <time>2021-07-10T13:05:39Z</time>
      </trkpt>
      <trkpt lat="38.94637" lon="-8.15946">
        <ele>72.40288</ele>
        <time>2021-07-10T13:05:50Z</time>
      </trkpt>
      <trkpt lat="38.94651" lon="-8.15945">
        <ele>72.01566</ele>
        <time>2021-07-10T13:06:01Z</time>
      </trkpt>
      <trkpt lat="38.9464" lon="-8.15944">
        <ele>70.72471</ele>
        <time>2021-07-10T13:06:12Z</time>
      </trkpt>
      <trkpt lat="38.94645" lon="-8.15947">
        <ele>71.41612</ele>
        <time>2021-07-10T13:06:23Z</time>
      </trkpt>
      <trkpt lat="38.94626" lon="-8.15947">
        <ele>72.91451</ele>
        <time>2021-07-10T13:06:34Z</time>
      </trkpt>
      <trkpt lat="38.94624" lon="-8.15931">
        <ele>72.82815</ele>
        <time>2021-07-10T13:06:45Z</time>
      </trkpt>
      <trkpt lat="38.94622" lon="-8.15923">
        <ele>73.20382</ele>
        <time>2021-07-10T13:06:56Z</time>
      </trkpt>
      <trkpt lat="38.94623" lon="-8.15925">
        <ele>72.96065</ele>
        <time>2021-07-10T13:07:55Z</time>
      </trkpt>
      <trkpt lat="38.94627" lon="-8.15924">
        <ele>72.87286</ele>
        <time>2021-07-10T13:08:31Z</time>
      </trkpt>
      <trkpt lat="38.94623" lon="-8.15924">
        <ele>72.79906</ele>
        <time>2021-07-10T13:09:01Z</time>
      </trkpt>
      <trkpt lat="38.94621" lon="-8.15924">
        <ele>73.24465</ele>
        <time>2021-07-10T13:10:00Z</time>
      </trkpt>
      <trkpt lat="38.94625" lon="-8.15924">
        <ele>72.4514</ele>
        <time>2021-07-10T13:10:46Z</time>
      </trkpt>
      <trkpt lat="38.94628" lon="-8.15921">
        <ele>72.83967</ele>
        <time>2021-07-10T13:11:05Z</time>
      </trkpt>
      <trkpt lat="38.94631" lon="-8.15924">
        <ele>72.20144</ele>
        <time>2021-07-10T13:11:17Z</time>
      </trkpt>
      <trkpt lat="38.94625" lon="-8.15924">
        <ele>72.84448</ele>
        <time>2021-07-10T13:11:28Z</time>
      </trkpt>
      <trkpt lat="38.94621" lon="-8.15925">
        <ele>72.1003</ele>
        <time>2021-07-10T13:12:01Z</time>
      </trkpt>
      <trkpt lat="38.94625" lon="-8.15923">
        <ele>72.39273</ele>
        <time>2021-07-10T13:12:16Z</time>
      </trkpt>
      <trkpt lat="38.94628" lon="-8.15923">
        <ele>73.5682</ele>
        <time>2021-07-10T13:13:15Z</time>
      </trkpt>
      <trkpt lat="38.94627" lon="-8.15922">
        <ele>72.8762</ele>
        <time>2021-07-10T13:14:14Z</time>
      </trkpt>
      <trkpt lat="38.94628" lon="-8.15923">
        <ele>72.93449</ele>
        <time>2021-07-10T13:15:13Z</time>
      </trkpt>
      <trkpt lat="38.9463" lon="-8.15924">
        <ele>73.57649</ele>
        <time>2021-07-10T13:16:11Z</time>
      </trkpt>
      <trkpt lat="38.94627" lon="-8.1592">
        <ele>72.8011</ele>
        <time>2021-07-10T13:17:06Z</time>
      </trkpt>
      <trkpt lat="38.94627" lon="-8.1592">
        <ele>72.91035</ele>
        <time>2021-07-10T13:18:05Z</time>
      </trkpt>
      <trkpt lat="38.94624" lon="-8.15921">
        <ele>72.03875</ele>
        <time>2021-07-10T13:18:30Z</time>
      </trkpt>
      <trkpt lat="38.94626" lon="-8.15922">
        <ele>72.14677</ele>
        <time>2021-07-10T13:19:29Z</time>
      </trkpt>
      <trkpt lat="38.94626" lon="-8.15922">
        <ele>72.14677</ele>
        <time>2021-07-10T13:20:28Z</time>
      </trkpt>
      <trkpt lat="38.94618" lon="-8.15922">
        <ele>72.78032</ele>
        <time>2021-07-10T13:21:22Z</time>
      </trkpt>
      <trkpt lat="38.94623" lon="-8.15924">
        <ele>72.19864</ele>
        <time>2021-07-10T13:21:33Z</time>
      </trkpt>
      <trkpt lat="38.94623" lon="-8.15923">
        <ele>72.67831</ele>
        <time>2021-07-10T13:22:32Z</time>
      </trkpt>
      <trkpt lat="38.94625" lon="-8.15923">
        <ele>70.39243</ele>
        <time>2021-07-10T13:23:32Z</time>
      </trkpt>
      <trkpt lat="38.94625" lon="-8.15923">
        <ele>70.39243</ele>
        <time>2021-07-10T13:24:32Z</time>
      </trkpt>
      <trkpt lat="38.94624" lon="-8.1592">
        <ele>72.88709</ele>
        <time>2021-07-10T13:25:32Z</time>
      </trkpt>
      <trkpt lat="38.94624" lon="-8.1592">
        <ele>72.88709</ele>
        <time>2021-07-10T13:26:32Z</time>
      </trkpt>
      <trkpt lat="38.94624" lon="-8.1592">
        <ele>72.88709</ele>
        <time>2021-07-10T13:27:32Z</time>
      </trkpt>
      <trkpt lat="38.94624" lon="-8.1592">
        <ele>72.88709</ele>
        <time>2021-07-10T13:28:32Z</time>
      </trkpt>
      <trkpt lat="38.94626" lon="-8.1592">
        <ele>72.97564</ele>
        <time>2021-07-10T13:29:32Z</time>
      </trkpt>
      <trkpt lat="38.94633" lon="-8.1592">
        <ele>72.2092</ele>
        <time>2021-07-10T13:29:43Z</time>
      </trkpt>
      <trkpt lat="38.94642" lon="-8.15923">
        <ele>72.50454</ele>
        <time>2021-07-10T13:30:24Z</time>
      </trkpt>
      <trkpt lat="38.94639" lon="-8.15919">
        <ele>72.04288</ele>
        <time>2021-07-10T13:31:17Z</time>
      </trkpt>
      <trkpt lat="38.94639" lon="-8.15919">
        <ele>72.04288</ele>
        <time>2021-07-10T13:32:16Z</time>
      </trkpt>
      <trkpt lat="38.94635" lon="-8.15919">
        <ele>72.88</ele>
        <time>2021-07-10T13:32:41Z</time>
      </trkpt>
      <trkpt lat="38.94634" lon="-8.15914">
        <ele>72.75797</ele>
        <time>2021-07-10T13:33:15Z</time>
      </trkpt>
      <trkpt lat="38.94635" lon="-8.1595">
        <ele>71.76646</ele>
        <time>2021-07-10T13:33:26Z</time>
      </trkpt>
      <trkpt lat="38.9463" lon="-8.15972">
        <ele>72.77225</ele>
        <time>2021-07-10T13:33:37Z</time>
      </trkpt>
      <trkpt lat="38.94545" lon="-8.15987">
        <ele>79.30402</ele>
        <time>2021-07-10T13:33:48Z</time>
      </trkpt>
      <trkpt lat="38.94515" lon="-8.15998">
        <ele>80.90165</ele>
        <time>2021-07-10T13:33:59Z</time>
      </trkpt>
      <trkpt lat="38.94496" lon="-8.1585">
        <ele>82.37723</ele>
        <time>2021-07-10T13:34:10Z</time>
      </trkpt>
      <trkpt lat="38.94443" lon="-8.15728">
        <ele>88.57857</ele>
        <time>2021-07-10T13:34:21Z</time>
      </trkpt>
      <trkpt lat="38.94374" lon="-8.15694">
        <ele>95.31981</ele>
        <time>2021-07-10T13:34:32Z</time>
      </trkpt>
      <trkpt lat="38.94364" lon="-8.15819">
        <ele>98.81534</ele>
        <time>2021-07-10T13:34:43Z</time>
      </trkpt>
      <trkpt lat="38.94365" lon="-8.1599">
        <ele>104.1852</ele>
        <time>2021-07-10T13:34:54Z</time>
      </trkpt>
      <trkpt lat="38.9431" lon="-8.16147">
        <ele>104.2061</ele>
        <time>2021-07-10T13:35:05Z</time>
      </trkpt>
      <trkpt lat="38.94217" lon="-8.16281">
        <ele>110.9695</ele>
        <time>2021-07-10T13:35:16Z</time>
      </trkpt>
      <trkpt lat="38.94116" lon="-8.16428">
        <ele>123.1012</ele>
        <time>2021-07-10T13:35:27Z</time>
      </trkpt>
      <trkpt lat="38.93976" lon="-8.16538">
        <ele>127.5421</ele>
        <time>2021-07-10T13:35:38Z</time>
      </trkpt>
      <trkpt lat="38.93865" lon="-8.16597">
        <ele>130.2372</ele>
        <time>2021-07-10T13:35:49Z</time>
      </trkpt>
      <trkpt lat="38.93716" lon="-8.16631">
        <ele>138.7118</ele>
        <time>2021-07-10T13:36:00Z</time>
      </trkpt>
      <trkpt lat="38.93565" lon="-8.16736">
        <ele>148.3408</ele>
        <time>2021-07-10T13:36:11Z</time>
      </trkpt>
      <trkpt lat="38.93428" lon="-8.16868">
        <ele>149.2092</ele>
        <time>2021-07-10T13:36:22Z</time>
      </trkpt>
      <trkpt lat="38.93295" lon="-8.16893">
        <ele>151.3369</ele>
        <time>2021-07-10T13:36:33Z</time>
      </trkpt>
      <trkpt lat="38.93069" lon="-8.16923">
        <ele>146.1994</ele>
        <time>2021-07-10T13:36:44Z</time>
      </trkpt>
      <trkpt lat="38.92841" lon="-8.17002">
        <ele>150.7838</ele>
        <time>2021-07-10T13:36:55Z</time>
      </trkpt>
      <trkpt lat="38.92595" lon="-8.17097">
        <ele>147.0952</ele>
        <time>2021-07-10T13:37:06Z</time>
      </trkpt>
      <trkpt lat="38.92354" lon="-8.17229">
        <ele>145.7847</ele>
        <time>2021-07-10T13:37:17Z</time>
      </trkpt>
      <trkpt lat="38.92121" lon="-8.17393">
        <ele>145.661</ele>
        <time>2021-07-10T13:37:28Z</time>
      </trkpt>
      <trkpt lat="38.91896" lon="-8.17577">
        <ele>146.3866</ele>
        <time>2021-07-10T13:37:39Z</time>
      </trkpt>
      <trkpt lat="38.91629" lon="-8.17649">
        <ele>145.9449</ele>
        <time>2021-07-10T13:37:50Z</time>
      </trkpt>
      <trkpt lat="38.91388" lon="-8.17763">
        <ele>141.962</ele>
        <time>2021-07-10T13:38:01Z</time>
      </trkpt>
      <trkpt lat="38.91133" lon="-8.17831">
        <ele>140.1064</ele>
        <time>2021-07-10T13:38:12Z</time>
      </trkpt>
      <trkpt lat="38.90881" lon="-8.17899">
        <ele>139.4907</ele>
        <time>2021-07-10T13:38:23Z</time>
      </trkpt>
      <trkpt lat="38.90624" lon="-8.17936">
        <ele>134.0747</ele>
        <time>2021-07-10T13:38:34Z</time>
      </trkpt>
      <trkpt lat="38.90366" lon="-8.17887">
        <ele>131.1205</ele>
        <time>2021-07-10T13:38:45Z</time>
      </trkpt>
      <trkpt lat="38.90128" lon="-8.17782">
        <ele>124.8588</ele>
        <time>2021-07-10T13:38:56Z</time>
      </trkpt>
      <trkpt lat="38.89888" lon="-8.17668">
        <ele>117.8365</ele>
        <time>2021-07-10T13:39:07Z</time>
      </trkpt>
      <trkpt lat="38.89647" lon="-8.17585">
        <ele>114.6747</ele>
        <time>2021-07-10T13:39:18Z</time>
      </trkpt>
      <trkpt lat="38.89408" lon="-8.17508">
        <ele>107.9429</ele>
        <time>2021-07-10T13:39:29Z</time>
      </trkpt>
      <trkpt lat="38.89169" lon="-8.17454">
        <ele>100.5556</ele>
        <time>2021-07-10T13:39:40Z</time>
      </trkpt>
      <trkpt lat="38.88941" lon="-8.17461">
        <ele>99.5275</ele>
        <time>2021-07-10T13:39:51Z</time>
      </trkpt>
      <trkpt lat="38.88702" lon="-8.17481">
        <ele>93.19443</ele>
        <time>2021-07-10T13:40:02Z</time>
      </trkpt>
      <trkpt lat="38.88484" lon="-8.17451">
        <ele>92.84681</ele>
        <time>2021-07-10T13:40:13Z</time>
      </trkpt>
      <trkpt lat="38.88336" lon="-8.17332">
        <ele>83.40633</ele>
        <time>2021-07-10T13:40:24Z</time>
      </trkpt>
      <trkpt lat="38.88168" lon="-8.17301">
        <ele>78.38743</ele>
        <time>2021-07-10T13:40:35Z</time>
      </trkpt>
      <trkpt lat="38.87967" lon="-8.17379">
        <ele>79.8156</ele>
        <time>2021-07-10T13:40:46Z</time>
      </trkpt>
      <trkpt lat="38.87786" lon="-8.17236">
        <ele>86.1232</ele>
        <time>2021-07-10T13:40:57Z</time>
      </trkpt>
      <trkpt lat="38.87643" lon="-8.16968">
        <ele>91.33874</ele>
        <time>2021-07-10T13:41:08Z</time>
      </trkpt>
      <trkpt lat="38.87529" lon="-8.16659">
        <ele>93.51686</ele>
        <time>2021-07-10T13:41:19Z</time>
      </trkpt>
      <trkpt lat="38.87414" lon="-8.16351">
        <ele>97.07425</ele>
        <time>2021-07-10T13:41:30Z</time>
      </trkpt>
      <trkpt lat="38.87306" lon="-8.16058">
        <ele>99.20769</ele>
        <time>2021-07-10T13:41:41Z</time>
      </trkpt>
      <trkpt lat="38.87162" lon="-8.15827">
        <ele>102.2782</ele>
        <time>2021-07-10T13:41:52Z</time>
      </trkpt>
      <trkpt lat="38.87146" lon="-8.15587">
        <ele>107.113</ele>
        <time>2021-07-10T13:42:03Z</time>
      </trkpt>
      <trkpt lat="38.87171" lon="-8.15487">
        <ele>106.5824</ele>
        <time>2021-07-10T13:42:14Z</time>
      </trkpt>
      <trkpt lat="38.87175" lon="-8.1548">
        <ele>110.3558</ele>
        <time>2021-07-10T13:43:08Z</time>
      </trkpt>
      <trkpt lat="38.87172" lon="-8.15366">
        <ele>110.2795</ele>
        <time>2021-07-10T13:43:19Z</time>
      </trkpt>
      <trkpt lat="38.87136" lon="-8.15233">
        <ele>116.8069</ele>
        <time>2021-07-10T13:43:30Z</time>
      </trkpt>
      <trkpt lat="38.87035" lon="-8.15143">
        <ele>127.8049</ele>
        <time>2021-07-10T13:43:41Z</time>
      </trkpt>
      <trkpt lat="38.86841" lon="-8.15055">
        <ele>144.9188</ele>
        <time>2021-07-10T13:43:52Z</time>
      </trkpt>
      <trkpt lat="38.86642" lon="-8.15107">
        <ele>145.2944</ele>
        <time>2021-07-10T13:44:03Z</time>
      </trkpt>
      <trkpt lat="38.86461" lon="-8.15212">
        <ele>146.035</ele>
        <time>2021-07-10T13:44:14Z</time>
      </trkpt>
      <trkpt lat="38.86478" lon="-8.15359">
        <ele>142.2992</ele>
        <time>2021-07-10T13:44:25Z</time>
      </trkpt>
      <trkpt lat="38.86582" lon="-8.15514">
        <ele>145.411</ele>
        <time>2021-07-10T13:44:36Z</time>
      </trkpt>
      <trkpt lat="38.86649" lon="-8.15682">
        <ele>144.6013</ele>
        <time>2021-07-10T13:44:47Z</time>
      </trkpt>
      <trkpt lat="38.86648" lon="-8.15899">
        <ele>138.5984</ele>
        <time>2021-07-10T13:44:58Z</time>
      </trkpt>
      <trkpt lat="38.86709" lon="-8.16133">
        <ele>137.0797</ele>
        <time>2021-07-10T13:45:09Z</time>
      </trkpt>
      <trkpt lat="38.86811" lon="-8.16317">
        <ele>139.446</ele>
        <time>2021-07-10T13:45:20Z</time>
      </trkpt>
      <trkpt lat="38.86815" lon="-8.16504">
        <ele>134.0659</ele>
        <time>2021-07-10T13:45:31Z</time>
      </trkpt>
      <trkpt lat="38.86686" lon="-8.16664">
        <ele>129.6476</ele>
        <time>2021-07-10T13:45:42Z</time>
      </trkpt>
      <trkpt lat="38.86534" lon="-8.168">
        <ele>127.0891</ele>
        <time>2021-07-10T13:45:53Z</time>
      </trkpt>
      <trkpt lat="38.86426" lon="-8.16952">
        <ele>121.3964</ele>
        <time>2021-07-10T13:46:04Z</time>
      </trkpt>
      <trkpt lat="38.86349" lon="-8.17125">
        <ele>115.5337</ele>
        <time>2021-07-10T13:46:15Z</time>
      </trkpt>
      <trkpt lat="38.86327" lon="-8.17144">
        <ele>115.1813</ele>
        <time>2021-07-10T13:46:27Z</time>
      </trkpt>
      <trkpt lat="38.86326" lon="-8.17144">
        <ele>116.7114</ele>
        <time>2021-07-10T13:47:27Z</time>
      </trkpt>
      <trkpt lat="38.86328" lon="-8.1714">
        <ele>110.4453</ele>
        <time>2021-07-10T13:52:07Z</time>
      </trkpt>
      <trkpt lat="38.86327" lon="-8.17145">
        <ele>114.6667</ele>
        <time>2021-07-10T13:52:36Z</time>
      </trkpt>
      <trkpt lat="38.86327" lon="-8.17143">
        <ele>114.7075</ele>
        <time>2021-07-10T14:10:59Z</time>
      </trkpt>
      <trkpt lat="38.86331" lon="-8.17143">
        <ele>114.5384</ele>
        <time>2021-07-10T14:11:15Z</time>
      </trkpt>
      <trkpt lat="38.86329" lon="-8.17137">
        <ele>114.6123</ele>
        <time>2021-07-10T14:11:26Z</time>
      </trkpt>
      <trkpt lat="38.86328" lon="-8.17142">
        <ele>115.2439</ele>
        <time>2021-07-10T14:12:10Z</time>
      </trkpt>
      <trkpt lat="38.86328" lon="-8.17141">
        <ele>113.3702</ele>
        <time>2021-07-10T14:13:08Z</time>
      </trkpt>
      <trkpt lat="38.86327" lon="-8.17143">
        <ele>114.1292</ele>
        <time>2021-07-10T14:14:06Z</time>
      </trkpt>
      <trkpt lat="38.86325" lon="-8.17145">
        <ele>114.4333</ele>
        <time>2021-07-10T14:15:05Z</time>
      </trkpt>
      <trkpt lat="38.86325" lon="-8.17145">
        <ele>114.4333</ele>
        <time>2021-07-10T14:16:04Z</time>
      </trkpt>
      <trkpt lat="38.86325" lon="-8.17145">
        <ele>114.4333</ele>
        <time>2021-07-10T14:17:03Z</time>
      </trkpt>
      <trkpt lat="38.86321" lon="-8.17151">
        <ele>112.8989</ele>
        <time>2021-07-10T14:17:49Z</time>
      </trkpt>
      <trkpt lat="38.86253" lon="-8.17243">
        <ele>109.5847</ele>
        <time>2021-07-10T14:18:00Z</time>
      </trkpt>
      <trkpt lat="38.86191" lon="-8.17358">
        <ele>108.2443</ele>
        <time>2021-07-10T14:18:11Z</time>
      </trkpt>
      <trkpt lat="38.86119" lon="-8.17451">
        <ele>101.5209</ele>
        <time>2021-07-10T14:18:22Z</time>
      </trkpt>
      <trkpt lat="38.86176" lon="-8.17612">
        <ele>96.2108</ele>
        <time>2021-07-10T14:18:33Z</time>
      </trkpt>
      <trkpt lat="38.86196" lon="-8.17803">
        <ele>96.17769</ele>
        <time>2021-07-10T14:18:44Z</time>
      </trkpt>
      <trkpt lat="38.86213" lon="-8.17981">
        <ele>87.3626</ele>
        <time>2021-07-10T14:18:55Z</time>
      </trkpt>
      <trkpt lat="38.8634" lon="-8.18046">
        <ele>85.22935</ele>
        <time>2021-07-10T14:19:06Z</time>
      </trkpt>
      <trkpt lat="38.86494" lon="-8.18022">
        <ele>84.44974</ele>
        <time>2021-07-10T14:19:17Z</time>
      </trkpt>
      <trkpt lat="38.86628" lon="-8.18139">
        <ele>83.44068</ele>
        <time>2021-07-10T14:19:28Z</time>
      </trkpt>
      <trkpt lat="38.86745" lon="-8.18267">
        <ele>82.82196</ele>
        <time>2021-07-10T14:19:39Z</time>
      </trkpt>
      <trkpt lat="38.86845" lon="-8.18328">
        <ele>83.70276</ele>
        <time>2021-07-10T14:19:50Z</time>
      </trkpt>
      <trkpt lat="38.86908" lon="-8.18474">
        <ele>90.12584</ele>
        <time>2021-07-10T14:20:01Z</time>
      </trkpt>
      <trkpt lat="38.86997" lon="-8.18677">
        <ele>89.19179</ele>
        <time>2021-07-10T14:20:12Z</time>
      </trkpt>
      <trkpt lat="38.87044" lon="-8.1885">
        <ele>100.2903</ele>
        <time>2021-07-10T14:20:23Z</time>
      </trkpt>
      <trkpt lat="38.87069" lon="-8.19009">
        <ele>107.7504</ele>
        <time>2021-07-10T14:20:34Z</time>
      </trkpt>
      <trkpt lat="38.86995" lon="-8.1924">
        <ele>115.0139</ele>
        <time>2021-07-10T14:20:45Z</time>
      </trkpt>
      <trkpt lat="38.86935" lon="-8.19432">
        <ele>128.6337</ele>
        <time>2021-07-10T14:20:56Z</time>
      </trkpt>
      <trkpt lat="38.86876" lon="-8.19561">
        <ele>140.1565</ele>
        <time>2021-07-10T14:21:07Z</time>
      </trkpt>
      <trkpt lat="38.86741" lon="-8.19563">
        <ele>142.9705</ele>
        <time>2021-07-10T14:21:18Z</time>
      </trkpt>
      <trkpt lat="38.86587" lon="-8.19553">
        <ele>142.4232</ele>
        <time>2021-07-10T14:21:29Z</time>
      </trkpt>
      <trkpt lat="38.86466" lon="-8.19631">
        <ele>148.3121</ele>
        <time>2021-07-10T14:21:40Z</time>
      </trkpt>
      <trkpt lat="38.86316" lon="-8.19737">
        <ele>147.6042</ele>
        <time>2021-07-10T14:21:51Z</time>
      </trkpt>
      <trkpt lat="38.8622" lon="-8.19803">
        <ele>145.1988</ele>
        <time>2021-07-10T14:22:02Z</time>
      </trkpt>
      <trkpt lat="38.86264" lon="-8.199">
        <ele>142.1757</ele>
        <time>2021-07-10T14:22:13Z</time>
      </trkpt>
      <trkpt lat="38.86369" lon="-8.20016">
        <ele>142.2419</ele>
        <time>2021-07-10T14:22:24Z</time>
      </trkpt>
      <trkpt lat="38.86381" lon="-8.2014">
        <ele>147.3098</ele>
        <time>2021-07-10T14:22:35Z</time>
      </trkpt>
      <trkpt lat="38.86349" lon="-8.20332">
        <ele>152.5956</ele>
        <time>2021-07-10T14:22:46Z</time>
      </trkpt>
      <trkpt lat="38.86378" lon="-8.20459">
        <ele>151.6828</ele>
        <time>2021-07-10T14:22:57Z</time>
      </trkpt>
      <trkpt lat="38.86458" lon="-8.20591">
        <ele>145.9589</ele>
        <time>2021-07-10T14:23:08Z</time>
      </trkpt>
      <trkpt lat="38.86551" lon="-8.20766">
        <ele>153.8612</ele>
        <time>2021-07-10T14:23:19Z</time>
      </trkpt>
      <trkpt lat="38.86591" lon="-8.2094">
        <ele>151.894</ele>
        <time>2021-07-10T14:23:30Z</time>
      </trkpt>
      <trkpt lat="38.86699" lon="-8.21056">
        <ele>145.9405</ele>
        <time>2021-07-10T14:23:41Z</time>
      </trkpt>
      <trkpt lat="38.86815" lon="-8.21155">
        <ele>141.0446</ele>
        <time>2021-07-10T14:23:52Z</time>
      </trkpt>
      <trkpt lat="38.86834" lon="-8.21322">
        <ele>139.4048</ele>
        <time>2021-07-10T14:24:03Z</time>
      </trkpt>
      <trkpt lat="38.86831" lon="-8.21505">
        <ele>139.8366</ele>
        <time>2021-07-10T14:24:14Z</time>
      </trkpt>
      <trkpt lat="38.86756" lon="-8.21668">
        <ele>139.6687</ele>
        <time>2021-07-10T14:24:25Z</time>
      </trkpt>
      <trkpt lat="38.86769" lon="-8.21847">
        <ele>141.7106</ele>
        <time>2021-07-10T14:24:36Z</time>
      </trkpt>
      <trkpt lat="38.86856" lon="-8.22003">
        <ele>140.5127</ele>
        <time>2021-07-10T14:24:47Z</time>
      </trkpt>
      <trkpt lat="38.86875" lon="-8.22143">
        <ele>134.2009</ele>
        <time>2021-07-10T14:24:58Z</time>
      </trkpt>
      <trkpt lat="38.86963" lon="-8.2225">
        <ele>133.5891</ele>
        <time>2021-07-10T14:25:09Z</time>
      </trkpt>
      <trkpt lat="38.87059" lon="-8.22384">
        <ele>140.5523</ele>
        <time>2021-07-10T14:25:20Z</time>
      </trkpt>
      <trkpt lat="38.8708" lon="-8.22571">
        <ele>134.891</ele>
        <time>2021-07-10T14:25:31Z</time>
      </trkpt>
      <trkpt lat="38.87101" lon="-8.22771">
        <ele>133.5237</ele>
        <time>2021-07-10T14:25:42Z</time>
      </trkpt>
      <trkpt lat="38.87159" lon="-8.22883">
        <ele>134.3342</ele>
        <time>2021-07-10T14:25:53Z</time>
      </trkpt>
      <trkpt lat="38.87283" lon="-8.22968">
        <ele>140.9401</ele>
        <time>2021-07-10T14:26:04Z</time>
      </trkpt>
      <trkpt lat="38.87337" lon="-8.23047">
        <ele>129.858</ele>
        <time>2021-07-10T14:26:15Z</time>
      </trkpt>
      <trkpt lat="38.87306" lon="-8.23233">
        <ele>113.618</ele>
        <time>2021-07-10T14:26:26Z</time>
      </trkpt>
      <trkpt lat="38.87293" lon="-8.23418">
        <ele>121.7069</ele>
        <time>2021-07-10T14:26:37Z</time>
      </trkpt>
      <trkpt lat="38.87262" lon="-8.23575">
        <ele>126.6265</ele>
        <time>2021-07-10T14:26:48Z</time>
      </trkpt>
      <trkpt lat="38.87285" lon="-8.23711">
        <ele>121.8574</ele>
        <time>2021-07-10T14:26:59Z</time>
      </trkpt>
      <trkpt lat="38.87378" lon="-8.23837">
        <ele>128.7153</ele>
        <time>2021-07-10T14:27:10Z</time>
      </trkpt>
      <trkpt lat="38.8744" lon="-8.23955">
        <ele>135.8763</ele>
        <time>2021-07-10T14:27:21Z</time>
      </trkpt>
      <trkpt lat="38.87478" lon="-8.24077">
        <ele>137.7161</ele>
        <time>2021-07-10T14:27:32Z</time>
      </trkpt>
      <trkpt lat="38.8748" lon="-8.24241">
        <ele>134.7784</ele>
        <time>2021-07-10T14:27:43Z</time>
      </trkpt>
      <trkpt lat="38.87494" lon="-8.24414">
        <ele>131.7978</ele>
        <time>2021-07-10T14:27:54Z</time>
      </trkpt>
      <trkpt lat="38.87577" lon="-8.24526">
        <ele>113.0544</ele>
        <time>2021-07-10T14:28:05Z</time>
      </trkpt>
      <trkpt lat="38.8767" lon="-8.2461">
        <ele>111.5945</ele>
        <time>2021-07-10T14:28:16Z</time>
      </trkpt>
      <trkpt lat="38.87685" lon="-8.24743">
        <ele>119.3</ele>
        <time>2021-07-10T14:28:27Z</time>
      </trkpt>
      <trkpt lat="38.87616" lon="-8.24863">
        <ele>122.5837</ele>
        <time>2021-07-10T14:28:38Z</time>
      </trkpt>
      <trkpt lat="38.87492" lon="-8.24943">
        <ele>123.957</ele>
        <time>2021-07-10T14:28:49Z</time>
      </trkpt>
      <trkpt lat="38.87367" lon="-8.24986">
        <ele>127.9111</ele>
        <time>2021-07-10T14:29:00Z</time>
      </trkpt>
      <trkpt lat="38.8732" lon="-8.25053">
        <ele>124.2899</ele>
        <time>2021-07-10T14:29:11Z</time>
      </trkpt>
      <trkpt lat="38.87319" lon="-8.25192">
        <ele>119.9391</ele>
        <time>2021-07-10T14:29:22Z</time>
      </trkpt>
      <trkpt lat="38.87252" lon="-8.25292">
        <ele>106.2196</ele>
        <time>2021-07-10T14:29:33Z</time>
      </trkpt>
      <trkpt lat="38.87121" lon="-8.25315">
        <ele>92.67892</ele>
        <time>2021-07-10T14:29:44Z</time>
      </trkpt>
      <trkpt lat="38.8702" lon="-8.25333">
        <ele>86.69686</ele>
        <time>2021-07-10T14:29:55Z</time>
      </trkpt>
      <trkpt lat="38.86918" lon="-8.25341">
        <ele>83.00313</ele>
        <time>2021-07-10T14:30:06Z</time>
      </trkpt>
      <trkpt lat="38.86812" lon="-8.25366">
        <ele>80.51936</ele>
        <time>2021-07-10T14:30:17Z</time>
      </trkpt>
      <trkpt lat="38.86678" lon="-8.25436">
        <ele>78.69923</ele>
        <time>2021-07-10T14:30:28Z</time>
      </trkpt>
      <trkpt lat="38.86585" lon="-8.25517">
        <ele>71.76527</ele>
        <time>2021-07-10T14:30:39Z</time>
      </trkpt>
      <trkpt lat="38.86608" lon="-8.25658">
        <ele>55.31816</ele>
        <time>2021-07-10T14:30:50Z</time>
      </trkpt>
      <trkpt lat="38.86673" lon="-8.2582">
        <ele>61.14293</ele>
        <time>2021-07-10T14:31:01Z</time>
      </trkpt>
      <trkpt lat="38.86667" lon="-8.25904">
        <ele>66.98887</ele>
        <time>2021-07-10T14:31:12Z</time>
      </trkpt>
      <trkpt lat="38.86474" lon="-8.25959">
        <ele>75.52489</ele>
        <time>2021-07-10T14:31:23Z</time>
      </trkpt>
      <trkpt lat="38.86328" lon="-8.25996">
        <ele>80.3921</ele>
        <time>2021-07-10T14:31:34Z</time>
      </trkpt>
      <trkpt lat="38.86205" lon="-8.26023">
        <ele>85.8982</ele>
        <time>2021-07-10T14:31:45Z</time>
      </trkpt>
      <trkpt lat="38.86137" lon="-8.26105">
        <ele>73.09048</ele>
        <time>2021-07-10T14:31:56Z</time>
      </trkpt>
      <trkpt lat="38.85985" lon="-8.262">
        <ele>80.63273</ele>
        <time>2021-07-10T14:32:07Z</time>
      </trkpt>
      <trkpt lat="38.85909" lon="-8.26297">
        <ele>100.4184</ele>
        <time>2021-07-10T14:32:18Z</time>
      </trkpt>
      <trkpt lat="38.85815" lon="-8.26352">
        <ele>110.0446</ele>
        <time>2021-07-10T14:32:29Z</time>
      </trkpt>
      <trkpt lat="38.85762" lon="-8.26311">
        <ele>114.3189</ele>
        <time>2021-07-10T14:32:40Z</time>
      </trkpt>
      <trkpt lat="38.85755" lon="-8.26142">
        <ele>103.8099</ele>
        <time>2021-07-10T14:32:51Z</time>
      </trkpt>
      <trkpt lat="38.85713" lon="-8.25998">
        <ele>93.31503</ele>
        <time>2021-07-10T14:33:02Z</time>
      </trkpt>
      <trkpt lat="38.85735" lon="-8.25864">
        <ele>103.9393</ele>
        <time>2021-07-10T14:33:13Z</time>
      </trkpt>
      <trkpt lat="38.85681" lon="-8.2576">
        <ele>99.70555</ele>
        <time>2021-07-10T14:33:24Z</time>
      </trkpt>
      <trkpt lat="38.85556" lon="-8.25733">
        <ele>110.4914</ele>
        <time>2021-07-10T14:33:35Z</time>
      </trkpt>
      <trkpt lat="38.8541" lon="-8.25672">
        <ele>111.9874</ele>
        <time>2021-07-10T14:33:46Z</time>
      </trkpt>
      <trkpt lat="38.85292" lon="-8.25632">
        <ele>114.0683</ele>
        <time>2021-07-10T14:33:57Z</time>
      </trkpt>
      <trkpt lat="38.85187" lon="-8.25525">
        <ele>118.564</ele>
        <time>2021-07-10T14:34:08Z</time>
      </trkpt>
      <trkpt lat="38.85081" lon="-8.2542">
        <ele>120.5815</ele>
        <time>2021-07-10T14:34:19Z</time>
      </trkpt>
      <trkpt lat="38.8494" lon="-8.25387">
        <ele>112.9096</ele>
        <time>2021-07-10T14:34:30Z</time>
      </trkpt>
      <trkpt lat="38.84802" lon="-8.25307">
        <ele>114.4027</ele>
        <time>2021-07-10T14:34:41Z</time>
      </trkpt>
      <trkpt lat="38.8465" lon="-8.25216">
        <ele>111.322</ele>
        <time>2021-07-10T14:34:52Z</time>
      </trkpt>
      <trkpt lat="38.84502" lon="-8.25192">
        <ele>105.4142</ele>
        <time>2021-07-10T14:35:03Z</time>
      </trkpt>
      <trkpt lat="38.84339" lon="-8.25191">
        <ele>111.2479</ele>
        <time>2021-07-10T14:35:14Z</time>
      </trkpt>
      <trkpt lat="38.84202" lon="-8.25191">
        <ele>123.7307</ele>
        <time>2021-07-10T14:35:25Z</time>
      </trkpt>
      <trkpt lat="38.84105" lon="-8.25189">
        <ele>120.6742</ele>
        <time>2021-07-10T14:35:36Z</time>
      </trkpt>
      <trkpt lat="38.84022" lon="-8.25099">
        <ele>120.1614</ele>
        <time>2021-07-10T14:35:47Z</time>
      </trkpt>
      <trkpt lat="38.83955" lon="-8.2498">
        <ele>110.5851</ele>
        <time>2021-07-10T14:35:58Z</time>
      </trkpt>
      <trkpt lat="38.8389" lon="-8.24862">
        <ele>110.9587</ele>
        <time>2021-07-10T14:36:09Z</time>
      </trkpt>
      <trkpt lat="38.83863" lon="-8.24675">
        <ele>119.3639</ele>
        <time>2021-07-10T14:36:20Z</time>
      </trkpt>
      <trkpt lat="38.83786" lon="-8.24496">
        <ele>129.7165</ele>
        <time>2021-07-10T14:36:31Z</time>
      </trkpt>
      <trkpt lat="38.83675" lon="-8.24452">
        <ele>134.153</ele>
        <time>2021-07-10T14:36:42Z</time>
      </trkpt>
      <trkpt lat="38.83539" lon="-8.24456">
        <ele>132.8919</ele>
        <time>2021-07-10T14:36:53Z</time>
      </trkpt>
      <trkpt lat="38.83437" lon="-8.24456">
        <ele>124.6572</ele>
        <time>2021-07-10T14:37:04Z</time>
      </trkpt>
      <trkpt lat="38.83303" lon="-8.24422">
        <ele>116.4646</ele>
        <time>2021-07-10T14:37:15Z</time>
      </trkpt>
      <trkpt lat="38.83185" lon="-8.24348">
        <ele>108.5873</ele>
        <time>2021-07-10T14:37:26Z</time>
      </trkpt>
      <trkpt lat="38.83103" lon="-8.24255">
        <ele>107.3954</ele>
        <time>2021-07-10T14:37:37Z</time>
      </trkpt>
      <trkpt lat="38.83153" lon="-8.24094">
        <ele>102.4803</ele>
        <time>2021-07-10T14:37:48Z</time>
      </trkpt>
      <trkpt lat="38.83082" lon="-8.24065">
        <ele>106.5414</ele>
        <time>2021-07-10T14:37:59Z</time>
      </trkpt>
      <trkpt lat="38.82939" lon="-8.2421">
        <ele>106.8487</ele>
        <time>2021-07-10T14:38:10Z</time>
      </trkpt>
      <trkpt lat="38.82774" lon="-8.24341">
        <ele>95.3793</ele>
        <time>2021-07-10T14:38:21Z</time>
      </trkpt>
      <trkpt lat="38.82648" lon="-8.24415">
        <ele>81.0813</ele>
        <time>2021-07-10T14:38:32Z</time>
      </trkpt>
      <trkpt lat="38.82517" lon="-8.24386">
        <ele>103.7128</ele>
        <time>2021-07-10T14:38:43Z</time>
      </trkpt>
      <trkpt lat="38.8243" lon="-8.24449">
        <ele>84.39695</ele>
        <time>2021-07-10T14:38:54Z</time>
      </trkpt>
      <trkpt lat="38.82343" lon="-8.24491">
        <ele>72.14057</ele>
        <time>2021-07-10T14:39:05Z</time>
      </trkpt>
      <trkpt lat="38.82237" lon="-8.24534">
        <ele>84.97717</ele>
        <time>2021-07-10T14:39:16Z</time>
      </trkpt>
      <trkpt lat="38.82141" lon="-8.24691">
        <ele>29.73479</ele>
        <time>2021-07-10T14:39:27Z</time>
      </trkpt>
      <trkpt lat="38.82009" lon="-8.24677">
        <ele>91.90088</ele>
        <time>2021-07-10T14:39:38Z</time>
      </trkpt>
      <trkpt lat="38.81868" lon="-8.24631">
        <ele>90.28968</ele>
        <time>2021-07-10T14:39:49Z</time>
      </trkpt>
      <trkpt lat="38.81773" lon="-8.24559">
        <ele>84.23009</ele>
        <time>2021-07-10T14:40:00Z</time>
      </trkpt>
      <trkpt lat="38.81696" lon="-8.24453">
        <ele>92.38275</ele>
        <time>2021-07-10T14:40:11Z</time>
      </trkpt>
      <trkpt lat="38.81637" lon="-8.24337">
        <ele>94.89671</ele>
        <time>2021-07-10T14:40:22Z</time>
      </trkpt>
      <trkpt lat="38.81564" lon="-8.24199">
        <ele>91.90922</ele>
        <time>2021-07-10T14:40:33Z</time>
      </trkpt>
      <trkpt lat="38.81507" lon="-8.24188">
        <ele>90.99406</ele>
        <time>2021-07-10T14:40:45Z</time>
      </trkpt>
      <trkpt lat="38.81392" lon="-8.24099">
        <ele>93.76453</ele>
        <time>2021-07-10T14:40:56Z</time>
      </trkpt>
      <trkpt lat="38.81257" lon="-8.23985">
        <ele>92.64239</ele>
        <time>2021-07-10T14:41:07Z</time>
      </trkpt>
      <trkpt lat="38.8113" lon="-8.23907">
        <ele>91.03199</ele>
        <time>2021-07-10T14:41:18Z</time>
      </trkpt>
      <trkpt lat="38.81022" lon="-8.23738">
        <ele>93.636</ele>
        <time>2021-07-10T14:41:29Z</time>
      </trkpt>
      <trkpt lat="38.80908" lon="-8.2356">
        <ele>93.23234</ele>
        <time>2021-07-10T14:41:40Z</time>
      </trkpt>
      <trkpt lat="38.80831" lon="-8.23361">
        <ele>92.94441</ele>
        <time>2021-07-10T14:41:51Z</time>
      </trkpt>
      <trkpt lat="38.80735" lon="-8.23289">
        <ele>95.91338</ele>
        <time>2021-07-10T14:42:02Z</time>
      </trkpt>
      <trkpt lat="38.80637" lon="-8.23213">
        <ele>100.5448</ele>
        <time>2021-07-10T14:42:13Z</time>
      </trkpt>
      <trkpt lat="38.80524" lon="-8.23159">
        <ele>98.13777</ele>
        <time>2021-07-10T14:42:24Z</time>
      </trkpt>
      <trkpt lat="38.8047" lon="-8.23054">
        <ele>107.1443</ele>
        <time>2021-07-10T14:42:35Z</time>
      </trkpt>
      <trkpt lat="38.80441" lon="-8.22985">
        <ele>113.9583</ele>
        <time>2021-07-10T14:42:46Z</time>
      </trkpt>
      <trkpt lat="38.80438" lon="-8.22981">
        <ele>118.6366</ele>
        <time>2021-07-10T14:42:59Z</time>
      </trkpt>
      <trkpt lat="38.80332" lon="-8.22867">
        <ele>128.2446</ele>
        <time>2021-07-10T14:43:10Z</time>
      </trkpt>
      <trkpt lat="38.80211" lon="-8.22819">
        <ele>136.4995</ele>
        <time>2021-07-10T14:43:21Z</time>
      </trkpt>
      <trkpt lat="38.80084" lon="-8.22812">
        <ele>141.7969</ele>
        <time>2021-07-10T14:43:32Z</time>
      </trkpt>
      <trkpt lat="38.79939" lon="-8.22825">
        <ele>143.8164</ele>
        <time>2021-07-10T14:43:43Z</time>
      </trkpt>
      <trkpt lat="38.79801" lon="-8.22862">
        <ele>149.5586</ele>
        <time>2021-07-10T14:43:54Z</time>
      </trkpt>
      <trkpt lat="38.79644" lon="-8.22849">
        <ele>155.6503</ele>
        <time>2021-07-10T14:44:05Z</time>
      </trkpt>
      <trkpt lat="38.79477" lon="-8.22836">
        <ele>161.5623</ele>
        <time>2021-07-10T14:44:16Z</time>
      </trkpt>
      <trkpt lat="38.79283" lon="-8.22806">
        <ele>169.2757</ele>
        <time>2021-07-10T14:44:27Z</time>
      </trkpt>
      <trkpt lat="38.79122" lon="-8.2271">
        <ele>170.0758</ele>
        <time>2021-07-10T14:44:38Z</time>
      </trkpt>
      <trkpt lat="38.78951" lon="-8.22664">
        <ele>166.3283</ele>
        <time>2021-07-10T14:44:49Z</time>
      </trkpt>
      <trkpt lat="38.78783" lon="-8.22653">
        <ele>172.4152</ele>
        <time>2021-07-10T14:45:00Z</time>
      </trkpt>
      <trkpt lat="38.78692" lon="-8.2254">
        <ele>168.4349</ele>
        <time>2021-07-10T14:45:11Z</time>
      </trkpt>
      <trkpt lat="38.78525" lon="-8.22589">
        <ele>165.0958</ele>
        <time>2021-07-10T14:45:22Z</time>
      </trkpt>
      <trkpt lat="38.7836" lon="-8.22632">
        <ele>148.2417</ele>
        <time>2021-07-10T14:45:33Z</time>
      </trkpt>
      <trkpt lat="38.78181" lon="-8.2267">
        <ele>161.9263</ele>
        <time>2021-07-10T14:45:44Z</time>
      </trkpt>
      <trkpt lat="38.78059" lon="-8.22691">
        <ele>174.4558</ele>
        <time>2021-07-10T14:45:55Z</time>
      </trkpt>
      <trkpt lat="38.77986" lon="-8.22704">
        <ele>177.3041</ele>
        <time>2021-07-10T14:46:06Z</time>
      </trkpt>
      <trkpt lat="38.77818" lon="-8.22778">
        <ele>176.9123</ele>
        <time>2021-07-10T14:46:17Z</time>
      </trkpt>
      <trkpt lat="38.77585" lon="-8.22898">
        <ele>171.7433</ele>
        <time>2021-07-10T14:46:28Z</time>
      </trkpt>
      <trkpt lat="38.77389" lon="-8.22988">
        <ele>158.4198</ele>
        <time>2021-07-10T14:46:39Z</time>
      </trkpt>
      <trkpt lat="38.77228" lon="-8.22979">
        <ele>151.685</ele>
        <time>2021-07-10T14:46:50Z</time>
      </trkpt>
      <trkpt lat="38.77104" lon="-8.22984">
        <ele>139.4463</ele>
        <time>2021-07-10T14:47:01Z</time>
      </trkpt>
      <trkpt lat="38.76936" lon="-8.23049">
        <ele>162.4649</ele>
        <time>2021-07-10T14:47:12Z</time>
      </trkpt>
      <trkpt lat="38.7669" lon="-8.23136">
        <ele>168.7634</ele>
        <time>2021-07-10T14:47:23Z</time>
      </trkpt>
      <trkpt lat="38.76491" lon="-8.23201">
        <ele>176.6107</ele>
        <time>2021-07-10T14:47:34Z</time>
      </trkpt>
      <trkpt lat="38.76398" lon="-8.23236">
        <ele>179.8744</ele>
        <time>2021-07-10T14:47:45Z</time>
      </trkpt>
      <trkpt lat="38.76488" lon="-8.23433">
        <ele>175.1669</ele>
        <time>2021-07-10T14:47:56Z</time>
      </trkpt>
      <trkpt lat="38.76607" lon="-8.23694">
        <ele>172.4952</ele>
        <time>2021-07-10T14:48:07Z</time>
      </trkpt>
      <trkpt lat="38.76724" lon="-8.23961">
        <ele>165.4003</ele>
        <time>2021-07-10T14:48:18Z</time>
      </trkpt>
      <trkpt lat="38.76814" lon="-8.24175">
        <ele>160.8161</ele>
        <time>2021-07-10T14:48:29Z</time>
      </trkpt>
      <trkpt lat="38.76875" lon="-8.2431">
        <ele>165.8638</ele>
        <time>2021-07-10T14:48:40Z</time>
      </trkpt>
      <trkpt lat="38.76819" lon="-8.24383">
        <ele>168.1004</ele>
        <time>2021-07-10T14:48:51Z</time>
      </trkpt>
      <trkpt lat="38.76709" lon="-8.2445">
        <ele>163.1438</ele>
        <time>2021-07-10T14:49:02Z</time>
      </trkpt>
      <trkpt lat="38.76629" lon="-8.24639">
        <ele>155.2899</ele>
        <time>2021-07-10T14:49:13Z</time>
      </trkpt>
      <trkpt lat="38.7657" lon="-8.2489">
        <ele>164.8427</ele>
        <time>2021-07-10T14:49:24Z</time>
      </trkpt>
      <trkpt lat="38.76559" lon="-8.25133">
        <ele>160.3744</ele>
        <time>2021-07-10T14:49:35Z</time>
      </trkpt>
      <trkpt lat="38.76548" lon="-8.25415">
        <ele>153.9501</ele>
        <time>2021-07-10T14:49:46Z</time>
      </trkpt>
      <trkpt lat="38.76576" lon="-8.25683">
        <ele>153.9883</ele>
        <time>2021-07-10T14:49:57Z</time>
      </trkpt>
      <trkpt lat="38.76566" lon="-8.25903">
        <ele>159.739</ele>
        <time>2021-07-10T14:50:08Z</time>
      </trkpt>
      <trkpt lat="38.765" lon="-8.26065">
        <ele>159.2918</ele>
        <time>2021-07-10T14:50:19Z</time>
      </trkpt>
      <trkpt lat="38.76364" lon="-8.26102">
        <ele>164.2701</ele>
        <time>2021-07-10T14:50:30Z</time>
      </trkpt>
      <trkpt lat="38.76182" lon="-8.26166">
        <ele>166.2696</ele>
        <time>2021-07-10T14:50:41Z</time>
      </trkpt>
      <trkpt lat="38.76018" lon="-8.26095">
        <ele>168.7399</ele>
        <time>2021-07-10T14:50:52Z</time>
      </trkpt>
      <trkpt lat="38.75856" lon="-8.2601">
        <ele>165.3045</ele>
        <time>2021-07-10T14:51:03Z</time>
      </trkpt>
      <trkpt lat="38.75662" lon="-8.26047">
        <ele>159.9997</ele>
        <time>2021-07-10T14:51:14Z</time>
      </trkpt>
      <trkpt lat="38.75511" lon="-8.26155">
        <ele>159.2009</ele>
        <time>2021-07-10T14:51:25Z</time>
      </trkpt>
      <trkpt lat="38.75378" lon="-8.26294">
        <ele>147.4084</ele>
        <time>2021-07-10T14:51:36Z</time>
      </trkpt>
      <trkpt lat="38.7522" lon="-8.26351">
        <ele>141.1836</ele>
        <time>2021-07-10T14:51:47Z</time>
      </trkpt>
      <trkpt lat="38.75121" lon="-8.26408">
        <ele>137.6125</ele>
        <time>2021-07-10T14:51:58Z</time>
      </trkpt>
      <trkpt lat="38.75004" lon="-8.26363">
        <ele>144.3814</ele>
        <time>2021-07-10T14:52:09Z</time>
      </trkpt>
      <trkpt lat="38.74974" lon="-8.2645">
        <ele>146.4982</ele>
        <time>2021-07-10T14:52:20Z</time>
      </trkpt>
      <trkpt lat="38.7491" lon="-8.26593">
        <ele>149.4399</ele>
        <time>2021-07-10T14:52:31Z</time>
      </trkpt>
      <trkpt lat="38.74753" lon="-8.26709">
        <ele>152.6837</ele>
        <time>2021-07-10T14:52:42Z</time>
      </trkpt>
      <trkpt lat="38.74569" lon="-8.26782">
        <ele>158.2508</ele>
        <time>2021-07-10T14:52:53Z</time>
      </trkpt>
      <trkpt lat="38.74472" lon="-8.26933">
        <ele>164.941</ele>
        <time>2021-07-10T14:53:04Z</time>
      </trkpt>
      <trkpt lat="38.74502" lon="-8.27139">
        <ele>160.3651</ele>
        <time>2021-07-10T14:53:15Z</time>
      </trkpt>
      <trkpt lat="38.74416" lon="-8.27267">
        <ele>159.1129</ele>
        <time>2021-07-10T14:53:26Z</time>
      </trkpt>
      <trkpt lat="38.74283" lon="-8.27276">
        <ele>158.3355</ele>
        <time>2021-07-10T14:53:37Z</time>
      </trkpt>
      <trkpt lat="38.74199" lon="-8.27396">
        <ele>161.6826</ele>
        <time>2021-07-10T14:53:48Z</time>
      </trkpt>
      <trkpt lat="38.74115" lon="-8.27497">
        <ele>162.4071</ele>
        <time>2021-07-10T14:53:59Z</time>
      </trkpt>
      <trkpt lat="38.73998" lon="-8.27516">
        <ele>172.1784</ele>
        <time>2021-07-10T14:54:10Z</time>
      </trkpt>
      <trkpt lat="38.73867" lon="-8.27538">
        <ele>181.4162</ele>
        <time>2021-07-10T14:54:21Z</time>
      </trkpt>
      <trkpt lat="38.73719" lon="-8.27572">
        <ele>181.5943</ele>
        <time>2021-07-10T14:54:32Z</time>
      </trkpt>
      <trkpt lat="38.736" lon="-8.27639">
        <ele>180.8655</ele>
        <time>2021-07-10T14:54:43Z</time>
      </trkpt>
      <trkpt lat="38.73482" lon="-8.27682">
        <ele>187.9717</ele>
        <time>2021-07-10T14:54:54Z</time>
      </trkpt>
      <trkpt lat="38.73354" lon="-8.27703">
        <ele>183.9056</ele>
        <time>2021-07-10T14:55:05Z</time>
      </trkpt>
      <trkpt lat="38.73189" lon="-8.27688">
        <ele>183.6573</ele>
        <time>2021-07-10T14:55:16Z</time>
      </trkpt>
      <trkpt lat="38.73039" lon="-8.27606">
        <ele>184.7261</ele>
        <time>2021-07-10T14:55:27Z</time>
      </trkpt>
      <trkpt lat="38.7291" lon="-8.27552">
        <ele>187.5965</ele>
        <time>2021-07-10T14:55:38Z</time>
      </trkpt>
      <trkpt lat="38.72773" lon="-8.27505">
        <ele>193.8854</ele>
        <time>2021-07-10T14:55:49Z</time>
      </trkpt>
      <trkpt lat="38.72605" lon="-8.27525">
        <ele>195.2209</ele>
        <time>2021-07-10T14:56:00Z</time>
      </trkpt>
      <trkpt lat="38.72432" lon="-8.2756">
        <ele>195.5424</ele>
        <time>2021-07-10T14:56:11Z</time>
      </trkpt>
      <trkpt lat="38.72195" lon="-8.27583">
        <ele>198.4455</ele>
        <time>2021-07-10T14:56:22Z</time>
      </trkpt>
      <trkpt lat="38.72016" lon="-8.27573">
        <ele>195.7951</ele>
        <time>2021-07-10T14:56:33Z</time>
      </trkpt>
      <trkpt lat="38.71817" lon="-8.2752">
        <ele>198.8371</ele>
        <time>2021-07-10T14:56:44Z</time>
      </trkpt>
      <trkpt lat="38.71684" lon="-8.27604">
        <ele>201.41</ele>
        <time>2021-07-10T14:56:55Z</time>
      </trkpt>
      <trkpt lat="38.71502" lon="-8.2781">
        <ele>195.8338</ele>
        <time>2021-07-10T14:57:06Z</time>
      </trkpt>
      <trkpt lat="38.71299" lon="-8.28013">
        <ele>190.5529</ele>
        <time>2021-07-10T14:57:17Z</time>
      </trkpt>
      <trkpt lat="38.71093" lon="-8.28111">
        <ele>187.0574</ele>
        <time>2021-07-10T14:57:28Z</time>
      </trkpt>
      <trkpt lat="38.70893" lon="-8.28243">
        <ele>182.4421</ele>
        <time>2021-07-10T14:57:39Z</time>
      </trkpt>
      <trkpt lat="38.70818" lon="-8.28294">
        <ele>181.0822</ele>
        <time>2021-07-10T14:57:50Z</time>
      </trkpt>
      <trkpt lat="38.7081" lon="-8.28299">
        <ele>182.625</ele>
        <time>2021-07-10T14:58:05Z</time>
      </trkpt>
      <trkpt lat="38.70634" lon="-8.28408">
        <ele>180.0741</ele>
        <time>2021-07-10T14:58:16Z</time>
      </trkpt>
      <trkpt lat="38.70529" lon="-8.28474">
        <ele>177.2585</ele>
        <time>2021-07-10T14:58:27Z</time>
      </trkpt>
      <trkpt lat="38.70449" lon="-8.28474">
        <ele>178.5658</ele>
        <time>2021-07-10T14:58:38Z</time>
      </trkpt>
      <trkpt lat="38.70383" lon="-8.28469">
        <ele>178.1304</ele>
        <time>2021-07-10T14:58:49Z</time>
      </trkpt>
      <trkpt lat="38.70295" lon="-8.28403">
        <ele>178.0093</ele>
        <time>2021-07-10T14:59:00Z</time>
      </trkpt>
      <trkpt lat="38.70235" lon="-8.28333">
        <ele>179.0571</ele>
        <time>2021-07-10T14:59:11Z</time>
      </trkpt>
      <trkpt lat="38.70127" lon="-8.28286">
        <ele>183.1193</ele>
        <time>2021-07-10T14:59:22Z</time>
      </trkpt>
      <trkpt lat="38.70007" lon="-8.28255">
        <ele>183.9655</ele>
        <time>2021-07-10T14:59:33Z</time>
      </trkpt>
      <trkpt lat="38.69869" lon="-8.28235">
        <ele>181.4803</ele>
        <time>2021-07-10T14:59:45Z</time>
      </trkpt>
      <trkpt lat="38.69755" lon="-8.28235">
        <ele>183.8876</ele>
        <time>2021-07-10T14:59:56Z</time>
      </trkpt>
      <trkpt lat="38.69644" lon="-8.28264">
        <ele>185.1813</ele>
        <time>2021-07-10T15:00:07Z</time>
      </trkpt>
      <trkpt lat="38.6953" lon="-8.28271">
        <ele>180.7739</ele>
        <time>2021-07-10T15:00:18Z</time>
      </trkpt>
      <trkpt lat="38.69403" lon="-8.28242">
        <ele>176.5619</ele>
        <time>2021-07-10T15:00:29Z</time>
      </trkpt>
      <trkpt lat="38.69273" lon="-8.28217">
        <ele>177.5956</ele>
        <time>2021-07-10T15:00:40Z</time>
      </trkpt>
      <trkpt lat="38.69194" lon="-8.28231">
        <ele>175.9994</ele>
        <time>2021-07-10T15:00:51Z</time>
      </trkpt>
      <trkpt lat="38.69093" lon="-8.28283">
        <ele>175.0922</ele>
        <time>2021-07-10T15:01:02Z</time>
      </trkpt>
      <trkpt lat="38.68977" lon="-8.28341">
        <ele>167.2924</ele>
        <time>2021-07-10T15:01:13Z</time>
      </trkpt>
      <trkpt lat="38.6891" lon="-8.28379">
        <ele>170.392</ele>
        <time>2021-07-10T15:01:24Z</time>
      </trkpt>
      <trkpt lat="38.68908" lon="-8.28382">
        <ele>174.8993</ele>
        <time>2021-07-10T15:01:35Z</time>
      </trkpt>
      <trkpt lat="38.68904" lon="-8.28387">
        <ele>174.4281</ele>
        <time>2021-07-10T15:02:06Z</time>
      </trkpt>
      <trkpt lat="38.68863" lon="-8.28439">
        <ele>168.7038</ele>
        <time>2021-07-10T15:02:17Z</time>
      </trkpt>
      <trkpt lat="38.6883" lon="-8.28475">
        <ele>165.0711</ele>
        <time>2021-07-10T15:02:28Z</time>
      </trkpt>
      <trkpt lat="38.68826" lon="-8.28482">
        <ele>165.8643</ele>
        <time>2021-07-10T15:02:53Z</time>
      </trkpt>
      <trkpt lat="38.68774" lon="-8.28558">
        <ele>163.1875</ele>
        <time>2021-07-10T15:03:04Z</time>
      </trkpt>
      <trkpt lat="38.68665" lon="-8.28583">
        <ele>158.0081</ele>
        <time>2021-07-10T15:03:15Z</time>
      </trkpt>
      <trkpt lat="38.68571" lon="-8.28591">
        <ele>152.4903</ele>
        <time>2021-07-10T15:03:26Z</time>
      </trkpt>
      <trkpt lat="38.6849" lon="-8.28625">
        <ele>142.7118</ele>
        <time>2021-07-10T15:03:37Z</time>
      </trkpt>
      <trkpt lat="38.68405" lon="-8.28547">
        <ele>139.5739</ele>
        <time>2021-07-10T15:03:48Z</time>
      </trkpt>
      <trkpt lat="38.68364" lon="-8.28473">
        <ele>134.3515</ele>
        <time>2021-07-10T15:03:59Z</time>
      </trkpt>
      <trkpt lat="38.68321" lon="-8.28431">
        <ele>128.0572</ele>
        <time>2021-07-10T15:04:10Z</time>
      </trkpt>
      <trkpt lat="38.68295" lon="-8.28384">
        <ele>125.0153</ele>
        <time>2021-07-10T15:04:21Z</time>
      </trkpt>
      <trkpt lat="38.68257" lon="-8.28397">
        <ele>123.0078</ele>
        <time>2021-07-10T15:04:32Z</time>
      </trkpt>
      <trkpt lat="38.68215" lon="-8.28375">
        <ele>123.9542</ele>
        <time>2021-07-10T15:04:43Z</time>
      </trkpt>
      <trkpt lat="38.6815" lon="-8.28356">
        <ele>128.8901</ele>
        <time>2021-07-10T15:04:54Z</time>
      </trkpt>
      <trkpt lat="38.68126" lon="-8.28351">
        <ele>131.0651</ele>
        <time>2021-07-10T15:05:05Z</time>
      </trkpt>
      <trkpt lat="38.68102" lon="-8.28417">
        <ele>131.3115</ele>
        <time>2021-07-10T15:05:16Z</time>
      </trkpt>
      <trkpt lat="38.68035" lon="-8.28507">
        <ele>131.9759</ele>
        <time>2021-07-10T15:05:27Z</time>
      </trkpt>
      <trkpt lat="38.67955" lon="-8.28539">
        <ele>130.6804</ele>
        <time>2021-07-10T15:05:38Z</time>
      </trkpt>
      <trkpt lat="38.67861" lon="-8.28586">
        <ele>137.3381</ele>
        <time>2021-07-10T15:05:49Z</time>
      </trkpt>
      <trkpt lat="38.67759" lon="-8.28596">
        <ele>145.0857</ele>
        <time>2021-07-10T15:06:00Z</time>
      </trkpt>
      <trkpt lat="38.67593" lon="-8.28589">
        <ele>148.75</ele>
        <time>2021-07-10T15:06:11Z</time>
      </trkpt>
      <trkpt lat="38.6745" lon="-8.28618">
        <ele>155.1267</ele>
        <time>2021-07-10T15:06:22Z</time>
      </trkpt>
      <trkpt lat="38.67385" lon="-8.28514">
        <ele>168.8137</ele>
        <time>2021-07-10T15:06:33Z</time>
      </trkpt>
      <trkpt lat="38.6733" lon="-8.28275">
        <ele>183.4479</ele>
        <time>2021-07-10T15:06:44Z</time>
      </trkpt>
      <trkpt lat="38.67249" lon="-8.28058">
        <ele>176.7174</ele>
        <time>2021-07-10T15:06:55Z</time>
      </trkpt>
      <trkpt lat="38.67132" lon="-8.27806">
        <ele>173.0043</ele>
        <time>2021-07-10T15:07:06Z</time>
      </trkpt>
      <trkpt lat="38.67018" lon="-8.27562">
        <ele>174.6421</ele>
        <time>2021-07-10T15:07:17Z</time>
      </trkpt>
      <trkpt lat="38.66894" lon="-8.27407">
        <ele>171.9836</ele>
        <time>2021-07-10T15:07:28Z</time>
      </trkpt>
      <trkpt lat="38.668" lon="-8.27201">
        <ele>156.0402</ele>
        <time>2021-07-10T15:07:39Z</time>
      </trkpt>
      <trkpt lat="38.66659" lon="-8.27011">
        <ele>183.2387</ele>
        <time>2021-07-10T15:07:50Z</time>
      </trkpt>
      <trkpt lat="38.66491" lon="-8.269">
        <ele>185.867</ele>
        <time>2021-07-10T15:08:01Z</time>
      </trkpt>
      <trkpt lat="38.66319" lon="-8.26859">
        <ele>187.6028</ele>
        <time>2021-07-10T15:08:12Z</time>
      </trkpt>
      <trkpt lat="38.66238" lon="-8.26781">
        <ele>192.5835</ele>
        <time>2021-07-10T15:08:23Z</time>
      </trkpt>
      <trkpt lat="38.66303" lon="-8.26629">
        <ele>188.4539</ele>
        <time>2021-07-10T15:08:34Z</time>
      </trkpt>
      <trkpt lat="38.66356" lon="-8.26413">
        <ele>182.6367</ele>
        <time>2021-07-10T15:08:45Z</time>
      </trkpt>
      <trkpt lat="38.66468" lon="-8.2623">
        <ele>179.7087</ele>
        <time>2021-07-10T15:08:56Z</time>
      </trkpt>
      <trkpt lat="38.66526" lon="-8.261">
        <ele>179.3165</ele>
        <time>2021-07-10T15:09:07Z</time>
      </trkpt>
      <trkpt lat="38.66512" lon="-8.25885">
        <ele>169.0325</ele>
        <time>2021-07-10T15:09:18Z</time>
      </trkpt>
      <trkpt lat="38.66458" lon="-8.25694">
        <ele>168.1005</ele>
        <time>2021-07-10T15:09:29Z</time>
      </trkpt>
      <trkpt lat="38.66331" lon="-8.25567">
        <ele>170.9848</ele>
        <time>2021-07-10T15:09:40Z</time>
      </trkpt>
      <trkpt lat="38.66253" lon="-8.25464">
        <ele>173.3286</ele>
        <time>2021-07-10T15:09:51Z</time>
      </trkpt>
      <trkpt lat="38.66238" lon="-8.25321">
        <ele>170.5231</ele>
        <time>2021-07-10T15:10:02Z</time>
      </trkpt>
      <trkpt lat="38.66253" lon="-8.25025">
        <ele>159.4975</ele>
        <time>2021-07-10T15:10:13Z</time>
      </trkpt>
      <trkpt lat="38.66268" lon="-8.2483">
        <ele>152.9039</ele>
        <time>2021-07-10T15:10:24Z</time>
      </trkpt>
      <trkpt lat="38.66317" lon="-8.24661">
        <ele>147.2322</ele>
        <time>2021-07-10T15:10:35Z</time>
      </trkpt>
      <trkpt lat="38.66367" lon="-8.2455">
        <ele>148.6275</ele>
        <time>2021-07-10T15:10:46Z</time>
      </trkpt>
      <trkpt lat="38.6642" lon="-8.24469">
        <ele>153.9212</ele>
        <time>2021-07-10T15:10:57Z</time>
      </trkpt>
      <trkpt lat="38.66397" lon="-8.24519">
        <ele>153.8327</ele>
        <time>2021-07-10T15:11:08Z</time>
      </trkpt>
      <trkpt lat="38.66363" lon="-8.24567">
        <ele>144.3397</ele>
        <time>2021-07-10T15:11:19Z</time>
      </trkpt>
      <trkpt lat="38.66347" lon="-8.24575">
        <ele>147.0933</ele>
        <time>2021-07-10T15:11:30Z</time>
      </trkpt>
      <trkpt lat="38.6642" lon="-8.24466">
        <ele>146.0048</ele>
        <time>2021-07-10T15:11:41Z</time>
      </trkpt>
      <trkpt lat="38.66391" lon="-8.2436">
        <ele>150.2265</ele>
        <time>2021-07-10T15:11:52Z</time>
      </trkpt>
      <trkpt lat="38.66276" lon="-8.2415">
        <ele>154.7715</ele>
        <time>2021-07-10T15:12:03Z</time>
      </trkpt>
      <trkpt lat="38.66151" lon="-8.23975">
        <ele>162.3139</ele>
        <time>2021-07-10T15:12:14Z</time>
      </trkpt>
      <trkpt lat="38.6614" lon="-8.2396">
        <ele>161.786</ele>
        <time>2021-07-10T15:12:25Z</time>
      </trkpt>
      <trkpt lat="38.66142" lon="-8.23956">
        <ele>161.574</ele>
        <time>2021-07-10T15:12:44Z</time>
      </trkpt>
      <trkpt lat="38.66138" lon="-8.23955">
        <ele>161.1483</ele>
        <time>2021-07-10T15:13:15Z</time>
      </trkpt>
      <trkpt lat="38.66135" lon="-8.2396">
        <ele>161.4282</ele>
        <time>2021-07-10T15:13:40Z</time>
      </trkpt>
      <trkpt lat="38.66138" lon="-8.23958">
        <ele>161.3358</ele>
        <time>2021-07-10T15:14:40Z</time>
      </trkpt>
      <trkpt lat="38.66122" lon="-8.23895">
        <ele>163.3387</ele>
        <time>2021-07-10T15:14:51Z</time>
      </trkpt>
      <trkpt lat="38.66082" lon="-8.23728">
        <ele>163.5604</ele>
        <time>2021-07-10T15:15:02Z</time>
      </trkpt>
      <trkpt lat="38.6602" lon="-8.23581">
        <ele>159.8248</ele>
        <time>2021-07-10T15:15:13Z</time>
      </trkpt>
      <trkpt lat="38.65914" lon="-8.23524">
        <ele>156.7643</ele>
        <time>2021-07-10T15:15:24Z</time>
      </trkpt>
      <trkpt lat="38.65789" lon="-8.23508">
        <ele>155.7976</ele>
        <time>2021-07-10T15:15:35Z</time>
      </trkpt>
      <trkpt lat="38.65656" lon="-8.23396">
        <ele>165.8991</ele>
        <time>2021-07-10T15:15:46Z</time>
      </trkpt>
      <trkpt lat="38.65538" lon="-8.23335">
        <ele>172.9742</ele>
        <time>2021-07-10T15:15:57Z</time>
      </trkpt>
      <trkpt lat="38.65406" lon="-8.23209">
        <ele>188.9741</ele>
        <time>2021-07-10T15:16:08Z</time>
      </trkpt>
      <trkpt lat="38.65313" lon="-8.23049">
        <ele>195.6929</ele>
        <time>2021-07-10T15:16:19Z</time>
      </trkpt>
      <trkpt lat="38.65291" lon="-8.22917">
        <ele>199.6575</ele>
        <time>2021-07-10T15:16:30Z</time>
      </trkpt>
      <trkpt lat="38.65345" lon="-8.2283">
        <ele>203.2188</ele>
        <time>2021-07-10T15:16:41Z</time>
      </trkpt>
      <trkpt lat="38.65374" lon="-8.22684">
        <ele>211.6733</ele>
        <time>2021-07-10T15:16:52Z</time>
      </trkpt>
      <trkpt lat="38.65393" lon="-8.22583">
        <ele>214.5089</ele>
        <time>2021-07-10T15:17:03Z</time>
      </trkpt>
      <trkpt lat="38.65425" lon="-8.22468">
        <ele>211.3097</ele>
        <time>2021-07-10T15:17:14Z</time>
      </trkpt>
      <trkpt lat="38.65369" lon="-8.22382">
        <ele>214.6145</ele>
        <time>2021-07-10T15:17:25Z</time>
      </trkpt>
      <trkpt lat="38.65268" lon="-8.22275">
        <ele>218.232</ele>
        <time>2021-07-10T15:17:36Z</time>
      </trkpt>
      <trkpt lat="38.65168" lon="-8.22176">
        <ele>226.2725</ele>
        <time>2021-07-10T15:17:47Z</time>
      </trkpt>
      <trkpt lat="38.65092" lon="-8.2211">
        <ele>226.3298</ele>
        <time>2021-07-10T15:17:58Z</time>
      </trkpt>
      <trkpt lat="38.65053" lon="-8.2201">
        <ele>222.8258</ele>
        <time>2021-07-10T15:18:09Z</time>
      </trkpt>
      <trkpt lat="38.65047" lon="-8.21998">
        <ele>224.6591</ele>
        <time>2021-07-10T15:18:20Z</time>
      </trkpt>
      <trkpt lat="38.65001" lon="-8.21985">
        <ele>227.2594</ele>
        <time>2021-07-10T15:18:31Z</time>
      </trkpt>
      <trkpt lat="38.64992" lon="-8.21876">
        <ele>225.1028</ele>
        <time>2021-07-10T15:18:42Z</time>
      </trkpt>
      <trkpt lat="38.64946" lon="-8.21855">
        <ele>225.2972</ele>
        <time>2021-07-10T15:18:53Z</time>
      </trkpt>
      <trkpt lat="38.64958" lon="-8.21862">
        <ele>224.6069</ele>
        <time>2021-07-10T15:19:04Z</time>
      </trkpt>
      <trkpt lat="38.64966" lon="-8.2186">
        <ele>225.2031</ele>
        <time>2021-07-10T15:19:15Z</time>
      </trkpt>
      <trkpt lat="38.64966" lon="-8.21855">
        <ele>225.2219</ele>
        <time>2021-07-10T15:19:42Z</time>
      </trkpt>
      <trkpt lat="38.64966" lon="-8.21855">
        <ele>225.2222</ele>
        <time>2021-07-10T15:20:42Z</time>
      </trkpt>
      <trkpt lat="38.6498" lon="-8.21871">
        <ele>224.7658</ele>
        <time>2021-07-10T15:22:25Z</time>
      </trkpt>
      <trkpt lat="38.64965" lon="-8.2187">
        <ele>223.9614</ele>
        <time>2021-07-10T15:22:36Z</time>
      </trkpt>
      <trkpt lat="38.64967" lon="-8.21865">
        <ele>224.5031</ele>
        <time>2021-07-10T15:23:02Z</time>
      </trkpt>
      <trkpt lat="38.64966" lon="-8.2186">
        <ele>224.6049</ele>
        <time>2021-07-10T15:23:43Z</time>
      </trkpt>
      <trkpt lat="38.64964" lon="-8.21856">
        <ele>225.0439</ele>
        <time>2021-07-10T15:24:10Z</time>
      </trkpt>
      <trkpt lat="38.6496" lon="-8.21855">
        <ele>226.4539</ele>
        <time>2021-07-10T15:24:41Z</time>
      </trkpt>
      <trkpt lat="38.64963" lon="-8.21859">
        <ele>225.5372</ele>
        <time>2021-07-10T15:24:52Z</time>
      </trkpt>
      <trkpt lat="38.64961" lon="-8.21863">
        <ele>224.8836</ele>
        <time>2021-07-10T15:25:41Z</time>
      </trkpt>
      <trkpt lat="38.6496" lon="-8.21859">
        <ele>225.0453</ele>
        <time>2021-07-10T15:26:15Z</time>
      </trkpt>
      <trkpt lat="38.64962" lon="-8.21855">
        <ele>225.8806</ele>
        <time>2021-07-10T15:26:34Z</time>
      </trkpt>
      <trkpt lat="38.64961" lon="-8.2186">
        <ele>225.1824</ele>
        <time>2021-07-10T15:27:05Z</time>
      </trkpt>
      <trkpt lat="38.64962" lon="-8.21854">
        <ele>225.2063</ele>
        <time>2021-07-10T15:27:36Z</time>
      </trkpt>
      <trkpt lat="38.64961" lon="-8.21859">
        <ele>225.5135</ele>
        <time>2021-07-10T15:27:57Z</time>
      </trkpt>
      <trkpt lat="38.64962" lon="-8.21863">
        <ele>224.8736</ele>
        <time>2021-07-10T15:28:28Z</time>
      </trkpt>
      <trkpt lat="38.64964" lon="-8.21868">
        <ele>224.3697</ele>
        <time>2021-07-10T15:28:41Z</time>
      </trkpt>
      <trkpt lat="38.64963" lon="-8.21868">
        <ele>224.7478</ele>
        <time>2021-07-10T15:29:40Z</time>
      </trkpt>
      <trkpt lat="38.64963" lon="-8.21863">
        <ele>224.54</ele>
        <time>2021-07-10T15:29:57Z</time>
      </trkpt>
      <trkpt lat="38.64962" lon="-8.21859">
        <ele>225.3649</ele>
        <time>2021-07-10T15:30:12Z</time>
      </trkpt>
      <trkpt lat="38.64962" lon="-8.21863">
        <ele>224.8144</ele>
        <time>2021-07-10T15:30:39Z</time>
      </trkpt>
      <trkpt lat="38.64963" lon="-8.21864">
        <ele>223.6175</ele>
        <time>2021-07-10T15:31:39Z</time>
      </trkpt>
      <trkpt lat="38.64965" lon="-8.21868">
        <ele>225.8148</ele>
        <time>2021-07-10T15:32:07Z</time>
      </trkpt>
      <trkpt lat="38.64968" lon="-8.21872">
        <ele>223.6439</ele>
        <time>2021-07-10T15:33:09Z</time>
      </trkpt>
      <trkpt lat="38.64964" lon="-8.21879">
        <ele>223.6</ele>
        <time>2021-07-10T15:33:20Z</time>
      </trkpt>
      <trkpt lat="38.64963" lon="-8.21874">
        <ele>224.7817</ele>
        <time>2021-07-10T15:33:41Z</time>
      </trkpt>
      <trkpt lat="38.64963" lon="-8.2187">
        <ele>225.4125</ele>
        <time>2021-07-10T15:33:59Z</time>
      </trkpt>
      <trkpt lat="38.64963" lon="-8.21863">
        <ele>224.1328</ele>
        <time>2021-07-10T15:34:32Z</time>
      </trkpt>
      <trkpt lat="38.64963" lon="-8.21859">
        <ele>224.8445</ele>
        <time>2021-07-10T15:34:43Z</time>
      </trkpt>
      <trkpt lat="38.64965" lon="-8.21852">
        <ele>225.5952</ele>
        <time>2021-07-10T15:34:54Z</time>
      </trkpt>
      <trkpt lat="38.64961" lon="-8.21857">
        <ele>225.5037</ele>
        <time>2021-07-10T15:35:05Z</time>
      </trkpt>
      <trkpt lat="38.64961" lon="-8.21862">
        <ele>224.3685</ele>
        <time>2021-07-10T15:35:23Z</time>
      </trkpt>
      <trkpt lat="38.64961" lon="-8.21867">
        <ele>224.2135</ele>
        <time>2021-07-10T15:35:34Z</time>
      </trkpt>
      <trkpt lat="38.64963" lon="-8.21872">
        <ele>223.842</ele>
        <time>2021-07-10T15:36:04Z</time>
      </trkpt>
      <trkpt lat="38.64966" lon="-8.21868">
        <ele>225.3884</ele>
        <time>2021-07-10T15:36:22Z</time>
      </trkpt>
      <trkpt lat="38.64965" lon="-8.21865">
        <ele>223.7336</ele>
        <time>2021-07-10T15:37:22Z</time>
      </trkpt>
      <trkpt lat="38.64965" lon="-8.21871">
        <ele>223.9899</ele>
        <time>2021-07-10T15:38:02Z</time>
      </trkpt>
      <trkpt lat="38.64982" lon="-8.2187">
        <ele>224.8168</ele>
        <time>2021-07-10T15:46:41Z</time>
      </trkpt>
      <trkpt lat="38.64969" lon="-8.21853">
        <ele>224.8818</ele>
        <time>2021-07-10T15:46:52Z</time>
      </trkpt>
      <trkpt lat="38.64966" lon="-8.21857">
        <ele>225.2814</ele>
        <time>2021-07-10T15:47:07Z</time>
      </trkpt>
      <trkpt lat="38.64967" lon="-8.21856">
        <ele>225.056</ele>
        <time>2021-07-10T15:48:07Z</time>
      </trkpt>
      <trkpt lat="38.64966" lon="-8.21849">
        <ele>225.5938</ele>
        <time>2021-07-10T15:48:22Z</time>
      </trkpt>
      <trkpt lat="38.64965" lon="-8.21845">
        <ele>226.9308</ele>
        <time>2021-07-10T15:48:34Z</time>
      </trkpt>
      <trkpt lat="38.64976" lon="-8.21899">
        <ele>222.6039</ele>
        <time>2021-07-10T15:48:45Z</time>
      </trkpt>
      <trkpt lat="38.64941" lon="-8.21943">
        <ele>218.0599</ele>
        <time>2021-07-10T15:48:56Z</time>
      </trkpt>
      <trkpt lat="38.64913" lon="-8.21911">
        <ele>218.0754</ele>
        <time>2021-07-10T15:49:07Z</time>
      </trkpt>
      <trkpt lat="38.64927" lon="-8.21845">
        <ele>224.4708</ele>
        <time>2021-07-10T15:49:18Z</time>
      </trkpt>
      <trkpt lat="38.64978" lon="-8.21843">
        <ele>225.9609</ele>
        <time>2021-07-10T15:49:29Z</time>
      </trkpt>
      <trkpt lat="38.64953" lon="-8.21719">
        <ele>232.0972</ele>
        <time>2021-07-10T15:49:40Z</time>
      </trkpt>
      <trkpt lat="38.64915" lon="-8.21554">
        <ele>237.0681</ele>
        <time>2021-07-10T15:49:51Z</time>
      </trkpt>
      <trkpt lat="38.64873" lon="-8.21384">
        <ele>244.08</ele>
        <time>2021-07-10T15:50:02Z</time>
      </trkpt>
      <trkpt lat="38.64833" lon="-8.21215">
        <ele>243.7477</ele>
        <time>2021-07-10T15:50:13Z</time>
      </trkpt>
      <trkpt lat="38.648" lon="-8.21085">
        <ele>241.4702</ele>
        <time>2021-07-10T15:50:24Z</time>
      </trkpt>
      <trkpt lat="38.64764" lon="-8.20942">
        <ele>241.335</ele>
        <time>2021-07-10T15:50:35Z</time>
      </trkpt>
      <trkpt lat="38.64727" lon="-8.20794">
        <ele>242.1232</ele>
        <time>2021-07-10T15:50:46Z</time>
      </trkpt>
      <trkpt lat="38.64689" lon="-8.20636">
        <ele>234.5919</ele>
        <time>2021-07-10T15:50:57Z</time>
      </trkpt>
      <trkpt lat="38.64651" lon="-8.20487">
        <ele>230.4383</ele>
        <time>2021-07-10T15:51:08Z</time>
      </trkpt>
      <trkpt lat="38.64619" lon="-8.20351">
        <ele>229.9382</ele>
        <time>2021-07-10T15:51:19Z</time>
      </trkpt>
      <trkpt lat="38.64587" lon="-8.20414">
        <ele>228.992</ele>
        <time>2021-07-10T15:51:30Z</time>
      </trkpt>
      <trkpt lat="38.64562" lon="-8.20545">
        <ele>227.1288</ele>
        <time>2021-07-10T15:51:41Z</time>
      </trkpt>
      <trkpt lat="38.64529" lon="-8.20677">
        <ele>227.7446</ele>
        <time>2021-07-10T15:51:52Z</time>
      </trkpt>
      <trkpt lat="38.64498" lon="-8.20767">
        <ele>227.6512</ele>
        <time>2021-07-10T15:52:03Z</time>
      </trkpt>
      <trkpt lat="38.64456" lon="-8.20885">
        <ele>227.7512</ele>
        <time>2021-07-10T15:52:14Z</time>
      </trkpt>
      <trkpt lat="38.64456" lon="-8.20969">
        <ele>228.8216</ele>
        <time>2021-07-10T15:52:25Z</time>
      </trkpt>
      <trkpt lat="38.64416" lon="-8.21017">
        <ele>231.8772</ele>
        <time>2021-07-10T15:52:36Z</time>
      </trkpt>
      <trkpt lat="38.644" lon="-8.21076">
        <ele>234.3239</ele>
        <time>2021-07-10T15:52:47Z</time>
      </trkpt>
      <trkpt lat="38.64372" lon="-8.21214">
        <ele>244.6487</ele>
        <time>2021-07-10T15:52:58Z</time>
      </trkpt>
      <trkpt lat="38.64346" lon="-8.21308">
        <ele>250.7578</ele>
        <time>2021-07-10T15:53:09Z</time>
      </trkpt>
      <trkpt lat="38.64243" lon="-8.21242">
        <ele>246.7662</ele>
        <time>2021-07-10T15:53:20Z</time>
      </trkpt>
      <trkpt lat="38.64128" lon="-8.21121">
        <ele>234.3628</ele>
        <time>2021-07-10T15:53:31Z</time>
      </trkpt>
      <trkpt lat="38.63999" lon="-8.20995">
        <ele>228.8624</ele>
        <time>2021-07-10T15:53:42Z</time>
      </trkpt>
      <trkpt lat="38.63876" lon="-8.20803">
        <ele>214.4107</ele>
        <time>2021-07-10T15:53:53Z</time>
      </trkpt>
      <trkpt lat="38.63708" lon="-8.20769">
        <ele>204.0071</ele>
        <time>2021-07-10T15:54:04Z</time>
      </trkpt>
      <trkpt lat="38.63554" lon="-8.20706">
        <ele>198.5242</ele>
        <time>2021-07-10T15:54:15Z</time>
      </trkpt>
      <trkpt lat="38.63443" lon="-8.20656">
        <ele>189.4278</ele>
        <time>2021-07-10T15:54:26Z</time>
      </trkpt>
      <trkpt lat="38.63384" lon="-8.20664">
        <ele>192.2041</ele>
        <time>2021-07-10T15:54:37Z</time>
      </trkpt>
      <trkpt lat="38.63296" lon="-8.20733">
        <ele>196.0037</ele>
        <time>2021-07-10T15:54:48Z</time>
      </trkpt>
      <trkpt lat="38.63099" lon="-8.20811">
        <ele>201.4851</ele>
        <time>2021-07-10T15:54:59Z</time>
      </trkpt>
      <trkpt lat="38.6295" lon="-8.20881">
        <ele>211.9389</ele>
        <time>2021-07-10T15:55:10Z</time>
      </trkpt>
      <trkpt lat="38.62739" lon="-8.2088">
        <ele>211.5597</ele>
        <time>2021-07-10T15:55:21Z</time>
      </trkpt>
      <trkpt lat="38.62526" lon="-8.20925">
        <ele>232.2976</ele>
        <time>2021-07-10T15:55:32Z</time>
      </trkpt>
      <trkpt lat="38.62301" lon="-8.20938">
        <ele>232.9373</ele>
        <time>2021-07-10T15:55:43Z</time>
      </trkpt>
      <trkpt lat="38.62073" lon="-8.20923">
        <ele>235.5416</ele>
        <time>2021-07-10T15:55:54Z</time>
      </trkpt>
      <trkpt lat="38.61886" lon="-8.20871">
        <ele>241.214</ele>
        <time>2021-07-10T15:56:05Z</time>
      </trkpt>
      <trkpt lat="38.61649" lon="-8.20852">
        <ele>254.4742</ele>
        <time>2021-07-10T15:56:16Z</time>
      </trkpt>
      <trkpt lat="38.61474" lon="-8.20767">
        <ele>253.4887</ele>
        <time>2021-07-10T15:56:27Z</time>
      </trkpt>
      <trkpt lat="38.61306" lon="-8.20719">
        <ele>253.8589</ele>
        <time>2021-07-10T15:56:38Z</time>
      </trkpt>
      <trkpt lat="38.61201" lon="-8.20684">
        <ele>256.8588</ele>
        <time>2021-07-10T15:56:49Z</time>
      </trkpt>
      <trkpt lat="38.61137" lon="-8.20642">
        <ele>260.694</ele>
        <time>2021-07-10T15:57:00Z</time>
      </trkpt>
      <trkpt lat="38.61043" lon="-8.20534">
        <ele>262.3274</ele>
        <time>2021-07-10T15:57:11Z</time>
      </trkpt>
      <trkpt lat="38.61011" lon="-8.20574">
        <ele>263.9377</ele>
        <time>2021-07-10T15:57:22Z</time>
      </trkpt>
      <trkpt lat="38.6101" lon="-8.20579">
        <ele>264.4604</ele>
        <time>2021-07-10T15:57:34Z</time>
      </trkpt>
      <trkpt lat="38.60914" lon="-8.20742">
        <ele>258.7013</ele>
        <time>2021-07-10T15:57:45Z</time>
      </trkpt>
      <trkpt lat="38.60799" lon="-8.20936">
        <ele>268.4624</ele>
        <time>2021-07-10T15:57:56Z</time>
      </trkpt>
      <trkpt lat="38.60678" lon="-8.2114">
        <ele>279.8233</ele>
        <time>2021-07-10T15:58:07Z</time>
      </trkpt>
      <trkpt lat="38.60561" lon="-8.21336">
        <ele>296.0115</ele>
        <time>2021-07-10T15:58:18Z</time>
      </trkpt>
      <trkpt lat="38.60485" lon="-8.21464">
        <ele>294.672</ele>
        <time>2021-07-10T15:58:29Z</time>
      </trkpt>
      <trkpt lat="38.60445" lon="-8.2149">
        <ele>296.543</ele>
        <time>2021-07-10T15:58:40Z</time>
      </trkpt>
      <trkpt lat="38.60357" lon="-8.21479">
        <ele>302.1558</ele>
        <time>2021-07-10T15:58:51Z</time>
      </trkpt>
      <trkpt lat="38.60268" lon="-8.21468">
        <ele>311.1561</ele>
        <time>2021-07-10T15:59:02Z</time>
      </trkpt>
      <trkpt lat="38.60197" lon="-8.21495">
        <ele>317.7051</ele>
        <time>2021-07-10T15:59:13Z</time>
      </trkpt>
      <trkpt lat="38.60237" lon="-8.21591">
        <ele>321.5576</ele>
        <time>2021-07-10T15:59:24Z</time>
      </trkpt>
      <trkpt lat="38.60249" lon="-8.21769">
        <ele>321.2674</ele>
        <time>2021-07-10T15:59:35Z</time>
      </trkpt>
      <trkpt lat="38.60264" lon="-8.21932">
        <ele>319.3024</ele>
        <time>2021-07-10T15:59:46Z</time>
      </trkpt>
      <trkpt lat="38.60275" lon="-8.22077">
        <ele>313.1354</ele>
        <time>2021-07-10T15:59:57Z</time>
      </trkpt>
      <trkpt lat="38.60302" lon="-8.22187">
        <ele>315.682</ele>
        <time>2021-07-10T16:00:08Z</time>
      </trkpt>
      <trkpt lat="38.60285" lon="-8.22241">
        <ele>318.8932</ele>
        <time>2021-07-10T16:00:19Z</time>
      </trkpt>
      <trkpt lat="38.60223" lon="-8.22318">
        <ele>317.5839</ele>
        <time>2021-07-10T16:00:30Z</time>
      </trkpt>
      <trkpt lat="38.60191" lon="-8.22398">
        <ele>317.4333</ele>
        <time>2021-07-10T16:00:41Z</time>
      </trkpt>
      <trkpt lat="38.60148" lon="-8.22483">
        <ele>314.4098</ele>
        <time>2021-07-10T16:00:52Z</time>
      </trkpt>
      <trkpt lat="38.60087" lon="-8.22553">
        <ele>308.4599</ele>
        <time>2021-07-10T16:01:03Z</time>
      </trkpt>
      <trkpt lat="38.60042" lon="-8.22602">
        <ele>306.2727</ele>
        <time>2021-07-10T16:01:14Z</time>
      </trkpt>
      <trkpt lat="38.59994" lon="-8.22637">
        <ele>304.6441</ele>
        <time>2021-07-10T16:01:25Z</time>
      </trkpt>
      <trkpt lat="38.59989" lon="-8.22641">
        <ele>306.7736</ele>
        <time>2021-07-10T16:01:43Z</time>
      </trkpt>
      <trkpt lat="38.59999" lon="-8.22713">
        <ele>306.0062</ele>
        <time>2021-07-10T16:01:54Z</time>
      </trkpt>
      <trkpt lat="38.59987" lon="-8.22804">
        <ele>298.4916</ele>
        <time>2021-07-10T16:02:05Z</time>
      </trkpt>
      <trkpt lat="38.60021" lon="-8.22894">
        <ele>298.3412</ele>
        <time>2021-07-10T16:02:17Z</time>
      </trkpt>
      <trkpt lat="38.60088" lon="-8.23016">
        <ele>293.5026</ele>
        <time>2021-07-10T16:02:28Z</time>
      </trkpt>
      <trkpt lat="38.60158" lon="-8.23101">
        <ele>307.9186</ele>
        <time>2021-07-10T16:02:39Z</time>
      </trkpt>
      <trkpt lat="38.60181" lon="-8.23266">
        <ele>309.1395</ele>
        <time>2021-07-10T16:02:50Z</time>
      </trkpt>
      <trkpt lat="38.60215" lon="-8.23408">
        <ele>305.3592</ele>
        <time>2021-07-10T16:03:01Z</time>
      </trkpt>
      <trkpt lat="38.60257" lon="-8.2353">
        <ele>299.5515</ele>
        <time>2021-07-10T16:03:12Z</time>
      </trkpt>
      <trkpt lat="38.60311" lon="-8.23618">
        <ele>297.8928</ele>
        <time>2021-07-10T16:03:23Z</time>
      </trkpt>
      <trkpt lat="38.60272" lon="-8.23764">
        <ele>293.2857</ele>
        <time>2021-07-10T16:03:34Z</time>
      </trkpt>
      <trkpt lat="38.60239" lon="-8.23858">
        <ele>291.2323</ele>
        <time>2021-07-10T16:03:45Z</time>
      </trkpt>
      <trkpt lat="38.60089" lon="-8.23813">
        <ele>292.6458</ele>
        <time>2021-07-10T16:03:56Z</time>
      </trkpt>
      <trkpt lat="38.59831" lon="-8.23787">
        <ele>281.8161</ele>
        <time>2021-07-10T16:04:07Z</time>
      </trkpt>
      <trkpt lat="38.59612" lon="-8.23777">
        <ele>276.5632</ele>
        <time>2021-07-10T16:04:18Z</time>
      </trkpt>
      <trkpt lat="38.59444" lon="-8.23852">
        <ele>265.0698</ele>
        <time>2021-07-10T16:04:29Z</time>
      </trkpt>
      <trkpt lat="38.59273" lon="-8.23978">
        <ele>257.0254</ele>
        <time>2021-07-10T16:04:40Z</time>
      </trkpt>
      <trkpt lat="38.59096" lon="-8.24038">
        <ele>248.7834</ele>
        <time>2021-07-10T16:04:51Z</time>
      </trkpt>
      <trkpt lat="38.59029" lon="-8.24066">
        <ele>246.0259</ele>
        <time>2021-07-10T16:05:02Z</time>
      </trkpt>
      <trkpt lat="38.58947" lon="-8.24151">
        <ele>242.1471</ele>
        <time>2021-07-10T16:05:13Z</time>
      </trkpt>
      <trkpt lat="38.58875" lon="-8.24222">
        <ele>241.2259</ele>
        <time>2021-07-10T16:05:24Z</time>
      </trkpt>
      <trkpt lat="38.58854" lon="-8.24334">
        <ele>250.1455</ele>
        <time>2021-07-10T16:05:35Z</time>
      </trkpt>
      <trkpt lat="38.58851" lon="-8.24429">
        <ele>262.9546</ele>
        <time>2021-07-10T16:05:46Z</time>
      </trkpt>
      <trkpt lat="38.58884" lon="-8.24547">
        <ele>271.863</ele>
        <time>2021-07-10T16:05:57Z</time>
      </trkpt>
      <trkpt lat="38.58845" lon="-8.24658">
        <ele>277.4596</ele>
        <time>2021-07-10T16:06:08Z</time>
      </trkpt>
      <trkpt lat="38.5877" lon="-8.24746">
        <ele>275.1445</ele>
        <time>2021-07-10T16:06:19Z</time>
      </trkpt>
      <trkpt lat="38.58709" lon="-8.24847">
        <ele>273.6531</ele>
        <time>2021-07-10T16:06:30Z</time>
      </trkpt>
      <trkpt lat="38.58668" lon="-8.24962">
        <ele>258.9017</ele>
        <time>2021-07-10T16:06:41Z</time>
      </trkpt>
      <trkpt lat="38.58635" lon="-8.25074">
        <ele>262.0622</ele>
        <time>2021-07-10T16:06:52Z</time>
      </trkpt>
      <trkpt lat="38.58627" lon="-8.25197">
        <ele>264.8541</ele>
        <time>2021-07-10T16:07:03Z</time>
      </trkpt>
      <trkpt lat="38.58647" lon="-8.25312">
        <ele>259.432</ele>
        <time>2021-07-10T16:07:14Z</time>
      </trkpt>
      <trkpt lat="38.58642" lon="-8.25359">
        <ele>260.1456</ele>
        <time>2021-07-10T16:07:25Z</time>
      </trkpt>
      <trkpt lat="38.58645" lon="-8.25364">
        <ele>264.4215</ele>
        <time>2021-07-10T16:07:40Z</time>
      </trkpt>
      <trkpt lat="38.58522" lon="-8.2542">
        <ele>264.4819</ele>
        <time>2021-07-10T16:07:51Z</time>
      </trkpt>
      <trkpt lat="38.58405" lon="-8.25554">
        <ele>260.6373</ele>
        <time>2021-07-10T16:08:02Z</time>
      </trkpt>
      <trkpt lat="38.58353" lon="-8.25678">
        <ele>259.4171</ele>
        <time>2021-07-10T16:08:13Z</time>
      </trkpt>
      <trkpt lat="38.58283" lon="-8.25852">
        <ele>259.5001</ele>
        <time>2021-07-10T16:08:24Z</time>
      </trkpt>
      <trkpt lat="38.58235" lon="-8.26016">
        <ele>257.7225</ele>
        <time>2021-07-10T16:08:35Z</time>
      </trkpt>
      <trkpt lat="38.58236" lon="-8.26041">
        <ele>256.4977</ele>
        <time>2021-07-10T16:08:46Z</time>
      </trkpt>
      <trkpt lat="38.58238" lon="-8.26041">
        <ele>254.7954</ele>
        <time>2021-07-10T16:09:46Z</time>
      </trkpt>
      <trkpt lat="38.58291" lon="-8.26065">
        <ele>257.1751</ele>
        <time>2021-07-10T16:09:57Z</time>
      </trkpt>
      <trkpt lat="38.58392" lon="-8.26126">
        <ele>260.5142</ele>
        <time>2021-07-10T16:10:08Z</time>
      </trkpt>
      <trkpt lat="38.5846" lon="-8.2629">
        <ele>251.7098</ele>
        <time>2021-07-10T16:10:19Z</time>
      </trkpt>
      <trkpt lat="38.58527" lon="-8.26468">
        <ele>250.1273</ele>
        <time>2021-07-10T16:10:30Z</time>
      </trkpt>
      <trkpt lat="38.58553" lon="-8.26648">
        <ele>258.1492</ele>
        <time>2021-07-10T16:10:41Z</time>
      </trkpt>
      <trkpt lat="38.58578" lon="-8.26853">
        <ele>256.0867</ele>
        <time>2021-07-10T16:10:52Z</time>
      </trkpt>
      <trkpt lat="38.58594" lon="-8.27069">
        <ele>256.3113</ele>
        <time>2021-07-10T16:11:03Z</time>
      </trkpt>
      <trkpt lat="38.58618" lon="-8.2724">
        <ele>255.4269</ele>
        <time>2021-07-10T16:11:14Z</time>
      </trkpt>
      <trkpt lat="38.58635" lon="-8.27423">
        <ele>255.5892</ele>
        <time>2021-07-10T16:11:25Z</time>
      </trkpt>
      <trkpt lat="38.58606" lon="-8.27551">
        <ele>250.8211</ele>
        <time>2021-07-10T16:11:36Z</time>
      </trkpt>
      <trkpt lat="38.58467" lon="-8.27655">
        <ele>243.0062</ele>
        <time>2021-07-10T16:11:47Z</time>
      </trkpt>
      <trkpt lat="38.58415" lon="-8.27752">
        <ele>237.934</ele>
        <time>2021-07-10T16:11:58Z</time>
      </trkpt>
      <trkpt lat="38.5843" lon="-8.2798">
        <ele>243.5077</ele>
        <time>2021-07-10T16:12:09Z</time>
      </trkpt>
      <trkpt lat="38.58387" lon="-8.28171">
        <ele>239.7325</ele>
        <time>2021-07-10T16:12:20Z</time>
      </trkpt>
      <trkpt lat="38.58331" lon="-8.2831">
        <ele>234.638</ele>
        <time>2021-07-10T16:12:31Z</time>
      </trkpt>
      <trkpt lat="38.58329" lon="-8.28426">
        <ele>230.6562</ele>
        <time>2021-07-10T16:12:42Z</time>
      </trkpt>
      <trkpt lat="38.58365" lon="-8.28629">
        <ele>223.4121</ele>
        <time>2021-07-10T16:12:53Z</time>
      </trkpt>
      <trkpt lat="38.5839" lon="-8.28717">
        <ele>228.8651</ele>
        <time>2021-07-10T16:13:04Z</time>
      </trkpt>
      <trkpt lat="38.5856" lon="-8.28682">
        <ele>235.7617</ele>
        <time>2021-07-10T16:13:15Z</time>
      </trkpt>
      <trkpt lat="38.58764" lon="-8.28644">
        <ele>242.831</ele>
        <time>2021-07-10T16:13:26Z</time>
      </trkpt>
      <trkpt lat="38.58908" lon="-8.28623">
        <ele>243.2466</ele>
        <time>2021-07-10T16:13:37Z</time>
      </trkpt>
      <trkpt lat="38.58876" lon="-8.28749">
        <ele>240.0019</ele>
        <time>2021-07-10T16:13:48Z</time>
      </trkpt>
      <trkpt lat="38.58768" lon="-8.29068">
        <ele>234.8902</ele>
        <time>2021-07-10T16:13:59Z</time>
      </trkpt>
      <trkpt lat="38.58667" lon="-8.29325">
        <ele>235.969</ele>
        <time>2021-07-10T16:14:10Z</time>
      </trkpt>
      <trkpt lat="38.58488" lon="-8.29461">
        <ele>235.5361</ele>
        <time>2021-07-10T16:14:21Z</time>
      </trkpt>
      <trkpt lat="38.58415" lon="-8.29501">
        <ele>232.9259</ele>
        <time>2021-07-10T16:14:32Z</time>
      </trkpt>
      <trkpt lat="38.58534" lon="-8.29454">
        <ele>233.6252</ele>
        <time>2021-07-10T16:14:43Z</time>
      </trkpt>
      <trkpt lat="38.58607" lon="-8.2948">
        <ele>229.6359</ele>
        <time>2021-07-10T16:14:54Z</time>
      </trkpt>
      <trkpt lat="38.58707" lon="-8.29678">
        <ele>226.8151</ele>
        <time>2021-07-10T16:15:05Z</time>
      </trkpt>
      <trkpt lat="38.58784" lon="-8.29858">
        <ele>231.2479</ele>
        <time>2021-07-10T16:15:16Z</time>
      </trkpt>
      <trkpt lat="38.58844" lon="-8.29993">
        <ele>222.682</ele>
        <time>2021-07-10T16:15:27Z</time>
      </trkpt>
      <trkpt lat="38.58775" lon="-8.30056">
        <ele>219.6799</ele>
        <time>2021-07-10T16:15:38Z</time>
      </trkpt>
      <trkpt lat="38.58643" lon="-8.30131">
        <ele>216.69</ele>
        <time>2021-07-10T16:15:49Z</time>
      </trkpt>
      <trkpt lat="38.58575" lon="-8.30258">
        <ele>217.1082</ele>
        <time>2021-07-10T16:16:00Z</time>
      </trkpt>
      <trkpt lat="38.58492" lon="-8.30442">
        <ele>219.649</ele>
        <time>2021-07-10T16:16:11Z</time>
      </trkpt>
      <trkpt lat="38.58375" lon="-8.3061">
        <ele>212.3716</ele>
        <time>2021-07-10T16:16:22Z</time>
      </trkpt>
      <trkpt lat="38.58285" lon="-8.3079">
        <ele>214.5857</ele>
        <time>2021-07-10T16:16:33Z</time>
      </trkpt>
      <trkpt lat="38.5817" lon="-8.30923">
        <ele>216.0948</ele>
        <time>2021-07-10T16:16:44Z</time>
      </trkpt>
      <trkpt lat="38.58088" lon="-8.31144">
        <ele>213.0534</ele>
        <time>2021-07-10T16:16:55Z</time>
      </trkpt>
      <trkpt lat="38.58029" lon="-8.31355">
        <ele>204.8581</ele>
        <time>2021-07-10T16:17:06Z</time>
      </trkpt>
      <trkpt lat="38.57952" lon="-8.3158">
        <ele>203.4162</ele>
        <time>2021-07-10T16:17:17Z</time>
      </trkpt>
      <trkpt lat="38.57944" lon="-8.31718">
        <ele>202.9067</ele>
        <time>2021-07-10T16:17:28Z</time>
      </trkpt>
      <trkpt lat="38.57913" lon="-8.31799">
        <ele>204.7987</ele>
        <time>2021-07-10T16:17:39Z</time>
      </trkpt>
      <trkpt lat="38.57867" lon="-8.31949">
        <ele>197.8243</ele>
        <time>2021-07-10T16:17:50Z</time>
      </trkpt>
      <trkpt lat="38.57813" lon="-8.32126">
        <ele>194.3447</ele>
        <time>2021-07-10T16:18:01Z</time>
      </trkpt>
      <trkpt lat="38.57815" lon="-8.32283">
        <ele>187.037</ele>
        <time>2021-07-10T16:18:12Z</time>
      </trkpt>
      <trkpt lat="38.57785" lon="-8.3238">
        <ele>181.2568</ele>
        <time>2021-07-10T16:18:23Z</time>
      </trkpt>
      <trkpt lat="38.57691" lon="-8.32482">
        <ele>190.6677</ele>
        <time>2021-07-10T16:18:34Z</time>
      </trkpt>
      <trkpt lat="38.57583" lon="-8.3263">
        <ele>195.6256</ele>
        <time>2021-07-10T16:18:45Z</time>
      </trkpt>
      <trkpt lat="38.57484" lon="-8.32799">
        <ele>200.4827</ele>
        <time>2021-07-10T16:18:56Z</time>
      </trkpt>
      <trkpt lat="38.57425" lon="-8.32966">
        <ele>201.9011</ele>
        <time>2021-07-10T16:19:07Z</time>
      </trkpt>
      <trkpt lat="38.5735" lon="-8.33161">
        <ele>208.5656</ele>
        <time>2021-07-10T16:19:18Z</time>
      </trkpt>
      <trkpt lat="38.57263" lon="-8.33275">
        <ele>207.891</ele>
        <time>2021-07-10T16:19:29Z</time>
      </trkpt>
      <trkpt lat="38.57181" lon="-8.33417">
        <ele>213.3358</ele>
        <time>2021-07-10T16:19:40Z</time>
      </trkpt>
      <trkpt lat="38.5707" lon="-8.3354">
        <ele>213.6866</ele>
        <time>2021-07-10T16:19:51Z</time>
      </trkpt>
      <trkpt lat="38.56967" lon="-8.33613">
        <ele>214.8438</ele>
        <time>2021-07-10T16:20:02Z</time>
      </trkpt>
      <trkpt lat="38.56958" lon="-8.33683">
        <ele>214.6671</ele>
        <time>2021-07-10T16:20:13Z</time>
      </trkpt>
      <trkpt lat="38.56958" lon="-8.33999">
        <ele>206.3198</ele>
        <time>2021-07-10T16:20:24Z</time>
      </trkpt>
      <trkpt lat="38.56961" lon="-8.34349">
        <ele>201.7524</ele>
        <time>2021-07-10T16:20:35Z</time>
      </trkpt>
      <trkpt lat="38.56946" lon="-8.34636">
        <ele>200.4826</ele>
        <time>2021-07-10T16:20:46Z</time>
      </trkpt>
      <trkpt lat="38.56888" lon="-8.34884">
        <ele>207.5908</ele>
        <time>2021-07-10T16:20:57Z</time>
      </trkpt>
      <trkpt lat="38.56892" lon="-8.35126">
        <ele>211.8721</ele>
        <time>2021-07-10T16:21:08Z</time>
      </trkpt>
      <trkpt lat="38.5695" lon="-8.35419">
        <ele>203.8754</ele>
        <time>2021-07-10T16:21:19Z</time>
      </trkpt>
      <trkpt lat="38.56974" lon="-8.3567">
        <ele>203.1047</ele>
        <time>2021-07-10T16:21:30Z</time>
      </trkpt>
      <trkpt lat="38.56988" lon="-8.35812">
        <ele>198.9659</ele>
        <time>2021-07-10T16:21:41Z</time>
      </trkpt>
      <trkpt lat="38.56988" lon="-8.35807">
        <ele>200.659</ele>
        <time>2021-07-10T16:21:54Z</time>
      </trkpt>
      <trkpt lat="38.56988" lon="-8.35814">
        <ele>201.6355</ele>
        <time>2021-07-10T16:22:10Z</time>
      </trkpt>
      <trkpt lat="38.56996" lon="-8.35994">
        <ele>199.2191</ele>
        <time>2021-07-10T16:22:21Z</time>
      </trkpt>
      <trkpt lat="38.57004" lon="-8.36347">
        <ele>199.659</ele>
        <time>2021-07-10T16:22:32Z</time>
      </trkpt>
      <trkpt lat="38.5701" lon="-8.36602">
        <ele>195.0678</ele>
        <time>2021-07-10T16:22:43Z</time>
      </trkpt>
      <trkpt lat="38.5706" lon="-8.36871">
        <ele>196.3488</ele>
        <time>2021-07-10T16:22:54Z</time>
      </trkpt>
      <trkpt lat="38.5712" lon="-8.37142">
        <ele>204.7533</ele>
        <time>2021-07-10T16:23:05Z</time>
      </trkpt>
      <trkpt lat="38.57237" lon="-8.37331">
        <ele>209.3701</ele>
        <time>2021-07-10T16:23:16Z</time>
      </trkpt>
      <trkpt lat="38.57397" lon="-8.37454">
        <ele>210.2918</ele>
        <time>2021-07-10T16:23:27Z</time>
      </trkpt>
      <trkpt lat="38.57566" lon="-8.3755">
        <ele>211.761</ele>
        <time>2021-07-10T16:23:38Z</time>
      </trkpt>
      <trkpt lat="38.57726" lon="-8.37672">
        <ele>207.9635</ele>
        <time>2021-07-10T16:23:49Z</time>
      </trkpt>
      <trkpt lat="38.57891" lon="-8.3783">
        <ele>211.9345</ele>
        <time>2021-07-10T16:24:00Z</time>
      </trkpt>
      <trkpt lat="38.58048" lon="-8.37975">
        <ele>215.643</ele>
        <time>2021-07-10T16:24:11Z</time>
      </trkpt>
      <trkpt lat="38.5814" lon="-8.3815">
        <ele>212.004</ele>
        <time>2021-07-10T16:24:22Z</time>
      </trkpt>
      <trkpt lat="38.58196" lon="-8.3829">
        <ele>205.698</ele>
        <time>2021-07-10T16:24:33Z</time>
      </trkpt>
      <trkpt lat="38.58197" lon="-8.38289">
        <ele>205.9229</ele>
        <time>2021-07-10T16:25:33Z</time>
      </trkpt>
      <trkpt lat="38.5821" lon="-8.38322">
        <ele>204.4459</ele>
        <time>2021-07-10T16:25:44Z</time>
      </trkpt>
      <trkpt lat="38.58276" lon="-8.38491">
        <ele>208.295</ele>
        <time>2021-07-10T16:25:55Z</time>
      </trkpt>
      <trkpt lat="38.5832" lon="-8.3864">
        <ele>205.1052</ele>
        <time>2021-07-10T16:26:06Z</time>
      </trkpt>
      <trkpt lat="38.58326" lon="-8.38714">
        <ele>205.7431</ele>
        <time>2021-07-10T16:26:17Z</time>
      </trkpt>
      <trkpt lat="38.58326" lon="-8.38723">
        <ele>207.4311</ele>
        <time>2021-07-10T16:26:29Z</time>
      </trkpt>
      <trkpt lat="38.58294" lon="-8.38908">
        <ele>197.4624</ele>
        <time>2021-07-10T16:26:40Z</time>
      </trkpt>
      <trkpt lat="38.58285" lon="-8.38954">
        <ele>196.1022</ele>
        <time>2021-07-10T16:26:51Z</time>
      </trkpt>
      <trkpt lat="38.58286" lon="-8.38949">
        <ele>195.4956</ele>
        <time>2021-07-10T16:27:18Z</time>
      </trkpt>
      <trkpt lat="38.58285" lon="-8.3895">
        <ele>195.4674</ele>
        <time>2021-07-10T16:28:18Z</time>
      </trkpt>
      <trkpt lat="38.5828" lon="-8.38951">
        <ele>196.3618</ele>
        <time>2021-07-10T16:28:56Z</time>
      </trkpt>
      <trkpt lat="38.58282" lon="-8.38943">
        <ele>195.938</ele>
        <time>2021-07-10T16:29:08Z</time>
      </trkpt>
      <trkpt lat="38.58293" lon="-8.38913">
        <ele>196.25</ele>
        <time>2021-07-10T16:29:20Z</time>
      </trkpt>
      <trkpt lat="38.58294" lon="-8.38914">
        <ele>192.4073</ele>
        <time>2021-07-10T16:30:20Z</time>
      </trkpt>
      <trkpt lat="38.58297" lon="-8.38906">
        <ele>194.584</ele>
        <time>2021-07-10T16:31:04Z</time>
      </trkpt>
      <trkpt lat="38.58325" lon="-8.38717">
        <ele>202.0787</ele>
        <time>2021-07-10T16:31:15Z</time>
      </trkpt>
      <trkpt lat="38.58275" lon="-8.38491">
        <ele>207.5988</ele>
        <time>2021-07-10T16:31:26Z</time>
      </trkpt>
      <trkpt lat="38.5818" lon="-8.38255">
        <ele>202.7808</ele>
        <time>2021-07-10T16:31:37Z</time>
      </trkpt>
      <trkpt lat="38.58082" lon="-8.38021">
        <ele>210.8807</ele>
        <time>2021-07-10T16:31:48Z</time>
      </trkpt>
      <trkpt lat="38.5792" lon="-8.37857">
        <ele>208.5193</ele>
        <time>2021-07-10T16:31:59Z</time>
      </trkpt>
      <trkpt lat="38.57737" lon="-8.37683">
        <ele>203.0241</ele>
        <time>2021-07-10T16:32:10Z</time>
      </trkpt>
      <trkpt lat="38.57552" lon="-8.37538">
        <ele>209.0183</ele>
        <time>2021-07-10T16:32:21Z</time>
      </trkpt>
      <trkpt lat="38.57365" lon="-8.37437">
        <ele>214.3435</ele>
        <time>2021-07-10T16:32:32Z</time>
      </trkpt>
      <trkpt lat="38.57195" lon="-8.37291">
        <ele>210.8774</ele>
        <time>2021-07-10T16:32:43Z</time>
      </trkpt>
      <trkpt lat="38.57099" lon="-8.3706">
        <ele>206.7884</ele>
        <time>2021-07-10T16:32:54Z</time>
      </trkpt>
      <trkpt lat="38.57034" lon="-8.3677">
        <ele>194.9404</ele>
        <time>2021-07-10T16:33:05Z</time>
      </trkpt>
      <trkpt lat="38.57004" lon="-8.36505">
        <ele>201.4005</ele>
        <time>2021-07-10T16:33:16Z</time>
      </trkpt>
      <trkpt lat="38.56998" lon="-8.36244">
        <ele>198.8238</ele>
        <time>2021-07-10T16:33:27Z</time>
      </trkpt>
      <trkpt lat="38.56995" lon="-8.36019">
        <ele>196.8739</ele>
        <time>2021-07-10T16:33:38Z</time>
      </trkpt>
      <trkpt lat="38.56983" lon="-8.35796">
        <ele>194.0719</ele>
        <time>2021-07-10T16:33:49Z</time>
      </trkpt>
      <trkpt lat="38.5696" lon="-8.35558">
        <ele>196.9292</ele>
        <time>2021-07-10T16:34:00Z</time>
      </trkpt>
      <trkpt lat="38.56935" lon="-8.35302">
        <ele>199.7475</ele>
        <time>2021-07-10T16:34:11Z</time>
      </trkpt>
      <trkpt lat="38.56878" lon="-8.35073">
        <ele>201.6316</ele>
        <time>2021-07-10T16:34:22Z</time>
      </trkpt>
      <trkpt lat="38.56899" lon="-8.34836">
        <ele>203.2715</ele>
        <time>2021-07-10T16:34:33Z</time>
      </trkpt>
      <trkpt lat="38.56943" lon="-8.34637">
        <ele>206.3294</ele>
        <time>2021-07-10T16:34:44Z</time>
      </trkpt>
      <trkpt lat="38.5696" lon="-8.34443">
        <ele>203.6493</ele>
        <time>2021-07-10T16:34:55Z</time>
      </trkpt>
      <trkpt lat="38.56957" lon="-8.34142">
        <ele>200.4058</ele>
        <time>2021-07-10T16:35:06Z</time>
      </trkpt>
      <trkpt lat="38.56956" lon="-8.33799">
        <ele>201.5613</ele>
        <time>2021-07-10T16:35:17Z</time>
      </trkpt>
      <trkpt lat="38.56955" lon="-8.33432">
        <ele>202.7971</ele>
        <time>2021-07-10T16:35:28Z</time>
      </trkpt>
      <trkpt lat="38.5692" lon="-8.33072">
        <ele>205.6705</ele>
        <time>2021-07-10T16:35:39Z</time>
      </trkpt>
      <trkpt lat="38.56869" lon="-8.32715">
        <ele>209.749</ele>
        <time>2021-07-10T16:35:50Z</time>
      </trkpt>
      <trkpt lat="38.56819" lon="-8.32357">
        <ele>207.5789</ele>
        <time>2021-07-10T16:36:01Z</time>
      </trkpt>
      <trkpt lat="38.56775" lon="-8.32034">
        <ele>211.5912</ele>
        <time>2021-07-10T16:36:12Z</time>
      </trkpt>
      <trkpt lat="38.56758" lon="-8.3167">
        <ele>210.118</ele>
        <time>2021-07-10T16:36:23Z</time>
      </trkpt>
      <trkpt lat="38.56743" lon="-8.31308">
        <ele>213.2127</ele>
        <time>2021-07-10T16:36:34Z</time>
      </trkpt>
      <trkpt lat="38.56717" lon="-8.30986">
        <ele>217.2997</ele>
        <time>2021-07-10T16:36:45Z</time>
      </trkpt>
      <trkpt lat="38.56563" lon="-8.307">
        <ele>215.7693</ele>
        <time>2021-07-10T16:36:56Z</time>
      </trkpt>
      <trkpt lat="38.56417" lon="-8.30419">
        <ele>219.7681</ele>
        <time>2021-07-10T16:37:07Z</time>
      </trkpt>
      <trkpt lat="38.56362" lon="-8.30086">
        <ele>216.4487</ele>
        <time>2021-07-10T16:37:18Z</time>
      </trkpt>
      <trkpt lat="38.56329" lon="-8.29921">
        <ele>216.8504</ele>
        <time>2021-07-10T16:37:29Z</time>
      </trkpt>
      <trkpt lat="38.56188" lon="-8.29926">
        <ele>219.6248</ele>
        <time>2021-07-10T16:37:40Z</time>
      </trkpt>
      <trkpt lat="38.55926" lon="-8.29977">
        <ele>220.6067</ele>
        <time>2021-07-10T16:37:51Z</time>
      </trkpt>
      <trkpt lat="38.55649" lon="-8.30032">
        <ele>214.3664</ele>
        <time>2021-07-10T16:38:02Z</time>
      </trkpt>
      <trkpt lat="38.5537" lon="-8.3009">
        <ele>213.3117</ele>
        <time>2021-07-10T16:38:13Z</time>
      </trkpt>
      <trkpt lat="38.5511" lon="-8.3014">
        <ele>216.9697</ele>
        <time>2021-07-10T16:38:24Z</time>
      </trkpt>
      <trkpt lat="38.54823" lon="-8.30199">
        <ele>219.3816</ele>
        <time>2021-07-10T16:38:35Z</time>
      </trkpt>
      <trkpt lat="38.54532" lon="-8.30258">
        <ele>212.6542</ele>
        <time>2021-07-10T16:38:46Z</time>
      </trkpt>
      <trkpt lat="38.54249" lon="-8.30316">
        <ele>207.997</ele>
        <time>2021-07-10T16:38:57Z</time>
      </trkpt>
      <trkpt lat="38.53959" lon="-8.30372">
        <ele>203.8918</ele>
        <time>2021-07-10T16:39:08Z</time>
      </trkpt>
      <trkpt lat="38.53647" lon="-8.30434">
        <ele>198.4472</ele>
        <time>2021-07-10T16:39:19Z</time>
      </trkpt>
      <trkpt lat="38.53357" lon="-8.30491">
        <ele>195.0721</ele>
        <time>2021-07-10T16:39:30Z</time>
      </trkpt>
      <trkpt lat="38.5307" lon="-8.30551">
        <ele>193.2074</ele>
        <time>2021-07-10T16:39:41Z</time>
      </trkpt>
      <trkpt lat="38.52776" lon="-8.30607">
        <ele>190.3053</ele>
        <time>2021-07-10T16:39:52Z</time>
      </trkpt>
      <trkpt lat="38.52477" lon="-8.30665">
        <ele>187.9496</ele>
        <time>2021-07-10T16:40:03Z</time>
      </trkpt>
      <trkpt lat="38.52182" lon="-8.30728">
        <ele>186.7266</ele>
        <time>2021-07-10T16:40:14Z</time>
      </trkpt>
      <trkpt lat="38.51912" lon="-8.30781">
        <ele>186.8903</ele>
        <time>2021-07-10T16:40:25Z</time>
      </trkpt>
      <trkpt lat="38.51622" lon="-8.30838">
        <ele>181.6707</ele>
        <time>2021-07-10T16:40:36Z</time>
      </trkpt>
      <trkpt lat="38.51335" lon="-8.30822">
        <ele>174.7834</ele>
        <time>2021-07-10T16:40:47Z</time>
      </trkpt>
      <trkpt lat="38.51048" lon="-8.308">
        <ele>169.9161</ele>
        <time>2021-07-10T16:40:58Z</time>
      </trkpt>
      <trkpt lat="38.50813" lon="-8.30786">
        <ele>167.7568</ele>
        <time>2021-07-10T16:41:09Z</time>
      </trkpt>
      <trkpt lat="38.5061" lon="-8.30766">
        <ele>167.9332</ele>
        <time>2021-07-10T16:41:20Z</time>
      </trkpt>
      <trkpt lat="38.50398" lon="-8.30751">
        <ele>164.4187</ele>
        <time>2021-07-10T16:41:31Z</time>
      </trkpt>
      <trkpt lat="38.50141" lon="-8.30733">
        <ele>162.2169</ele>
        <time>2021-07-10T16:41:42Z</time>
      </trkpt>
      <trkpt lat="38.4992" lon="-8.30847">
        <ele>158.3525</ele>
        <time>2021-07-10T16:41:53Z</time>
      </trkpt>
      <trkpt lat="38.49797" lon="-8.312">
        <ele>146.9327</ele>
        <time>2021-07-10T16:42:04Z</time>
      </trkpt>
      <trkpt lat="38.49825" lon="-8.31571">
        <ele>148.9316</ele>
        <time>2021-07-10T16:42:15Z</time>
      </trkpt>
      <trkpt lat="38.49846" lon="-8.31895">
        <ele>157.6375</ele>
        <time>2021-07-10T16:42:26Z</time>
      </trkpt>
      <trkpt lat="38.49736" lon="-8.3223">
        <ele>155.5255</ele>
        <time>2021-07-10T16:42:37Z</time>
      </trkpt>
      <trkpt lat="38.49542" lon="-8.32521">
        <ele>152.1604</ele>
        <time>2021-07-10T16:42:48Z</time>
      </trkpt>
      <trkpt lat="38.49353" lon="-8.32803">
        <ele>155.2133</ele>
        <time>2021-07-10T16:42:59Z</time>
      </trkpt>
      <trkpt lat="38.49191" lon="-8.331">
        <ele>149.8941</ele>
        <time>2021-07-10T16:43:10Z</time>
      </trkpt>
      <trkpt lat="38.49129" lon="-8.33458">
        <ele>144.6163</ele>
        <time>2021-07-10T16:43:21Z</time>
      </trkpt>
      <trkpt lat="38.4907" lon="-8.33821">
        <ele>142.2421</ele>
        <time>2021-07-10T16:43:32Z</time>
      </trkpt>
      <trkpt lat="38.49014" lon="-8.34177">
        <ele>139.4839</ele>
        <time>2021-07-10T16:43:43Z</time>
      </trkpt>
      <trkpt lat="38.48956" lon="-8.34534">
        <ele>127.8477</ele>
        <time>2021-07-10T16:43:54Z</time>
      </trkpt>
      <trkpt lat="38.489" lon="-8.34881">
        <ele>120.7967</ele>
        <time>2021-07-10T16:44:05Z</time>
      </trkpt>
      <trkpt lat="38.4879" lon="-8.35147">
        <ele>111.2992</ele>
        <time>2021-07-10T16:44:16Z</time>
      </trkpt>
      <trkpt lat="38.48597" lon="-8.35313">
        <ele>104.1237</ele>
        <time>2021-07-10T16:44:27Z</time>
      </trkpt>
      <trkpt lat="38.48581" lon="-8.35598">
        <ele>98.57295</ele>
        <time>2021-07-10T16:44:38Z</time>
      </trkpt>
      <trkpt lat="38.48634" lon="-8.35921">
        <ele>94.76459</ele>
        <time>2021-07-10T16:44:49Z</time>
      </trkpt>
      <trkpt lat="38.48561" lon="-8.36181">
        <ele>84.49955</ele>
        <time>2021-07-10T16:45:00Z</time>
      </trkpt>
      <trkpt lat="38.48353" lon="-8.36352">
        <ele>63.99876</ele>
        <time>2021-07-10T16:45:11Z</time>
      </trkpt>
      <trkpt lat="38.48107" lon="-8.36452">
        <ele>73.93673</ele>
        <time>2021-07-10T16:45:22Z</time>
      </trkpt>
      <trkpt lat="38.47962" lon="-8.36695">
        <ele>90.23189</ele>
        <time>2021-07-10T16:45:33Z</time>
      </trkpt>
      <trkpt lat="38.47855" lon="-8.36924">
        <ele>103.553</ele>
        <time>2021-07-10T16:45:44Z</time>
      </trkpt>
      <trkpt lat="38.47625" lon="-8.36976">
        <ele>121.2553</ele>
        <time>2021-07-10T16:45:55Z</time>
      </trkpt>
      <trkpt lat="38.47451" lon="-8.37172">
        <ele>118.7392</ele>
        <time>2021-07-10T16:46:06Z</time>
      </trkpt>
      <trkpt lat="38.4726" lon="-8.37216">
        <ele>115.6641</ele>
        <time>2021-07-10T16:46:17Z</time>
      </trkpt>
      <trkpt lat="38.47179" lon="-8.37207">
        <ele>117.714</ele>
        <time>2021-07-10T16:46:28Z</time>
      </trkpt>
      <trkpt lat="38.47173" lon="-8.37206">
        <ele>118.4075</ele>
        <time>2021-07-10T16:46:48Z</time>
      </trkpt>
      <trkpt lat="38.46989" lon="-8.37167">
        <ele>125.056</ele>
        <time>2021-07-10T16:46:59Z</time>
      </trkpt>
      <trkpt lat="38.46741" lon="-8.37124">
        <ele>121.4143</ele>
        <time>2021-07-10T16:47:10Z</time>
      </trkpt>
      <trkpt lat="38.46505" lon="-8.37201">
        <ele>113.0229</ele>
        <time>2021-07-10T16:47:21Z</time>
      </trkpt>
      <trkpt lat="38.4628" lon="-8.37418">
        <ele>101.9106</ele>
        <time>2021-07-10T16:47:32Z</time>
      </trkpt>
      <trkpt lat="38.46044" lon="-8.37643">
        <ele>92.70395</ele>
        <time>2021-07-10T16:47:43Z</time>
      </trkpt>
      <trkpt lat="38.45787" lon="-8.37887">
        <ele>78.94475</ele>
        <time>2021-07-10T16:47:54Z</time>
      </trkpt>
      <trkpt lat="38.45562" lon="-8.38113">
        <ele>69.51327</ele>
        <time>2021-07-10T16:48:05Z</time>
      </trkpt>
      <trkpt lat="38.45415" lon="-8.38432">
        <ele>62.76307</ele>
        <time>2021-07-10T16:48:16Z</time>
      </trkpt>
      <trkpt lat="38.45266" lon="-8.38751">
        <ele>53.13266</ele>
        <time>2021-07-10T16:48:27Z</time>
      </trkpt>
      <trkpt lat="38.45087" lon="-8.38976">
        <ele>45.13968</ele>
        <time>2021-07-10T16:48:38Z</time>
      </trkpt>
      <trkpt lat="38.44957" lon="-8.391">
        <ele>38.73579</ele>
        <time>2021-07-10T16:48:49Z</time>
      </trkpt>
      <trkpt lat="38.44835" lon="-8.39161">
        <ele>33.70264</ele>
        <time>2021-07-10T16:49:00Z</time>
      </trkpt>
      <trkpt lat="38.44767" lon="-8.39171">
        <ele>32.65689</ele>
        <time>2021-07-10T16:49:11Z</time>
      </trkpt>
      <trkpt lat="38.4474" lon="-8.39104">
        <ele>36.01667</ele>
        <time>2021-07-10T16:49:22Z</time>
      </trkpt>
      <trkpt lat="38.447" lon="-8.39009">
        <ele>36.37951</ele>
        <time>2021-07-10T16:49:33Z</time>
      </trkpt>
      <trkpt lat="38.44674" lon="-8.38866">
        <ele>32.45772</ele>
        <time>2021-07-10T16:49:44Z</time>
      </trkpt>
      <trkpt lat="38.44651" lon="-8.38531">
        <ele>34.75608</ele>
        <time>2021-07-10T16:49:55Z</time>
      </trkpt>
      <trkpt lat="38.44634" lon="-8.38234">
        <ele>40.08787</ele>
        <time>2021-07-10T16:50:06Z</time>
      </trkpt>
      <trkpt lat="38.44633" lon="-8.3799">
        <ele>42.59439</ele>
        <time>2021-07-10T16:50:17Z</time>
      </trkpt>
      <trkpt lat="38.44634" lon="-8.37944">
        <ele>43.5341</ele>
        <time>2021-07-10T16:50:28Z</time>
      </trkpt>
      <trkpt lat="38.44629" lon="-8.37945">
        <ele>43.9112</ele>
        <time>2021-07-10T16:50:39Z</time>
      </trkpt>
      <trkpt lat="38.44631" lon="-8.38051">
        <ele>40.51303</ele>
        <time>2021-07-10T16:50:50Z</time>
      </trkpt>
      <trkpt lat="38.44636" lon="-8.38308">
        <ele>39.89811</ele>
        <time>2021-07-10T16:51:01Z</time>
      </trkpt>
      <trkpt lat="38.44655" lon="-8.38605">
        <ele>33.0392</ele>
        <time>2021-07-10T16:51:12Z</time>
      </trkpt>
      <trkpt lat="38.44673" lon="-8.38862">
        <ele>31.97446</ele>
        <time>2021-07-10T16:51:23Z</time>
      </trkpt>
      <trkpt lat="38.44698" lon="-8.39007">
        <ele>38.7328</ele>
        <time>2021-07-10T16:51:34Z</time>
      </trkpt>
      <trkpt lat="38.44751" lon="-8.39135">
        <ele>35.9873</ele>
        <time>2021-07-10T16:51:45Z</time>
      </trkpt>
      <trkpt lat="38.44766" lon="-8.39186">
        <ele>37.09329</ele>
        <time>2021-07-10T16:51:56Z</time>
      </trkpt>
      <trkpt lat="38.44762" lon="-8.39185">
        <ele>43.52942</ele>
        <time>2021-07-10T16:52:10Z</time>
      </trkpt>
      <trkpt lat="38.4476" lon="-8.39183">
        <ele>52.35419</ele>
        <time>2021-07-10T16:53:10Z</time>
      </trkpt>
    </trkseg>
  </trk>
</gpx>